GFSMA_sfc_thetae_000.txt.gz
Theta_e
348 351 348 350 349 349 346 347 345 346 346 347 348 348 347 347 344 345 351 361 360 360 362 362 362 359 358 356 355 353 354 354 352 352 353 354 354 353 354 351 351 353 353
348 349 347 346 346 347 348 347 346 345 345 344 345 346 346 347 346 342 351 353 361 360 362 365 364 363 359 358 357 355 357 359 358 355 356 355 355 356 355 354 355 354 355
350 347 344 343 344 345 346 346 344 343 342 344 342 344 345 345 345 344 345 352 353 362 360 362 365 364 364 361 359 360 360 359 359 358 357 357 357 358 358 358 358 357 357
351 347 342 343 345 344 344 341 338 338 338 339 339 339 340 341 343 344 345 347 352 354 358 359 360 364 364 362 363 362 362 361 361 360 359 358 358 357 358 358 358 357 357
350 346 343 345 344 341 340 339 338 337 337 337 338 339 337 337 340 345 344 345 347 351 351 356 357 358 363 363 364 365 363 361 360 361 361 360 360 359 358 356 356 356 356
351 350 345 344 344 342 340 340 338 337 337 336 340 341 339 339 339 339 341 343 344 347 351 351 351 353 358 361 362 364 365 363 361 361 361 360 359 359 358 357 356 357 357
349 346 346 345 344 341 340 340 337 336 335 336 333 331 332 336 336 338 340 340 342 344 345 349 350 350 353 356 357 360 364 365 363 362 362 360 359 358 358 357 356 357 357
349 347 346 344 341 339 337 336 335 334 334 336 331 325 321 325 330 333 336 338 340 341 342 345 345 349 348 348 352 356 357 362 364 363 362 361 360 358 358 356 355 356 356
340 341 339 336 336 336 334 334 334 333 330 333 333 328 321 317 323 328 331 334 336 337 338 340 342 345 346 348 352 353 356 353 357 363 363 361 359 359 358 357 356 354 354
337 337 336 337 337 335 334 334 338 334 332 328 331 334 329 328 320 319 326 329 332 333 335 337 341 343 342 340 345 349 353 353 354 357 362 363 361 360 359 358 356 355 353
334 336 339 336 334 334 333 334 333 332 332 330 328 328 326 326 324 320 316 321 326 329 332 335 337 339 341 339 337 341 349 351 352 354 356 359 361 363 362 361 359 357 356
333 337 336 333 333 331 332 332 333 332 331 330 329 327 324 321 320 319 317 318 320 325 329 331 333 336 340 340 343 346 349 347 346 349 351 354 356 359 364 364 362 361 359
329 330 330 330 327 328 331 332 331 329 330 329 327 325 325 324 324 322 320 318 318 322 324 328 330 334 336 341 345 349 349 347 344 341 341 345 349 353 356 361 363 363 363
329 330 329 329 329 330 332 332 330 329 330 329 328 327 326 324 323 322 320 316 313 313 315 317 322 325 329 329 335 344 347 344 342 339 338 339 342 346 350 352 355 358 359
330 329 330 329 330 332 331 331 330 330 329 328 328 328 326 324 322 321 319 319 314 306 307 313 314 320 323 325 330 334 339 343 341 339 337 337 338 342 345 347 348 350 351
329 329 329 330 330 330 330 329 328 328 327 327 328 328 326 323 322 321 319 316 315 313 308 312 314 318 320 323 326 331 336 341 342 339 337 335 336 339 341 344 345 345 347
330 332 332 331 329 328 330 329 329 329 327 327 327 326 326 324 320 320 319 316 315 314 313 313 314 317 317 318 321 325 331 336 340 338 337 335 333 335 337 340 340 342 343
329 328 328 328 328 330 330 329 328 329 327 326 326 324 324 326 320 320 318 316 315 315 315 312 315 315 316 317 319 322 326 333 337 340 336 334 333 332 333 334 336 336 337
327 328 326 324 327 328 328 329 329 329 327 327 326 323 323 323 320 318 318 317 317 318 316 316 316 316 316 317 318 321 322 325 334 338 335 333 333 332 330 329 330 330 329
327 326 326 328 328 327 327 328 328 328 327 326 325 324 324 322 321 319 318 318 317 315 314 315 316 315 314 316 318 317 317 322 325 335 339 337 336 334 331 328 328 329 325
328 327 328 328 328 328 330 329 329 327 325 324 325 325 324 325 328 324 321 319 316 315 316 317 315 313 313 314 314 317 317 319 321 326 332 337 337 336 334 330 333 332 326
327 327 328 328 326 329 328 328 325 321 321 321 320 321 321 327 327 328 327 327 323 315 315 315 314 313 314 315 317 316 316 315 314 323 329 334 336 333 334 336 334 331 327
326 327 327 325 326 326 324 323 328 320 318 317 317 318 320 324 326 322 323 324 323 323 323 316 314 315 315 317 317 316 316 316 316 321 324 327 337 335 337 338 331 328 326
328 328 325 327 326 325 324 321 325 319 318 318 319 319 318 319 319 319 317 314 314 315 316 317 316 318 318 318 318 317 317 317 318 321 325 322 333 336 339 341 331 329 325
327 327 328 328 324 325 321 319 320 318 317 316 315 317 318 317 317 316 313 311 311 313 318 318 318 318 318 318 319 318 316 315 313 316 323 325 331 333 336 338 339 329 323
328 331 329 327 322 324 318 316 317 317 313 312 315 316 317 314 312 311 310 309 312 314 313 314 315 316 318 318 319 320 317 315 315 316 322 327 332 334 327 335 339 332 329

GFSMA_sfc_thetae_003.txt.gz
Theta_e
343 346 346 346 345 346 344 344 344 344 343 343 345 345 345 345 346 343 347 359 360 360 359 361 361 358 356 356 355 355 354 352 353 353 354 352 352 354 353 349 350 351 351
345 346 344 344 343 344 344 345 343 342 341 342 343 343 342 343 345 344 342 349 361 362 361 360 362 361 357 355 356 354 357 357 356 355 356 355 356 356 353 352 351 352 355
347 346 343 340 341 343 342 342 340 338 338 339 338 341 340 341 342 344 343 346 351 360 363 362 360 360 361 358 357 357 358 358 359 358 356 356 356 356 356 356 356 356 356
348 345 340 341 342 341 341 339 336 335 335 335 335 336 337 338 339 342 343 343 348 352 357 362 360 359 360 360 360 361 360 359 358 359 358 358 358 357 358 358 357 357 357
349 345 340 340 341 340 339 337 335 334 333 334 335 336 336 336 337 341 340 341 342 347 350 355 358 358 358 360 362 360 361 360 359 360 360 359 358 358 357 356 357 357 357
348 345 345 343 342 339 337 335 334 334 333 333 337 337 335 336 336 336 338 341 341 342 346 349 349 350 356 359 359 358 362 361 360 361 360 360 359 358 357 357 356 356 355
348 345 343 342 341 338 337 337 335 333 332 333 330 330 330 330 331 333 336 338 339 341 343 347 347 347 349 355 356 357 359 362 361 361 361 359 359 359 358 357 356 356 356
347 345 343 341 341 337 335 334 334 331 332 334 328 323 320 324 326 329 330 335 335 338 340 342 344 346 347 348 350 355 356 358 359 360 360 359 359 358 357 356 355 355 355
347 344 342 339 334 334 332 332 332 330 328 331 331 325 317 315 321 326 328 329 330 330 333 337 340 343 344 346 349 351 354 354 357 359 358 358 358 359 358 357 355 355 354
336 338 336 334 335 333 332 332 336 333 330 326 328 332 328 326 318 316 323 325 327 327 329 332 335 337 340 341 345 349 351 351 352 355 358 358 358 358 359 358 357 355 354
332 333 334 336 333 332 331 332 331 331 330 328 326 325 324 323 322 317 313 317 322 325 328 330 330 333 337 339 339 340 345 347 347 351 353 356 357 359 361 360 359 357 356
326 332 336 332 331 330 330 330 330 330 329 329 327 325 321 318 317 317 315 315 316 320 324 326 327 330 334 335 335 340 345 348 347 347 349 351 354 358 360 362 361 360 360
327 329 328 329 325 325 328 329 329 327 328 327 325 323 323 322 322 320 317 314 314 316 319 320 324 323 329 326 328 333 336 339 342 344 344 347 350 352 355 358 360 361 361
327 327 327 326 324 326 329 330 329 327 327 328 326 325 324 323 323 320 318 314 307 309 311 312 318 319 321 321 326 331 327 333 336 339 341 341 342 345 349 351 353 355 357
327 327 326 325 326 329 330 328 327 328 328 327 326 326 325 324 321 320 318 316 309 302 303 309 312 315 316 318 322 324 324 329 332 335 338 338 339 340 341 344 347 348 350
326 326 325 326 326 328 328 326 325 326 326 326 326 326 326 324 321 319 318 315 313 309 307 310 311 313 316 319 322 322 322 328 330 331 335 337 337 338 338 339 341 344 345
324 325 326 327 328 326 325 326 326 327 326 325 326 326 326 324 320 319 318 316 313 312 312 311 313 315 315 317 319 320 321 322 325 330 332 335 335 335 336 336 338 340 342
325 328 328 327 326 325 326 327 327 327 326 325 325 324 325 326 321 318 317 316 315 313 312 312 313 315 314 319 318 317 319 322 323 327 328 330 334 333 332 331 333 334 335
326 324 324 322 321 322 324 325 326 326 325 326 326 323 323 321 320 318 317 317 316 317 314 314 315 319 318 318 316 317 318 319 322 327 327 329 331 332 330 328 327 327 327
324 323 323 322 322 323 324 324 324 325 325 326 325 323 322 321 321 319 318 318 317 315 314 313 316 316 315 316 316 314 313 317 317 322 326 327 329 333 333 329 327 327 323
327 324 323 322 324 325 326 324 325 326 325 324 323 322 323 324 329 324 320 318 316 315 314 314 315 314 313 312 311 314 314 316 316 319 319 322 325 330 338 332 334 332 326
326 324 323 324 324 326 325 327 328 322 321 320 318 317 318 323 323 326 327 327 322 315 314 313 314 312 312 312 315 314 314 312 310 319 318 320 328 330 337 338 333 330 327
326 323 323 324 324 323 323 323 328 320 317 316 314 315 317 321 322 319 321 323 323 323 324 317 312 312 311 314 315 313 313 313 312 317 318 316 320 322 331 338 330 327 326
326 324 324 324 322 324 321 320 325 321 317 315 316 316 314 314 316 317 316 313 312 312 313 315 314 314 315 316 316 316 315 315 316 318 319 314 319 320 329 339 331 328 325
325 325 324 324 324 323 320 319 319 319 316 315 313 313 315 314 316 317 311 309 309 310 316 317 317 317 317 317 318 316 313 312 311 313 319 316 318 318 325 334 340 329 325
327 326 326 323 323 324 318 316 315 316 313 311 312 313 314 313 312 310 308 306 308 308 309 311 313 314 316 316 319 318 315 311 311 311 318 315 317 321 322 334 339 335 329

GFSMA_sfc_thetae_006.txt.gz
Theta_e
344 346 349 350 349 350 349 348 349 347 346 347 347 347 347 348 349 348 347 351 359 359 358 359 358 359 355 353 353 355 354 353 352 352 353 351 353 352 353 350 350 351 352
347 347 348 347 347 349 347 349 347 345 343 344 344 345 345 345 347 346 347 349 354 359 361 360 358 358 359 356 355 355 355 355 355 354 355 356 355 355 354 352 350 350 353
348 347 347 346 347 346 346 345 344 341 341 342 341 342 342 343 344 345 347 349 351 353 356 361 361 360 358 359 357 356 358 357 358 357 356 356 356 356 357 356 355 355 355
351 348 346 344 346 346 344 343 341 340 340 339 339 340 340 342 342 343 345 346 349 349 354 355 360 359 358 358 359 358 359 358 357 358 358 357 357 357 357 356 356 356 356
352 349 345 345 346 345 344 342 340 339 339 339 339 341 341 341 342 342 343 344 345 347 348 351 356 358 357 358 359 359 358 358 358 358 358 359 358 358 357 357 357 358 357
351 349 346 346 346 344 342 341 340 340 339 338 338 338 339 338 340 340 340 343 344 346 346 349 355 353 355 357 357 358 358 358 357 358 358 358 359 358 357 356 356 356 357
350 348 347 345 345 343 342 342 340 339 338 338 336 335 334 334 336 335 339 340 338 340 346 350 352 353 353 353 356 357 357 359 359 358 357 357 357 358 357 356 356 356 356
349 347 346 345 345 343 340 339 338 336 337 339 334 328 326 329 332 334 336 336 334 336 337 342 345 346 348 350 352 353 356 357 359 359 359 357 356 357 357 357 356 356 356
349 348 346 345 342 339 338 338 337 336 334 336 337 332 324 321 327 331 333 333 333 334 336 338 339 340 344 346 346 347 349 351 353 356 357 357 356 356 356 357 356 356 355
346 344 342 340 338 338 337 337 340 338 336 332 335 336 334 331 325 322 328 329 330 330 333 335 336 338 340 342 341 343 345 347 348 350 353 356 355 356 357 358 357 356 355
337 339 338 338 339 337 336 337 338 337 336 334 332 332 331 329 328 323 319 323 325 330 332 332 334 336 336 334 335 335 337 339 340 344 349 351 352 356 358 359 359 358 357
332 335 337 339 338 336 336 336 336 336 335 335 334 332 329 326 325 325 322 321 322 325 329 331 332 331 332 332 329 333 333 333 334 336 339 344 350 352 354 359 359 360 360
331 334 336 334 333 333 334 335 335 334 334 334 333 331 330 330 329 328 325 322 321 322 325 325 330 330 328 329 328 331 331 330 332 332 334 337 343 348 351 355 357 358 360
332 334 332 333 329 330 333 335 334 333 333 334 332 330 331 330 330 328 326 322 314 315 317 320 322 328 327 325 328 329 327 329 329 329 330 332 336 341 345 348 351 353 354
331 331 331 331 329 330 335 334 333 333 333 333 333 332 330 331 329 328 327 324 318 311 311 316 318 323 323 324 325 328 328 327 329 329 328 330 331 335 340 342 343 345 348
330 331 331 330 330 330 333 333 331 332 332 332 331 331 332 332 330 327 325 324 321 317 313 316 319 321 323 324 326 327 326 326 326 326 327 328 330 331 335 338 340 340 342
328 329 329 329 330 330 332 330 330 331 331 332 332 331 331 332 330 327 325 323 321 318 315 320 319 323 323 325 325 326 325 324 325 326 326 327 327 328 330 334 336 337 338
328 329 330 330 331 332 332 330 330 333 332 331 331 331 331 330 329 328 324 324 323 321 319 318 323 321 322 326 325 324 323 323 324 325 325 325 325 326 327 328 331 332 332
328 328 330 330 329 329 328 328 330 331 331 330 331 330 330 328 327 326 325 324 324 324 321 319 320 323 322 324 323 324 323 323 323 324 324 324 324 325 325 325 326 327 325
328 328 329 328 327 327 327 329 330 330 329 330 331 330 329 327 327 327 326 325 325 323 322 319 319 320 321 324 321 318 317 320 320 322 324 323 324 325 325 324 325 327 324
329 329 328 327 328 327 327 329 330 329 330 330 330 329 328 327 328 328 327 326 323 322 321 319 318 319 319 319 318 319 316 318 320 321 320 321 322 324 326 327 330 331 327
328 328 327 328 327 328 325 326 331 330 330 329 327 326 324 324 325 325 326 327 327 324 322 319 318 317 319 319 319 317 316 314 312 321 319 317 321 320 324 325 326 331 328
328 328 328 328 328 329 322 323 327 330 327 325 324 323 323 324 324 322 322 322 324 323 324 324 317 318 318 319 319 317 316 313 314 316 316 313 318 317 323 325 324 324 327
327 328 328 328 328 328 321 320 324 330 327 325 323 322 322 321 321 321 321 320 319 318 319 317 318 318 318 318 319 318 315 315 316 316 317 311 317 315 321 325 324 326 326
329 330 330 329 327 329 320 319 322 327 326 324 322 320 319 321 318 316 318 317 316 316 316 316 316 316 316 316 317 317 313 312 310 312 316 313 314 315 318 321 326 326 324
330 332 329 328 324 327 319 318 320 325 323 320 319 320 316 316 312 311 316 314 313 313 312 313 313 315 316 316 317 319 317 311 310 309 315 312 313 315 314 320 323 329 337

GFSMA_sfc_thetae_009.txt.gz
Theta_e
359 359 358 359 361 360 359 359 359 356 355 351 352 351 349 351 352 351 353 354 353 357 357 358 357 357 356 353 356 356 353 353 352 354 353 354 353 352 352 351 351 351 351
366 362 357 359 359 360 359 359 357 354 351 351 349 350 348 348 350 350 349 354 351 354 357 359 359 357 357 357 354 353 357 357 356 354 355 356 355 355 353 352 352 351 352
363 363 362 361 360 359 358 356 355 355 351 350 347 347 347 348 346 349 349 350 353 353 354 356 361 361 359 358 358 358 358 357 358 357 356 356 356 356 356 356 356 355 354
364 364 364 362 359 358 356 355 353 351 351 348 346 345 347 346 348 348 348 349 348 349 354 353 355 360 359 356 358 358 359 358 358 359 358 357 357 357 357 356 356 356 356
363 364 364 361 358 356 358 356 353 351 345 344 343 344 345 345 347 345 347 350 351 350 349 356 352 353 356 357 358 357 358 358 356 358 358 359 357 357 357 357 357 356 357
360 360 360 358 357 356 355 354 352 352 347 346 343 342 344 347 345 346 346 346 344 351 353 355 356 357 353 355 356 359 359 357 357 357 357 357 358 358 358 357 357 357 357
360 361 360 358 357 353 354 353 351 347 345 349 343 338 343 345 342 343 345 341 338 341 346 349 352 354 356 352 353 354 355 357 358 358 357 357 357 357 357 357 356 357 357
361 359 358 355 354 351 352 350 349 345 345 349 340 339 330 336 342 341 340 334 335 337 338 343 345 347 349 350 350 349 350 351 354 356 357 356 356 356 355 355 356 356 356
360 359 357 354 353 350 344 350 348 346 341 346 345 338 329 327 332 341 340 335 334 333 336 338 341 343 341 340 342 344 344 346 349 351 352 355 356 355 355 355 355 356 356
358 358 356 352 352 347 349 349 348 349 347 340 343 345 343 340 329 327 333 333 331 329 333 332 333 335 334 332 335 336 336 338 338 340 344 350 352 353 356 357 355 355 356
358 354 352 350 349 347 350 348 349 347 346 342 341 340 340 339 338 329 321 324 330 332 331 331 332 332 332 331 332 335 334 332 333 334 335 338 342 349 353 354 357 357 356
351 350 348 349 350 349 348 345 347 345 345 345 343 340 335 330 329 328 325 326 325 328 329 330 331 332 331 330 329 331 333 331 331 330 331 333 336 339 346 351 354 357 359
347 345 347 347 347 349 346 346 345 345 343 341 344 338 338 335 337 334 330 326 325 327 329 330 331 332 332 331 330 331 333 331 330 330 330 330 332 334 336 343 347 353 355
346 346 346 347 348 345 343 345 343 342 344 341 343 343 337 337 338 337 332 328 323 323 325 327 329 329 331 331 332 331 332 331 330 329 330 330 329 331 332 335 339 345 348
343 345 345 346 344 340 343 345 340 342 343 343 342 343 340 338 339 338 337 334 327 320 322 325 324 330 331 331 333 334 334 332 330 329 328 328 329 330 331 332 334 338 342
344 344 344 343 341 340 341 344 341 341 341 340 339 341 341 339 339 340 338 336 332 326 322 325 326 330 333 332 333 334 334 330 330 328 327 327 328 329 330 330 331 333 336
343 343 343 341 341 340 341 342 342 341 339 340 342 341 341 343 338 339 338 336 332 330 325 326 328 332 333 333 334 335 334 333 330 328 328 327 326 326 327 328 328 329 331
342 342 342 341 341 340 341 341 340 337 338 338 339 340 340 338 340 341 336 337 336 334 329 326 331 329 332 334 333 333 332 331 330 329 327 326 325 324 325 325 325 326 326
341 339 340 340 340 340 342 342 340 338 339 339 339 339 338 339 338 336 336 333 332 336 332 326 325 327 329 331 330 332 331 331 329 329 325 325 325 325 324 322 322 322 321
339 340 339 341 340 341 340 339 337 338 339 338 339 339 339 338 337 336 334 335 334 331 330 328 325 325 326 330 328 325 324 326 325 327 327 326 326 325 324 322 322 322 320
335 336 337 338 339 338 335 337 338 338 339 338 339 340 340 338 333 331 330 332 333 329 326 324 323 323 323 323 323 324 322 323 325 326 324 325 325 324 325 324 326 327 324
332 334 333 334 337 334 327 327 334 337 339 339 337 339 338 330 330 327 326 327 329 329 327 330 325 322 324 324 324 322 320 318 316 326 324 322 324 322 324 325 324 323 323
332 333 332 332 338 339 325 324 328 336 338 338 338 337 334 331 328 331 326 324 324 324 326 328 323 323 323 324 323 320 319 316 315 322 323 320 322 322 322 322 322 321 321
338 332 334 337 340 339 322 320 325 335 337 338 337 336 334 332 332 327 327 327 328 328 328 325 325 324 324 323 321 320 317 316 318 321 325 317 320 317 319 321 322 321 321
335 337 336 337 337 337 321 319 326 331 333 333 337 334 331 330 322 317 323 324 325 326 321 316 316 315 315 316 317 317 314 315 314 317 321 314 313 313 316 318 323 322 320
335 336 336 339 333 340 318 316 323 329 328 329 332 329 318 323 313 313 323 324 322 323 321 320 320 319 319 320 318 321 317 313 314 311 316 311 312 312 310 317 322 326 328

GFSMA_sfc_thetae_012.txt.gz
Theta_e
360 358 361 362 359 361 360 358 359 358 357 354 354 352 349 350 351 349 350 356 352 353 358 358 357 358 357 356 357 356 355 353 351 351 352 353 353 352 351 351 351 352 352
365 358 358 357 358 360 360 359 359 356 355 354 352 350 347 345 346 349 347 350 353 352 355 358 358 359 358 357 355 357 357 356 357 353 355 357 357 356 352 351 351 351 352
363 361 360 356 357 363 362 360 360 358 353 352 350 348 345 344 343 346 346 345 350 356 355 355 358 361 361 358 358 357 357 359 359 358 357 357 357 356 356 356 355 354 355
364 362 357 357 357 358 360 357 357 352 349 346 342 341 342 344 346 345 345 347 346 343 355 356 354 357 359 357 358 357 359 358 358 359 358 358 358 358 358 357 357 357 357
363 361 358 360 361 360 358 357 352 351 342 340 338 338 345 345 347 343 348 351 351 350 345 356 352 352 355 357 359 359 359 358 357 357 359 359 358 357 356 357 357 357 357
362 361 359 359 359 359 356 353 351 348 344 341 337 340 345 349 348 349 347 346 346 351 352 355 353 354 352 352 355 360 360 359 358 357 357 357 357 358 357 357 357 357 357
363 363 358 358 359 355 354 353 346 343 338 345 339 339 342 344 347 347 346 340 340 343 348 353 353 353 355 352 352 353 354 355 358 359 358 356 356 356 356 356 356 357 357
364 361 361 358 359 352 353 348 346 340 341 346 337 336 331 336 339 343 343 336 336 338 340 345 349 353 352 351 351 348 348 349 351 353 355 357 357 356 355 355 355 355 356
364 363 362 358 356 349 340 347 346 344 337 345 344 336 328 328 331 338 340 334 335 334 336 338 341 341 342 342 345 343 339 339 341 344 348 351 353 354 356 356 354 354 355
361 360 360 357 351 344 347 347 346 346 345 339 340 343 343 340 328 328 333 333 334 332 333 334 334 335 336 335 338 336 334 334 334 335 336 339 342 347 352 355 355 355 355
358 355 359 352 349 345 349 350 347 347 344 338 338 340 341 338 339 328 324 330 333 333 335 335 335 334 334 335 335 334 332 331 332 332 332 333 336 338 343 348 354 355 355
353 357 357 351 350 348 349 348 347 346 345 344 340 341 335 331 331 328 325 329 329 333 334 335 334 335 336 336 330 329 330 330 329 329 330 332 333 335 337 339 344 350 354
346 353 357 350 346 352 350 348 347 345 345 342 343 337 339 335 335 332 329 326 325 330 332 334 336 333 333 333 334 331 336 333 332 331 330 330 331 332 333 335 337 341 346
345 352 354 349 349 350 350 346 342 342 344 342 343 343 336 335 335 334 330 328 325 326 330 334 335 332 332 333 335 333 336 333 332 330 330 331 329 330 331 332 333 333 335
346 351 351 348 347 349 346 346 341 343 343 343 342 343 339 334 334 334 334 334 329 322 323 329 328 334 333 333 336 336 337 336 331 331 330 329 329 329 329 330 331 331 332
352 350 349 345 347 346 345 346 342 343 343 338 336 339 341 336 336 336 336 336 334 329 324 328 328 332 335 335 337 337 337 337 334 332 330 328 329 329 330 330 331 331 331
353 350 350 346 346 343 344 345 344 340 340 341 340 341 342 344 337 334 334 333 331 330 326 327 329 334 337 338 337 338 337 337 335 333 331 329 328 328 328 328 328 329 329
351 351 349 347 344 343 343 343 340 338 338 337 338 340 340 338 341 342 336 338 334 334 328 329 332 330 337 339 336 337 335 333 334 332 330 328 327 325 325 325 325 325 325
347 346 346 343 343 343 342 343 343 341 339 338 340 339 339 340 339 336 337 334 331 331 332 327 327 330 330 331 333 337 335 336 332 332 328 327 326 325 324 322 322 321 320
344 340 344 342 342 343 343 341 341 341 339 338 340 341 340 340 338 338 336 337 336 333 333 328 327 326 328 333 330 327 325 327 326 329 330 327 327 327 326 323 322 322 319
344 341 338 339 340 341 338 343 341 338 338 339 340 340 341 342 337 335 334 337 336 330 327 325 324 323 324 324 327 325 323 325 328 328 326 325 325 328 329 326 328 328 323
343 337 334 332 334 337 330 329 336 337 339 340 339 341 341 337 336 330 329 328 329 331 329 325 323 324 328 327 326 324 323 321 318 326 325 324 328 326 327 327 326 324 322
342 336 332 333 335 337 326 326 329 335 337 339 341 343 340 335 336 337 331 327 326 324 325 329 327 328 327 328 328 325 323 321 319 323 325 321 325 323 326 327 324 323 321
340 340 337 337 337 337 326 324 328 337 338 341 342 342 341 337 340 337 336 332 331 333 333 330 331 329 329 328 325 323 322 322 320 322 327 320 324 322 326 327 323 321 319
339 337 337 340 339 339 321 320 326 337 337 340 341 338 337 336 327 322 329 329 330 330 324 320 318 317 316 316 318 320 319 316 314 317 324 321 320 321 322 322 322 321 318
337 335 339 340 334 338 321 317 321 334 338 331 334 340 323 325 319 316 324 326 325 327 328 327 326 324 320 323 320 323 320 317 317 315 321 320 320 317 310 317 319 324 322

GFSMA_sfc_thetae_015.txt.gz
Theta_e
363 358 359 358 360 359 356 358 359 357 358 355 354 352 349 348 347 345 348 359 356 354 359 359 359 358 359 356 358 357 356 353 352 352 353 351 352 353 354 352 350 351 352
365 366 363 355 356 362 359 359 358 357 358 357 352 351 346 345 344 344 343 354 359 355 358 359 359 359 359 358 357 358 357 356 353 352 353 355 356 355 353 351 350 351 352
362 364 359 357 360 363 362 360 358 358 355 353 346 344 342 343 342 344 344 342 353 359 359 359 360 361 360 359 359 358 361 360 359 358 357 358 357 358 357 356 354 354 355
365 364 358 356 361 360 359 361 355 354 349 343 341 340 340 343 346 346 344 344 343 344 357 360 357 359 358 358 359 360 359 359 361 361 360 359 359 358 358 357 358 357 356
365 363 359 359 362 357 361 356 355 350 343 340 337 336 341 344 344 343 344 345 348 346 345 359 359 356 357 358 359 359 359 359 359 359 359 360 359 359 358 358 358 358 358
364 364 358 360 359 362 357 359 352 347 344 341 337 337 342 345 344 344 343 343 344 347 349 350 354 352 355 355 357 358 358 358 358 357 357 357 358 358 358 357 357 357 358
365 364 360 361 360 356 356 352 347 345 338 344 338 340 340 343 343 343 343 339 340 342 346 348 353 355 355 355 355 355 354 353 357 358 358 357 356 357 357 357 357 357 358
366 361 364 358 361 353 355 350 347 339 338 344 337 334 330 339 342 339 341 337 337 338 341 345 349 353 354 355 350 346 346 349 352 352 351 354 355 357 356 356 355 356 356
362 364 362 361 359 354 342 348 346 344 337 341 344 336 329 328 333 339 340 336 336 335 337 340 341 341 344 344 348 341 337 337 339 341 342 345 348 351 354 356 356 355 355
358 362 361 357 356 348 355 348 345 346 344 338 338 339 342 339 330 329 335 334 334 333 334 334 335 336 337 338 339 335 333 333 333 334 334 335 337 341 345 350 354 355 355
357 354 356 357 353 344 351 350 346 347 344 339 336 337 340 335 336 328 324 329 333 333 334 333 332 332 335 333 336 335 332 331 331 332 332 334 335 336 338 340 345 350 355
352 356 355 355 352 350 350 348 348 346 346 345 341 339 332 330 330 329 326 330 329 332 333 334 334 333 333 334 332 335 332 332 330 330 330 332 333 334 336 337 339 341 346
348 359 359 355 347 352 351 350 350 348 345 343 344 339 337 334 334 331 329 327 326 329 334 334 335 335 333 333 335 334 336 336 335 332 331 330 332 332 333 334 335 336 338
349 364 356 354 349 350 350 351 344 342 348 342 342 344 338 336 335 333 331 328 326 327 334 342 339 336 335 334 337 336 335 338 337 332 331 332 332 331 331 332 332 333 333
349 353 356 352 349 349 350 351 342 346 345 345 345 344 339 335 334 334 337 337 331 323 323 333 333 340 339 335 337 336 338 339 337 332 331 331 331 332 331 331 331 332 332
359 359 354 351 349 349 349 349 346 347 345 341 338 343 343 337 337 336 337 337 335 330 324 332 332 338 341 335 340 338 337 339 336 334 333 331 331 331 332 332 331 331 332
362 357 357 351 348 349 346 347 347 344 343 345 343 341 342 345 336 335 334 334 331 330 326 327 330 336 344 342 340 341 339 339 337 334 334 332 330 329 330 330 329 329 330
361 359 356 352 350 347 348 345 343 342 340 339 339 343 340 337 348 348 337 340 335 339 328 333 334 332 338 342 343 344 336 333 334 332 333 331 329 327 327 327 326 326 325
363 354 354 348 349 344 342 342 346 345 343 343 342 343 342 344 346 340 343 338 332 336 335 328 328 332 331 334 336 336 336 335 334 333 329 328 328 327 326 324 323 321 320
361 352 354 351 347 342 342 340 342 342 344 343 344 344 343 343 346 346 341 344 341 336 334 328 327 327 329 328 333 329 327 326 328 329 331 328 329 329 327 324 323 322 319
359 355 353 350 347 342 339 336 342 341 343 343 343 344 344 344 339 339 338 341 344 334 329 327 325 324 326 327 326 328 325 326 326 331 329 329 328 328 329 328 329 328 323
359 355 351 347 341 338 329 332 341 341 342 343 343 345 346 341 338 333 332 330 332 333 333 328 325 325 329 328 328 326 325 321 318 329 326 324 327 327 329 331 329 325 323
356 351 349 345 342 339 327 328 331 339 340 340 341 345 343 338 338 340 332 329 328 326 326 331 330 329 330 332 333 329 328 324 320 322 324 321 326 325 329 330 325 323 321
349 350 348 344 339 341 327 325 329 337 337 337 341 346 346 344 343 339 337 332 333 338 336 330 332 333 334 334 329 326 326 325 324 323 327 319 325 323 325 330 325 324 321
347 343 343 341 340 344 324 322 327 333 335 335 339 344 345 342 329 325 328 329 334 335 330 325 323 321 319 319 320 321 318 317 316 318 324 322 322 323 324 325 327 324 319
346 342 340 338 333 343 322 320 325 337 339 336 338 344 327 331 320 319 325 328 328 330 330 330 330 325 321 325 320 324 322 318 317 316 322 318 318 320 316 322 322 320 319

GFSMA_sfc_thetae_021.txt.gz
Theta_e
350 348 353 352 351 351 353 350 354 350 348 349 348 345 342 335 339 350 350 361 360 362 361 361 359 358 359 356 358 357 355 353 354 355 355 354 353 354 355 353 353 352 351
349 353 350 351 353 353 355 352 349 348 348 350 350 350 346 336 337 338 350 352 360 359 361 361 361 359 359 359 358 358 357 355 354 353 356 357 356 357 355 354 353 352 353
352 352 352 349 353 354 354 352 350 350 350 351 347 347 339 335 338 337 339 348 352 358 359 362 362 360 360 359 358 358 360 360 358 356 355 356 356 356 355 356 356 354 354
356 352 353 351 351 353 350 347 346 345 347 342 333 331 332 334 337 339 337 341 348 350 357 360 360 360 359 358 359 358 358 360 359 358 357 357 357 358 358 358 356 356 356
357 352 353 353 352 351 348 348 344 343 335 332 332 330 333 338 336 339 338 337 338 346 349 357 358 358 357 356 357 358 358 358 359 359 359 359 359 358 358 357 357 357 357
358 353 351 352 351 347 347 344 343 342 334 333 336 333 334 334 333 338 339 339 336 348 349 347 348 350 357 356 360 357 356 356 357 358 358 358 358 358 358 358 357 356 356
356 353 349 351 351 348 346 344 339 331 331 335 329 333 333 337 333 335 332 330 330 340 344 345 347 348 351 353 355 355 354 353 354 356 354 353 354 355 355 356 356 357 357
356 352 351 350 349 349 347 338 334 331 333 338 327 326 325 331 335 334 329 328 329 333 341 343 344 344 346 344 344 347 347 349 352 352 352 352 351 352 353 353 352 352 354
358 354 353 351 350 346 340 336 334 333 329 337 328 328 322 321 330 333 328 326 328 328 331 331 331 337 343 339 336 335 338 339 339 340 340 340 341 343 345 347 350 350 351
356 355 353 351 346 343 339 336 337 332 333 327 334 334 329 325 321 322 328 325 325 325 324 329 327 328 341 337 335 336 336 337 334 333 334 335 336 337 338 340 344 347 349
353 356 353 351 343 340 341 338 334 332 335 334 332 333 328 328 325 320 318 322 329 326 324 325 327 326 332 329 324 331 337 336 334 332 331 331 333 334 336 337 338 339 341
348 353 352 346 342 336 339 338 337 335 333 335 332 332 325 324 324 322 318 318 322 326 327 328 324 327 326 331 333 337 339 337 335 334 333 331 331 331 332 333 335 336 337
343 347 349 344 341 339 341 340 336 335 333 333 335 329 331 328 326 323 320 319 319 324 325 329 327 330 329 329 331 338 341 337 335 333 333 333 334 333 333 333 333 334 335
345 347 349 344 341 339 344 342 337 337 336 333 332 332 331 329 329 327 322 321 314 318 322 323 329 330 330 328 332 341 332 337 337 336 333 333 334 335 336 336 334 333 333
347 347 350 344 341 340 339 341 337 336 338 334 333 332 329 329 329 329 330 324 318 313 315 321 325 330 331 332 333 332 326 335 337 337 334 332 333 334 336 336 335 335 335
349 346 349 345 343 341 340 340 335 338 335 338 335 335 333 329 330 329 328 324 325 320 316 322 325 327 329 331 336 329 329 338 338 336 334 332 332 333 334 335 335 334 334
347 347 348 346 341 341 342 340 335 334 337 333 335 335 334 331 329 328 330 327 326 327 322 321 323 324 328 326 329 329 331 330 329 334 334 332 331 331 332 333 333 333 333
349 349 348 346 342 338 341 340 335 336 334 335 334 332 331 335 330 330 331 329 328 327 322 319 324 324 326 328 329 329 332 335 330 333 334 332 330 330 329 329 329 329 329
351 349 349 345 342 340 340 342 337 334 334 334 335 333 332 332 331 332 333 331 329 329 326 323 321 324 324 325 323 324 326 326 331 335 330 329 328 327 327 325 324 323 322
352 347 347 345 343 340 341 339 336 334 334 334 334 335 334 332 331 334 333 332 329 328 326 325 323 322 322 324 323 320 319 322 323 330 330 328 328 328 328 325 324 324 320
354 350 347 345 343 339 340 336 336 335 334 334 334 334 336 338 338 337 335 332 331 328 326 325 322 319 320 321 318 320 319 320 320 323 321 319 317 316 318 321 326 329 325
356 351 346 345 342 342 335 334 337 336 335 334 333 335 335 339 338 334 333 331 330 327 324 323 320 318 320 323 321 320 319 317 315 321 317 317 315 314 316 316 324 324 322
357 354 350 345 344 342 330 330 335 334 335 334 334 336 336 339 335 334 330 330 330 329 329 325 319 319 319 321 322 319 317 317 316 320 314 312 314 313 319 320 323 323 322
356 356 353 347 345 342 329 328 333 333 333 334 336 336 332 329 331 332 331 330 329 330 329 327 322 324 323 325 324 322 319 316 314 315 315 309 314 313 316 317 322 323 321
356 356 353 348 345 338 323 324 328 330 332 332 332 333 326 326 328 326 328 325 325 327 327 324 325 325 323 323 324 317 313 311 309 309 312 311 313 308 309 308 310 319 318
355 352 346 346 337 337 322 320 324 330 328 329 330 331 326 328 323 321 327 323 324 324 323 322 322 321 319 318 321 317 317 312 310 308 313 310 307 304 303 306 309 314 317

GFSMA_sfc_thetae_024.txt.gz
Theta_e
345 346 348 351 350 349 349 348 351 349 347 348 347 343 339 344 349 347 343 355 359 361 359 358 358 357 356 357 357 356 354 352 352 352 354 354 352 352 351 351 351 351 351
346 347 347 349 352 351 352 351 348 346 346 348 350 349 344 336 345 346 347 352 359 360 360 362 359 358 359 356 358 357 356 354 353 355 355 356 356 353 352 352 353 352 351
349 350 349 346 350 349 354 350 346 345 348 346 342 340 336 333 337 343 346 347 351 359 360 361 360 359 357 357 357 359 359 358 356 354 355 355 355 354 353 354 354 353 353
351 350 349 349 348 349 347 344 344 342 337 332 328 328 330 332 336 337 340 343 347 347 356 360 361 360 357 357 357 357 359 359 358 358 356 355 354 354 355 356 355 356 356
354 349 349 349 350 349 346 346 341 340 332 328 329 330 332 335 335 337 337 339 344 346 345 355 357 358 356 354 355 357 355 355 358 358 357 357 356 356 357 357 357 356 356
355 350 349 350 348 345 345 341 340 340 331 332 335 331 331 331 333 332 337 334 340 345 349 346 346 349 354 355 355 356 356 357 357 355 356 357 357 356 356 355 355 355 356
354 350 349 349 348 344 344 340 335 328 327 331 325 327 331 331 330 332 329 329 339 341 344 345 346 347 351 353 354 353 353 352 353 353 355 354 353 353 353 353 354 355 356
354 351 347 347 348 346 343 336 330 327 329 332 324 323 322 326 330 330 328 331 333 341 342 343 342 343 342 342 344 349 349 351 351 351 350 348 348 348 349 350 351 352 353
354 352 348 348 347 345 339 333 332 327 326 331 325 325 320 318 329 330 324 328 327 329 333 335 340 343 339 337 336 338 342 343 342 341 340 340 340 339 340 343 346 348 350
354 352 350 348 342 343 335 333 335 333 326 324 329 331 325 323 320 321 325 323 323 325 327 326 327 340 336 331 331 334 338 340 338 335 334 334 335 335 336 338 341 344 345
352 352 350 347 341 339 336 335 331 332 332 329 329 330 326 326 319 318 316 320 324 323 321 324 325 330 337 332 327 332 338 338 337 335 332 331 331 331 332 333 335 336 337
350 351 350 347 339 337 338 334 331 331 333 332 330 328 323 321 320 320 316 315 317 322 323 323 324 324 332 329 330 334 341 338 336 336 336 334 332 332 332 332 333 334 335
342 348 348 343 337 335 337 334 334 334 332 331 328 326 328 325 323 319 316 316 315 321 321 324 325 323 326 328 328 338 341 337 335 333 334 335 337 336 335 335 335 335 334
345 347 347 343 339 337 337 336 333 334 331 330 331 328 326 326 326 322 319 317 313 315 319 319 325 327 326 327 331 343 331 337 336 333 333 333 335 337 338 339 338 337 335
343 346 346 341 338 337 339 338 333 332 334 331 329 328 329 326 327 326 326 319 316 312 312 317 320 326 328 326 330 334 327 334 336 335 334 333 333 335 336 337 338 338 337
344 344 345 341 339 336 337 337 334 332 334 333 333 331 329 327 327 326 326 322 320 315 312 319 322 323 326 328 332 331 328 334 334 335 334 333 333 333 334 335 335 336 336
343 343 346 342 339 336 335 337 334 334 331 331 334 332 331 329 327 324 328 324 323 324 321 321 321 321 326 324 326 329 329 327 328 333 333 333 331 331 332 333 333 333 334
344 344 345 344 341 338 336 337 335 335 334 332 330 332 330 333 331 328 327 326 326 325 322 319 321 323 323 324 324 325 327 331 329 333 331 331 330 329 328 328 328 328 329
345 345 344 344 341 339 338 338 337 334 332 333 333 331 330 327 327 327 329 328 329 330 327 324 320 322 322 323 322 322 324 324 328 334 330 329 327 327 325 324 323 322 321
346 345 345 344 343 339 337 340 339 335 333 332 333 333 331 330 329 330 330 332 330 329 327 325 324 324 323 323 324 320 318 319 320 326 328 327 327 326 324 322 323 324 320
350 346 345 344 343 341 339 337 338 335 332 331 332 333 333 334 335 331 333 331 331 328 326 324 323 324 322 319 320 321 318 318 320 320 318 317 317 315 316 319 321 325 323
354 347 344 344 340 341 334 334 337 335 334 333 331 331 332 336 336 333 333 332 330 327 325 323 323 322 321 320 320 319 317 315 313 320 316 315 314 312 314 314 321 322 321
351 349 343 343 340 341 330 331 334 334 333 335 334 331 332 337 335 333 329 329 329 329 329 327 323 322 318 319 319 317 316 315 314 318 313 309 312 311 315 318 322 322 321
352 352 347 344 344 342 329 327 333 337 336 336 335 334 333 334 331 331 330 327 328 329 329 329 327 325 322 321 321 321 318 315 313 314 312 308 312 311 314 315 320 322 319
354 353 353 346 344 342 325 324 331 335 335 334 336 336 336 331 325 325 327 325 326 326 327 324 324 323 322 321 323 318 316 311 309 309 311 309 310 309 308 308 308 316 316
354 354 353 348 340 345 321 320 330 333 331 330 332 332 325 325 320 319 324 323 321 322 323 322 320 319 320 319 321 319 315 312 309 307 312 309 308 305 302 302 304 307 310

GFSMA_sfc_thetae_027.txt.gz
Theta_e
344 344 346 348 347 348 350 348 350 347 344 347 345 339 340 339 341 345 341 354 357 359 357 356 356 356 357 355 357 355 356 353 354 352 351 354 352 350 349 350 350 350 350
346 345 344 348 349 351 351 351 348 345 344 347 349 345 338 339 344 346 343 344 357 357 360 357 356 356 356 356 356 356 355 352 351 352 353 355 355 351 350 351 351 351 352
346 345 345 345 347 348 351 351 344 346 344 339 332 331 332 336 337 347 343 345 348 357 357 361 361 359 354 356 356 357 357 358 355 353 355 354 354 354 352 352 353 353 352
347 347 346 345 347 348 348 343 342 339 333 330 326 328 330 332 335 340 343 344 346 347 353 358 360 358 356 355 354 356 358 354 355 357 356 353 355 355 354 355 353 352 353
350 348 348 348 347 345 346 344 339 337 329 329 328 330 330 335 336 335 336 337 343 345 343 353 356 357 355 353 354 356 355 357 357 356 356 356 355 355 356 356 356 355 355
353 348 347 348 348 345 344 339 337 337 329 329 333 329 330 329 332 333 335 335 337 343 346 343 344 347 355 356 355 355 355 357 356 356 357 356 355 355 355 355 355 355 355
352 349 347 347 346 343 342 339 334 328 325 330 323 323 329 329 329 329 327 333 341 343 343 342 343 346 348 354 354 353 352 352 352 354 353 354 354 354 354 353 353 354 355
352 350 346 346 346 343 341 337 330 325 327 330 322 321 320 324 326 326 330 336 337 341 341 342 341 342 341 342 346 351 352 353 352 351 350 349 349 348 348 348 349 351 353
352 351 347 346 345 343 340 333 330 326 325 329 324 324 318 317 323 328 323 328 333 334 336 338 339 340 337 336 337 341 346 348 346 345 343 341 340 339 339 340 343 345 347
352 351 348 347 345 343 338 332 332 327 325 325 327 328 323 323 319 318 322 323 322 327 327 328 335 339 335 331 332 334 340 341 340 336 335 335 335 335 335 336 338 342 343
351 351 348 346 342 341 336 333 331 331 326 325 326 326 323 323 319 318 314 318 321 321 322 324 324 336 335 331 326 329 340 339 338 337 334 332 331 331 331 332 333 334 336
348 349 348 345 340 338 335 333 331 331 332 330 328 327 321 319 319 318 315 315 316 319 321 319 323 323 335 332 333 333 341 339 336 336 336 336 334 333 333 333 334 335 334
343 347 347 344 338 337 336 333 329 329 331 329 327 326 326 322 322 317 314 315 314 318 320 322 323 323 325 331 330 338 341 339 336 334 334 335 337 337 336 337 337 338 338
346 348 348 346 339 335 336 333 332 330 329 329 328 327 328 325 323 320 317 316 312 313 317 318 322 323 322 324 330 337 332 338 336 334 333 334 334 337 339 340 339 339 339
347 345 348 345 340 335 336 333 331 331 330 328 328 328 327 324 325 324 320 318 315 310 314 317 319 323 326 325 328 330 333 333 336 335 333 333 333 335 336 337 338 338 339
344 344 346 344 340 336 336 335 331 330 332 329 328 327 327 325 324 324 323 320 317 315 312 316 322 322 324 327 329 331 331 336 334 334 333 333 333 334 335 335 336 336 337
342 343 345 342 339 336 336 335 333 331 330 330 330 329 327 326 325 326 324 322 321 318 315 321 323 322 323 322 324 326 330 326 326 331 332 332 332 332 333 333 333 333 333
341 342 343 342 339 337 334 337 335 334 330 328 329 330 329 331 327 325 325 323 321 323 322 319 322 324 323 323 323 323 326 329 328 332 331 330 329 329 328 327 326 326 326
342 342 343 342 340 337 335 335 336 335 333 332 328 328 330 328 326 326 324 324 324 328 327 323 322 324 324 323 324 323 323 323 326 331 328 328 327 325 324 322 321 320 320
344 342 342 343 342 340 337 336 334 334 332 332 332 331 329 329 327 325 325 325 326 325 327 325 324 324 324 324 324 322 321 321 322 325 328 327 326 325 325 322 321 322 319
347 345 342 342 342 340 339 338 336 334 332 332 331 332 332 332 334 329 328 327 326 325 325 323 323 322 322 322 320 321 319 318 319 321 318 318 317 315 315 318 321 324 321
348 345 343 342 341 341 334 333 338 337 333 333 331 332 332 336 335 332 331 331 330 327 321 320 322 321 322 321 322 321 318 316 314 319 314 315 315 314 314 313 321 322 320
349 345 344 344 341 341 330 330 334 337 334 333 332 334 333 335 334 332 330 330 330 328 328 324 321 323 321 322 321 315 315 314 313 317 314 311 312 311 315 315 320 321 320
348 349 345 344 343 341 328 326 332 335 333 334 335 335 334 333 334 330 327 326 326 329 326 328 326 325 324 324 321 319 317 315 314 316 313 308 312 312 314 313 320 321 320
349 348 347 343 342 342 325 323 328 336 335 335 336 335 334 333 327 325 329 324 323 324 326 323 323 322 322 322 322 317 315 312 309 310 311 309 309 308 309 310 312 318 317
352 351 349 346 340 345 322 320 328 337 334 334 335 334 327 330 320 319 327 323 322 321 321 322 321 319 319 319 321 319 317 311 307 305 310 308 306 305 303 303 303 305 305

GFSMA_sfc_thetae_030.txt.gz
Theta_e
348 348 348 350 350 351 351 351 353 351 349 350 349 345 345 344 344 346 346 350 355 357 355 356 358 356 355 355 354 355 353 353 354 352 353 353 352 352 349 348 348 348 349
349 348 348 349 353 353 354 352 351 351 350 350 351 349 344 345 346 348 348 346 356 357 357 355 355 356 356 357 355 355 356 354 352 354 351 354 354 351 349 349 350 351 351
350 350 349 348 351 352 353 352 350 350 342 338 336 336 339 343 341 349 349 347 350 353 357 358 356 356 354 356 357 356 357 357 353 352 354 354 353 354 353 351 352 352 352
350 349 350 348 351 352 352 348 348 345 339 337 333 335 337 338 338 346 349 348 350 350 351 357 360 357 354 353 352 357 357 355 354 357 356 355 354 354 355 355 353 352 352
351 350 350 351 351 351 350 348 345 343 335 335 336 336 337 337 338 341 345 348 347 351 348 351 356 355 353 353 353 353 354 354 354 356 357 357 355 355 357 356 355 355 354
352 351 351 352 351 349 349 345 344 340 336 335 333 334 335 336 338 340 341 341 344 350 349 349 352 351 354 352 355 355 353 353 355 356 355 356 356 356 355 356 355 355 354
354 352 350 351 351 349 348 345 341 337 333 335 331 332 334 333 335 333 335 344 347 348 348 348 349 352 351 353 351 352 352 352 352 353 354 352 353 355 355 354 354 355 355
354 353 350 350 349 347 346 343 339 333 332 334 329 328 327 332 333 330 335 341 344 346 346 347 348 348 348 351 352 352 353 352 352 351 351 350 349 347 347 346 347 349 351
354 354 351 350 349 348 344 342 337 334 332 334 330 331 325 324 329 332 329 335 341 342 343 345 345 344 344 345 342 345 347 349 347 346 344 343 342 340 340 340 341 343 343
351 354 351 350 349 348 346 342 337 333 334 333 333 331 329 331 325 324 329 330 331 337 338 339 343 345 342 339 334 336 341 342 341 336 335 335 335 335 336 337 339 341 341
353 353 352 350 349 348 346 340 337 337 333 333 332 330 329 326 326 325 322 326 329 329 332 333 333 342 342 338 334 332 339 340 340 339 335 331 331 331 331 331 332 334 336
351 352 351 350 349 347 344 340 338 338 335 335 334 333 330 329 326 324 323 323 325 328 329 329 330 332 342 341 337 332 340 339 337 337 337 337 333 334 335 337 337 337 337
348 350 351 348 345 344 343 340 337 336 337 335 335 333 332 329 329 325 323 322 323 325 328 330 329 331 331 341 340 340 339 340 337 335 335 335 337 337 337 338 338 339 339
348 352 351 350 347 344 342 339 336 334 336 336 334 333 333 331 328 327 326 325 321 322 324 329 330 333 332 332 338 339 339 336 337 334 334 334 334 336 338 339 340 340 340
349 350 351 350 348 344 341 338 336 335 335 335 335 335 333 331 332 330 327 326 326 320 321 326 327 332 334 333 333 338 338 337 336 336 333 333 334 335 336 338 338 338 339
350 349 350 350 348 343 341 338 336 336 336 334 333 334 334 331 332 331 331 327 325 325 322 324 328 331 333 334 333 337 335 336 336 333 333 333 333 334 335 336 336 336 337
348 347 349 349 347 343 340 339 337 336 336 335 335 333 334 333 330 331 331 328 327 325 324 328 327 330 330 333 333 335 335 336 335 331 332 331 331 332 333 333 333 333 332
347 347 348 348 346 344 341 339 337 337 335 334 335 334 334 332 332 332 330 331 330 330 329 330 329 328 330 329 330 331 332 333 335 333 331 330 329 329 328 328 326 325 325
346 346 347 346 344 343 340 341 340 338 337 336 335 335 335 335 334 332 331 330 330 332 332 329 329 328 331 331 330 327 332 332 330 331 329 328 327 326 324 322 321 320 318
345 345 345 346 345 344 342 340 340 339 338 338 337 335 335 335 334 334 332 332 332 333 332 332 331 331 330 331 329 324 325 327 326 328 331 328 327 326 325 322 321 322 319
348 345 345 345 345 344 342 341 339 338 338 337 338 338 336 335 335 333 333 333 333 332 331 330 328 327 326 325 324 325 322 324 326 329 328 328 327 327 327 324 324 324 321
350 347 345 344 344 344 335 333 339 338 338 337 336 337 338 336 335 331 330 331 334 333 331 330 328 327 329 328 327 326 322 324 320 328 325 325 326 326 327 326 323 322 321
349 347 346 345 344 345 329 330 335 341 338 337 337 337 336 338 335 337 330 329 329 329 331 332 329 328 330 331 329 326 325 323 322 327 325 322 324 323 326 324 321 321 320
347 348 347 346 345 345 326 326 333 342 340 339 338 337 338 338 336 336 337 334 334 334 333 334 334 334 333 332 331 329 326 325 325 325 324 319 323 320 323 323 321 321 319
348 348 348 346 345 346 324 324 329 340 338 337 337 338 337 336 329 326 333 333 332 331 326 324 325 323 322 322 326 326 323 321 320 320 320 319 320 318 319 319 321 318 316
350 350 349 349 341 346 324 320 328 340 336 336 338 337 328 334 321 320 335 331 329 328 331 329 332 326 324 326 322 327 325 321 318 316 319 316 316 316 309 316 314 316 316

GFSMA_sfc_thetae_033.txt.gz
Theta_e
359 361 361 359 360 356 356 364 358 357 358 356 355 352 350 353 353 354 353 350 354 354 352 354 356 356 355 354 354 353 353 350 352 353 353 353 352 353 351 348 348 349 348
360 360 360 358 358 360 361 357 362 355 356 356 356 354 352 353 353 354 354 352 353 354 354 353 354 356 356 355 355 355 356 354 354 354 352 352 353 352 350 349 350 350 351
360 362 360 358 362 364 365 363 356 355 344 341 344 346 347 350 351 353 355 353 351 352 352 354 354 354 355 356 357 356 356 355 354 352 354 352 353 354 353 351 350 352 352
361 361 359 357 360 363 367 362 353 355 350 342 339 346 349 347 343 350 353 355 355 353 351 352 355 354 353 353 354 357 356 356 357 356 355 353 355 354 354 355 353 352 352
361 359 358 359 362 361 364 360 357 354 347 345 345 346 346 345 347 347 350 354 355 355 354 350 356 355 351 351 352 352 354 358 357 353 354 355 356 355 356 355 355 355 353
361 361 359 361 361 358 359 359 357 353 347 346 340 343 344 347 348 349 348 348 353 356 355 355 354 352 352 349 353 351 351 353 355 354 355 356 356 356 355 355 356 356 356
363 363 360 361 361 358 359 360 355 350 344 348 341 342 343 344 344 344 346 351 351 353 354 354 355 356 355 352 352 352 352 352 352 352 354 354 353 353 353 352 351 353 354
364 363 362 360 361 358 359 357 353 348 346 347 340 341 334 338 341 341 345 350 351 351 350 351 352 354 353 353 353 353 353 353 352 353 352 350 350 348 346 344 345 344 346
364 364 364 361 362 360 355 357 353 349 341 345 342 339 332 331 338 342 342 349 351 348 348 347 347 351 350 344 342 345 348 349 347 344 343 341 341 340 340 340 340 341 341
363 364 364 362 363 359 359 357 353 350 344 340 341 342 343 343 332 329 338 344 348 345 347 346 345 347 347 342 335 338 340 341 340 336 336 336 335 336 336 336 337 339 340
363 362 364 363 362 360 361 359 354 350 344 342 340 339 341 339 342 335 329 333 340 341 345 344 344 346 347 345 338 334 336 340 339 334 333 333 332 332 333 333 334 336 337
357 361 362 363 363 361 360 359 357 352 347 345 344 342 338 335 333 335 333 334 333 336 338 339 341 340 345 344 342 338 338 340 338 339 338 333 333 335 336 337 338 338 339
355 361 363 362 361 362 361 360 356 352 350 345 347 342 342 339 340 337 335 335 331 335 337 339 339 339 339 344 345 342 341 339 338 336 336 336 336 337 338 338 339 339 340
356 363 363 363 363 362 360 358 354 351 350 348 347 346 342 342 339 338 336 333 329 331 334 337 341 339 340 341 344 344 343 338 338 336 335 336 335 337 338 339 340 340 340
356 360 362 362 362 361 359 357 352 351 348 348 347 347 343 342 341 339 337 336 331 325 326 334 333 342 343 343 342 343 344 341 337 336 335 334 334 336 337 338 338 339 340
360 359 360 361 361 361 359 356 352 352 348 346 344 346 346 342 342 341 339 337 335 332 326 333 334 341 343 342 342 343 343 339 337 336 334 333 334 335 335 336 337 337 337
361 361 360 360 360 360 358 356 354 351 347 347 346 345 345 347 340 340 340 339 336 334 330 334 336 341 340 341 341 345 342 343 340 334 333 332 331 332 333 334 334 333 332
361 363 361 360 360 359 358 356 353 350 348 346 346 345 344 342 344 344 340 342 339 339 334 336 339 337 339 343 342 342 339 337 339 336 333 332 331 330 330 329 327 326 325
361 358 360 360 358 359 358 356 355 352 350 349 347 346 345 344 342 340 340 339 338 339 339 335 333 337 338 339 339 340 340 340 337 335 329 329 329 328 326 324 323 321 319
361 361 361 360 359 358 358 356 355 353 351 350 349 347 346 345 344 344 341 342 341 339 339 336 334 335 337 339 337 333 332 334 334 331 332 329 331 330 328 324 323 322 319
360 361 360 360 359 357 354 356 355 353 352 350 349 348 347 346 340 342 342 344 344 339 337 335 334 334 334 333 332 331 332 333 334 334 332 334 334 332 331 329 329 328 323
360 360 359 359 358 355 340 337 350 354 353 352 350 349 350 341 339 333 333 336 342 341 340 336 334 333 336 335 333 333 331 326 326 338 333 330 334 332 332 332 328 324 321
359 359 358 358 357 358 332 332 337 353 352 353 353 351 347 346 341 343 331 330 331 332 336 343 338 338 339 339 339 335 333 332 330 338 333 327 331 329 330 328 324 322 320
359 358 358 358 358 357 329 328 334 352 355 354 353 352 351 348 346 346 345 342 341 341 340 340 343 344 343 342 340 337 338 336 334 333 335 324 326 325 325 325 323 322 320
357 358 359 359 357 358 326 325 332 349 352 352 351 351 351 349 338 328 344 343 342 343 331 327 329 327 325 326 332 336 334 329 324 325 330 324 322 321 321 321 321 320 317
357 357 358 360 349 358 325 321 331 349 351 349 352 352 331 345 325 321 343 344 341 341 341 338 337 328 328 330 323 337 335 325 322 320 328 319 318 318 313 315 317 317 316

GFSMA_sfc_thetae_036.txt.gz
Theta_e
364 362 362 361 361 360 357 356 359 355 356 352 349 347 345 345 348 348 350 354 355 353 352 354 354 354 355 355 354 354 351 349 351 353 353 352 352 352 350 348 348 350 348
366 364 362 360 361 362 359 357 357 354 356 355 352 349 346 345 351 350 347 351 354 354 352 353 355 357 357 355 355 354 354 353 353 354 352 353 353 352 351 349 349 350 351
364 366 359 359 359 362 362 360 362 358 354 351 349 348 343 346 347 350 347 349 351 354 353 352 354 355 357 356 357 356 356 356 355 354 354 352 352 353 353 352 350 351 352
365 366 361 362 362 361 360 360 362 352 352 347 344 346 346 344 348 347 346 350 350 350 351 354 353 353 353 355 355 357 358 356 357 356 354 353 352 355 354 353 353 352 352
364 364 360 363 369 364 361 361 356 354 347 348 344 346 346 347 347 343 347 350 351 351 350 352 354 353 352 353 353 353 356 359 358 356 355 355 355 355 354 355 355 354 354
363 365 361 362 361 363 358 358 359 354 348 344 339 340 344 345 348 345 344 345 349 352 350 354 352 352 351 349 352 354 352 353 355 354 354 356 356 355 355 354 355 354 354
367 369 362 365 365 358 361 363 358 355 347 347 340 339 342 344 347 343 349 345 345 348 348 350 354 351 352 352 352 351 352 352 351 352 353 353 354 353 352 352 350 347 350
368 368 369 363 365 362 364 364 361 351 349 347 342 342 332 335 339 342 349 346 345 343 343 346 347 352 353 352 354 354 353 352 353 352 352 351 349 348 347 347 345 345 344
368 370 368 367 366 365 358 362 359 355 345 344 346 340 332 330 333 340 345 344 345 343 342 344 345 349 349 340 344 347 349 349 345 341 339 340 340 340 341 340 340 339 339
366 368 369 368 370 362 364 362 360 358 354 340 342 342 347 346 332 330 339 344 344 343 345 343 343 345 345 338 338 341 341 343 341 338 337 337 337 336 336 336 336 336 336
367 365 368 369 368 365 365 365 362 361 353 344 341 341 343 339 343 335 331 336 342 342 343 343 344 343 345 343 340 335 336 338 337 335 335 335 335 335 335 334 335 335 336
360 365 366 368 369 367 366 365 366 362 358 351 343 344 338 336 335 336 333 337 336 340 341 342 342 342 343 343 344 340 340 340 337 335 333 333 334 335 336 337 337 338 339
354 364 366 367 365 369 367 368 366 362 360 354 352 343 342 340 341 337 336 336 333 337 338 341 342 342 342 344 345 343 341 340 339 338 338 337 335 336 337 338 339 339 340
357 362 363 365 367 367 368 368 363 359 360 357 354 350 343 342 342 339 335 334 330 332 335 339 341 340 342 342 346 347 343 339 339 338 337 338 337 338 339 339 340 341 341
359 362 363 366 367 367 368 368 361 360 358 358 354 352 346 343 343 341 340 337 333 328 329 338 334 344 342 343 347 346 347 343 340 338 337 336 337 336 338 339 339 340 340
368 364 363 365 366 366 367 367 362 362 359 355 350 350 350 344 344 343 341 339 337 333 328 336 336 342 344 344 344 346 346 343 340 337 336 335 335 336 335 336 337 337 338
370 367 367 364 363 364 366 366 365 361 358 357 353 350 351 353 342 342 342 341 339 337 332 334 339 345 347 345 343 345 345 344 342 337 336 335 333 333 334 334 335 335 334
370 369 368 366 364 363 365 365 362 359 358 356 354 352 350 347 350 351 343 351 345 346 336 340 343 339 345 347 347 347 342 340 340 338 335 334 333 332 332 332 332 331 329
371 365 367 370 365 364 365 365 363 362 359 358 356 353 351 349 349 344 345 343 342 341 342 337 336 340 339 342 344 346 345 344 341 336 331 331 331 330 330 328 326 324 322
370 370 370 370 368 365 364 363 363 362 361 359 358 356 353 349 349 349 344 346 346 341 343 338 336 336 338 343 341 336 336 339 337 337 336 330 333 333 331 327 325 324 320
370 371 370 370 371 365 359 366 366 362 363 360 359 358 355 351 342 345 344 349 351 343 338 338 336 336 336 335 337 337 334 335 339 339 337 337 336 336 334 327 330 330 325
370 370 369 369 368 362 343 340 357 363 364 363 361 359 359 347 344 336 335 337 347 349 347 337 336 337 344 340 338 336 333 333 328 348 338 334 335 333 335 335 327 324 323
369 369 369 369 369 369 334 334 340 362 362 364 364 360 356 353 348 351 336 333 334 334 338 348 344 344 344 344 344 341 339 335 333 340 338 331 333 331 332 330 325 323 322
368 368 368 369 368 368 333 330 336 361 364 366 365 363 362 361 357 352 351 345 343 347 346 343 347 346 351 348 346 343 342 341 339 337 340 328 330 326 329 328 324 322 321
366 366 365 369 368 368 330 326 335 358 358 364 365 364 364 363 344 331 351 349 347 347 335 329 331 331 330 331 337 339 334 334 329 330 336 329 326 323 325 324 324 322 316
363 362 363 368 357 368 330 323 334 355 356 355 364 367 336 354 330 324 349 353 347 347 347 344 342 334 332 334 326 340 336 330 328 325 332 325 321 321 318 322 320 320 319

GFSMA_sfc_thetae_039.txt.gz
Theta_e
361 358 360 357 364 358 356 359 357 354 349 352 350 350 342 344 344 347 348 356 355 354 355 355 356 354 355 355 355 354 351 351 353 352 352 353 352 351 349 348 346 349 348
363 364 360 360 361 357 351 356 359 355 353 351 347 348 344 344 346 349 348 352 357 354 354 355 356 357 356 356 356 354 355 350 350 354 352 354 352 352 351 349 347 349 350
363 365 358 363 359 360 362 363 357 357 350 349 350 350 342 346 347 345 347 348 352 358 356 354 355 357 357 357 356 356 356 357 355 354 354 354 351 354 353 352 350 349 351
364 364 359 358 364 361 357 358 354 351 352 346 344 345 343 343 344 345 346 352 349 348 355 357 354 355 356 357 357 358 357 356 357 358 356 355 354 353 354 353 353 353 352
365 364 360 359 366 360 355 354 352 351 343 343 342 342 343 343 344 341 344 347 346 349 347 358 357 355 353 354 354 354 357 357 357 357 355 355 355 354 356 355 354 354 354
364 365 362 363 362 357 359 359 358 349 345 341 337 341 342 344 346 343 341 345 344 349 350 353 352 351 357 354 353 355 353 353 355 355 355 355 356 355 354 353 354 355 354
365 368 363 361 362 361 360 356 356 351 344 344 340 339 341 344 345 341 344 340 343 345 346 347 350 352 351 354 350 352 352 351 351 352 351 352 352 352 351 351 350 348 349
367 367 372 357 365 362 362 358 357 350 345 343 345 342 336 336 341 339 345 342 344 341 341 344 346 349 353 354 356 354 354 354 353 353 352 351 350 349 348 347 345 345 342
366 371 367 365 365 362 363 363 358 354 345 340 350 349 338 334 332 338 341 343 343 340 341 343 345 347 348 341 345 350 352 351 346 341 340 341 342 341 340 340 339 338 337
366 367 367 364 367 363 367 363 357 358 355 343 339 341 349 350 336 331 338 341 343 341 344 342 343 344 345 339 341 346 346 346 345 342 340 338 338 337 336 335 335 335 335
367 364 370 371 370 363 371 364 363 362 355 348 341 339 344 337 343 343 334 336 340 341 344 343 343 343 345 341 340 337 343 343 343 342 340 338 336 335 335 335 336 337 339
362 370 368 373 373 369 366 363 367 364 361 355 346 343 338 336 335 335 334 340 338 344 341 343 343 342 344 344 344 342 343 342 341 341 337 337 337 336 337 337 337 338 340
352 365 371 372 364 372 370 372 373 366 362 357 357 344 343 340 340 338 337 337 336 338 340 341 342 343 342 344 344 343 344 341 340 339 339 338 337 337 337 338 339 340 341
354 370 371 371 371 371 368 374 364 362 365 359 358 357 346 343 342 339 336 334 332 333 337 341 342 341 343 343 344 347 340 339 339 339 338 338 338 339 340 341 341 340 340
357 367 369 370 369 370 372 374 361 366 365 362 361 359 350 345 344 342 341 339 335 329 332 342 336 350 343 343 347 346 347 341 339 338 338 337 338 338 338 339 340 340 341
371 372 368 367 368 371 372 373 365 369 366 359 354 362 357 343 347 344 342 340 338 334 329 338 339 344 346 341 346 346 345 346 342 339 338 336 336 337 337 337 337 338 339
375 371 372 369 370 370 371 372 369 368 365 364 362 362 359 361 343 343 343 342 340 338 332 335 339 350 352 348 346 346 346 349 342 338 338 336 336 335 335 336 336 337 337
374 374 375 372 371 370 371 370 367 361 365 362 360 360 356 349 358 357 345 356 346 350 338 350 346 343 350 354 352 354 346 340 342 337 340 337 335 334 334 333 334 333 333
374 372 372 373 371 370 370 371 370 367 367 365 363 361 357 356 358 347 347 346 343 345 346 339 338 341 343 345 347 352 351 350 343 337 334 335 332 331 331 330 329 327 324
374 373 373 373 373 371 370 369 369 369 367 365 365 364 361 358 356 357 353 352 352 346 345 341 338 337 339 348 342 338 343 343 341 340 338 334 338 334 331 328 327 326 321
374 374 372 372 374 372 366 369 368 368 368 366 366 366 364 358 348 351 349 351 350 347 339 338 338 337 336 341 338 339 338 344 345 342 340 339 340 337 335 330 333 330 326
374 374 373 372 372 369 347 341 359 367 369 368 365 367 366 351 347 337 338 338 347 353 347 339 339 339 352 347 341 338 340 339 331 346 339 338 347 335 336 337 332 333 327
373 373 372 372 371 372 338 335 341 366 367 367 367 367 364 358 352 356 336 335 334 334 340 352 347 347 354 354 353 350 347 340 337 338 344 335 342 333 334 329 328 326 322
372 372 372 373 372 371 339 330 336 361 364 366 367 367 368 364 360 358 356 348 348 348 347 345 351 351 354 356 352 351 350 348 343 340 345 330 335 332 331 330 329 325 321
371 371 372 372 372 372 335 328 333 358 360 362 366 367 368 367 348 335 357 354 350 349 335 331 332 332 332 335 338 345 337 336 331 333 340 332 330 327 326 326 329 324 321
370 369 369 372 360 371 340 326 332 358 357 358 363 366 340 360 337 327 354 355 350 346 348 344 340 334 335 337 330 345 341 332 336 329 340 330 328 324 319 325 325 326 323

GFSMA_sfc_thetae_042.txt.gz
Theta_e
358 356 358 354 357 356 356 360 357 356 344 353 351 351 343 345 347 344 350 358 359 359 359 357 355 356 355 354 353 351 351 353 352 352 351 351 351 350 349 348 346 348 348
361 365 359 358 360 353 355 360 362 359 356 352 346 352 343 347 348 347 348 354 359 358 359 358 357 355 356 355 355 353 354 351 351 352 352 355 352 352 351 350 348 349 351
371 371 362 359 354 363 363 359 361 352 348 352 348 347 349 347 342 347 347 348 354 359 359 359 360 360 357 356 355 355 356 355 354 355 356 354 355 354 353 352 353 352 352
372 363 351 357 357 367 361 361 350 357 352 351 348 349 343 347 347 347 345 348 349 348 357 360 359 360 357 357 357 356 357 355 355 356 356 355 355 354 356 356 354 354 355
370 367 356 352 355 365 357 358 354 355 351 345 338 347 347 339 339 342 345 347 350 346 348 358 358 359 356 356 355 355 355 356 357 357 357 356 356 356 355 356 355 356 356
368 366 355 354 362 353 363 361 358 352 352 344 339 342 344 340 340 342 344 345 350 350 348 350 354 352 358 358 358 356 353 354 355 356 356 357 357 356 356 354 354 353 351
369 368 365 359 366 359 356 364 354 356 351 347 343 343 345 346 347 344 341 339 347 344 347 353 348 350 350 357 356 357 355 352 351 351 354 354 355 354 352 351 352 349 347
371 371 365 367 363 362 364 360 361 355 350 351 342 335 333 340 341 339 345 346 343 347 345 345 349 352 348 353 354 357 357 355 353 353 353 352 351 350 349 348 347 344 341
369 369 369 366 364 368 363 366 359 359 343 346 351 337 334 332 335 342 343 340 342 341 340 345 346 350 348 345 351 353 355 352 349 345 343 343 346 344 343 343 342 342 341
365 368 367 365 369 366 360 362 364 362 357 345 344 347 351 350 338 331 341 342 345 342 345 343 343 344 343 341 350 350 347 345 345 343 340 340 342 341 339 339 340 341 343
368 368 368 368 371 365 365 363 364 361 363 355 346 343 346 346 346 336 333 337 342 345 347 345 342 343 346 337 334 341 346 345 345 345 345 342 340 338 338 337 338 344 346
363 369 369 368 369 368 368 366 370 366 363 361 356 349 343 339 339 337 335 337 337 343 345 344 343 344 345 341 340 342 344 343 342 342 342 342 343 342 338 337 337 339 342
359 363 367 367 366 367 368 369 369 368 364 362 359 354 350 348 348 344 343 337 337 341 342 345 346 346 345 347 338 340 343 341 340 339 339 340 341 342 342 340 340 340 341
357 365 363 366 365 367 366 370 368 365 365 361 362 357 353 351 348 345 342 339 334 336 343 340 345 346 346 347 338 344 337 339 338 337 337 337 338 339 340 341 342 343 341
362 368 365 365 365 367 365 368 363 364 366 362 359 361 355 351 350 347 346 344 340 332 334 344 338 345 347 345 344 339 340 338 338 337 336 336 337 337 338 339 340 340 340
363 374 366 365 366 366 367 367 365 365 363 362 358 357 356 348 348 350 348 346 344 339 333 341 343 343 343 346 348 347 345 342 338 338 336 335 336 337 338 338 338 338 338
372 365 369 366 365 365 365 367 363 362 363 360 359 358 355 352 349 350 348 348 345 343 336 339 347 350 347 343 343 345 346 346 341 336 337 337 336 336 336 336 336 336 336
366 370 368 366 365 364 366 363 362 358 361 359 357 357 356 352 352 353 354 347 345 347 342 341 345 346 347 348 348 348 345 343 346 340 338 336 335 334 333 334 333 333 333
367 364 368 367 364 364 364 365 363 361 356 361 360 356 354 353 350 346 348 348 347 349 350 341 341 348 348 348 346 346 349 346 346 339 334 334 332 332 331 330 329 328 327
364 366 365 365 366 365 364 364 364 364 362 359 362 360 357 353 349 350 347 345 347 346 343 344 341 340 345 346 344 340 341 344 342 338 337 334 333 332 330 327 327 326 322
367 366 366 367 366 366 365 364 363 363 362 360 360 362 360 356 348 347 350 349 344 344 344 338 338 340 339 342 337 340 338 339 341 342 339 339 338 333 332 329 332 331 328
367 368 366 364 365 365 349 343 357 362 363 362 360 360 361 351 348 340 340 342 346 342 339 337 337 335 338 341 343 339 337 336 330 342 338 337 341 338 337 335 333 334 331
367 367 367 367 364 366 341 338 342 362 361 362 362 360 360 360 351 352 338 337 336 336 339 342 338 341 345 346 346 343 341 338 334 340 337 332 337 335 335 328 328 328 330
366 366 366 367 366 365 340 333 338 359 360 361 362 362 360 359 358 354 350 344 344 342 339 343 345 343 348 351 347 347 344 341 340 339 340 328 335 332 332 326 326 328 323
366 367 367 367 366 366 335 331 333 355 357 359 361 362 362 360 349 335 352 346 343 343 334 332 334 337 336 335 344 343 339 334 332 332 340 332 333 331 326 327 324 324 320
366 367 366 367 357 366 340 328 332 358 355 355 357 359 339 354 336 326 350 350 345 343 343 341 338 332 332 335 332 344 340 333 331 330 336 332 330 328 318 325 326 319 318

GFSMA_sfc_thetae_045.txt.gz
Theta_e
344 352 353 348 347 349 347 352 350 347 342 340 343 340 346 343 344 347 349 360 361 360 358 356 356 355 354 352 351 354 355 355 354 353 353 354 353 352 350 348 346 348 348
349 351 349 351 352 348 342 351 349 350 347 345 341 339 341 342 342 345 349 352 360 360 360 358 356 356 356 355 355 353 351 352 354 352 354 356 354 354 352 351 347 348 351
350 351 352 350 349 350 347 352 350 345 340 344 338 335 340 342 343 344 346 349 354 360 360 361 359 359 357 356 356 355 355 354 351 352 357 354 356 355 353 353 352 351 352
355 348 347 350 351 353 352 348 349 346 340 344 338 336 337 338 342 344 345 347 348 349 358 361 359 360 357 358 357 356 357 356 357 357 357 357 354 353 355 355 354 354 353
357 350 348 345 339 352 352 350 344 346 342 344 338 338 333 335 339 344 341 345 344 347 347 359 359 359 358 357 356 356 356 358 358 358 357 357 357 355 355 355 354 354 353
358 355 350 346 347 349 353 351 342 337 336 336 337 337 334 335 336 338 341 346 343 343 346 349 350 351 357 357 358 358 357 356 358 358 357 357 356 356 356 354 353 353 350
357 354 349 349 351 349 346 350 342 340 338 336 335 334 332 335 335 336 338 345 343 343 346 346 349 345 350 357 356 359 356 355 354 355 355 354 355 353 352 352 352 349 347
358 357 353 352 352 350 349 349 344 341 337 337 333 330 323 328 331 333 337 341 342 342 342 345 344 344 344 345 348 357 357 356 353 352 352 353 352 350 349 348 347 345 342
356 358 355 354 349 353 349 348 344 343 332 335 338 328 325 323 328 331 329 335 336 333 336 343 345 343 344 345 351 353 355 353 352 350 347 344 345 344 343 343 343 341 341
358 358 357 355 353 353 350 349 349 343 337 329 330 340 337 335 324 321 331 330 333 331 333 337 341 343 340 344 349 351 351 346 346 343 340 340 340 340 338 338 340 340 342
354 361 357 356 353 354 350 350 351 346 341 339 329 330 332 334 333 326 322 326 332 333 335 335 335 337 336 338 340 344 346 344 345 346 345 342 340 339 338 338 339 342 344
355 358 359 357 357 355 353 352 351 347 347 345 340 333 329 325 329 328 328 327 329 334 335 334 335 335 335 329 337 344 346 344 343 343 343 344 345 342 340 339 338 338 339
353 355 359 357 356 356 356 355 356 351 348 347 345 339 336 329 335 328 332 331 331 334 333 334 335 336 338 331 329 341 346 343 341 339 339 340 342 342 343 342 340 340 340
352 354 357 359 356 357 356 357 355 356 353 348 349 344 338 341 335 331 328 327 324 325 330 328 335 335 336 337 334 343 337 339 338 336 336 337 338 339 340 341 342 342 341
351 356 357 359 357 357 356 355 357 354 355 351 348 349 344 340 340 335 330 331 327 320 324 332 329 336 335 340 337 334 330 337 337 335 335 335 335 337 337 337 338 339 340
348 355 356 356 357 358 357 355 356 356 353 354 351 349 347 343 338 338 334 331 330 327 321 331 332 335 337 338 339 331 330 336 337 335 334 333 334 335 336 336 337 338 338
355 353 357 356 357 357 358 355 355 354 354 352 350 349 348 345 337 335 336 335 330 330 324 326 333 334 335 336 337 336 340 337 333 334 334 334 333 334 335 336 336 336 336
354 357 359 358 358 357 357 357 355 356 351 352 351 347 348 349 340 338 341 333 333 334 328 324 333 336 333 334 334 334 337 341 338 338 334 333 332 333 332 332 332 332 331
357 354 358 358 358 358 357 357 358 355 352 354 353 351 348 348 342 340 339 338 337 335 336 330 332 336 337 337 337 338 336 335 339 339 333 333 332 331 330 328 328 327 327
355 359 355 358 358 358 358 358 357 357 355 351 355 353 351 349 346 342 337 337 337 335 333 333 329 330 335 338 335 333 333 338 335 338 336 334 332 332 330 327 326 325 322
358 356 358 357 360 357 358 357 358 357 356 354 351 356 355 351 346 344 343 339 337 335 334 332 331 330 329 333 335 334 333 334 335 335 328 329 328 329 329 329 330 330 326
357 359 356 357 357 360 346 343 354 357 357 356 354 352 356 350 346 339 340 340 341 335 333 336 332 332 333 332 334 335 334 329 327 335 331 329 332 330 330 329 330 329 325
361 358 359 357 357 359 339 337 342 357 356 357 357 356 353 356 348 350 338 337 337 337 335 335 335 333 333 335 336 333 333 331 328 331 330 327 331 328 331 331 328 326 325
360 361 359 360 359 359 338 333 338 356 357 357 357 357 356 354 354 352 349 344 343 342 340 338 335 336 337 338 340 338 335 333 333 335 332 325 329 328 328 323 328 326 324
359 359 361 361 360 361 333 331 334 353 356 356 357 357 358 356 346 334 351 347 344 343 336 331 333 332 332 335 340 340 334 330 327 330 335 329 329 328 326 322 321 325 321
359 360 360 361 353 361 335 327 332 355 354 354 356 356 338 351 335 328 349 350 345 344 343 338 335 331 333 336 335 340 336 330 327 326 332 331 328 327 320 320 318 319 317

GFSMA_sfc_thetae_048.txt.gz
Theta_e
338 344 346 347 345 347 346 347 348 347 344 339 340 344 347 344 345 350 351 361 361 360 357 356 352 351 352 353 354 354 354 354 351 351 351 352 351 350 348 347 346 347 349
347 348 348 348 347 347 347 343 347 347 343 341 337 343 342 341 342 347 348 354 361 361 359 356 356 355 354 352 351 352 352 353 353 352 352 353 352 352 352 351 347 347 348
347 348 347 348 348 347 346 346 346 342 337 342 333 339 340 339 342 344 347 348 354 361 360 357 357 357 356 355 355 353 353 350 352 352 354 352 353 353 352 352 351 352 351
351 348 348 347 349 349 349 346 345 341 337 342 334 336 337 340 340 343 346 348 349 351 359 361 360 359 356 356 356 356 354 355 355 354 355 354 352 352 351 353 353 352 352
350 344 346 347 344 345 350 347 343 342 339 342 337 335 334 340 339 343 342 343 345 346 348 358 358 359 357 357 356 355 356 357 356 355 356 355 355 354 353 353 352 351 352
352 348 347 342 341 348 347 346 341 340 339 336 341 335 331 336 338 338 341 343 342 343 345 349 350 351 357 358 358 357 355 355 357 355 355 355 354 353 353 353 351 349 348
355 350 348 347 346 347 346 343 336 336 331 334 332 329 332 335 335 339 339 340 340 341 343 345 346 345 349 356 356 357 354 353 353 353 354 353 353 353 352 350 348 347 346
355 352 348 347 347 348 344 345 340 339 332 333 331 326 320 326 331 331 336 341 339 340 342 343 343 342 344 344 346 356 357 353 352 352 352 352 351 350 348 348 346 343 341
355 354 352 351 349 349 346 345 342 337 329 334 332 324 323 319 323 328 331 336 337 337 338 342 342 343 342 342 349 353 354 353 352 351 349 346 344 343 341 341 342 341 340
354 355 353 352 348 349 348 347 343 341 328 327 329 338 329 330 319 318 328 329 332 333 334 339 341 341 342 343 348 351 353 349 348 343 340 339 340 339 337 337 339 340 341
352 354 354 352 349 350 349 347 348 343 336 328 325 330 330 331 331 322 319 324 330 329 331 335 340 339 339 340 341 346 350 344 345 346 345 342 340 339 339 338 339 339 340
349 354 354 352 350 349 349 346 349 344 342 336 334 329 327 325 326 327 324 324 325 328 331 333 334 337 335 337 343 347 347 344 343 344 344 345 345 342 341 341 341 341 340
346 349 354 352 352 351 350 349 348 345 343 344 340 335 330 326 329 325 328 327 327 328 330 331 332 333 334 331 337 345 346 343 341 340 340 342 343 345 346 344 341 340 340
349 351 355 355 353 354 353 352 350 348 345 344 344 338 336 335 333 330 326 325 321 323 326 327 333 332 334 329 332 345 337 340 339 337 337 338 339 341 341 342 342 342 341
351 351 354 356 353 354 353 352 351 351 350 346 343 345 339 336 337 334 327 327 323 319 321 328 328 333 335 333 332 335 331 338 338 336 334 334 336 337 338 338 338 338 339
348 351 351 355 355 354 353 351 351 351 351 349 347 344 343 342 337 336 332 326 326 322 318 326 330 332 334 337 337 335 329 336 337 335 333 332 333 334 335 336 336 336 337
343 346 352 353 355 354 353 351 350 352 350 350 350 346 344 343 340 335 333 331 326 325 321 322 329 330 331 332 333 333 329 328 329 334 333 332 331 332 333 334 334 335 336
348 347 351 352 354 354 354 352 351 353 352 350 351 348 346 347 341 337 333 332 330 327 324 320 324 333 331 332 332 333 330 333 332 334 333 331 330 329 329 330 331 331 330
347 349 354 353 354 354 354 355 353 351 352 352 352 349 349 348 345 342 335 335 333 331 329 324 324 331 331 332 329 331 331 333 336 338 332 331 330 329 328 327 326 325 324
346 350 352 356 355 356 355 355 355 354 353 352 352 352 351 348 348 344 339 336 334 334 330 330 325 331 331 334 331 330 329 332 332 338 337 334 333 332 330 327 326 325 321
353 349 350 352 356 356 356 355 355 354 354 352 351 353 352 350 346 344 345 341 334 333 331 329 327 326 328 331 331 330 330 332 335 333 331 329 329 330 331 330 331 331 324
350 352 352 352 352 357 344 341 352 354 354 352 351 350 352 348 345 339 338 339 340 336 333 333 333 331 331 331 333 334 332 327 326 334 331 331 328 327 329 328 330 328 324
354 350 352 353 352 354 337 336 341 355 354 354 353 352 351 352 347 350 338 336 336 334 336 334 332 334 332 333 332 332 333 331 331 331 336 332 329 328 332 333 328 326 324
356 356 353 353 354 354 334 332 337 353 354 354 355 355 353 353 351 351 351 345 342 344 339 338 336 334 336 337 336 335 334 334 330 331 332 328 327 329 330 329 328 326 323
357 357 358 356 354 356 331 329 333 349 354 355 355 355 356 355 344 333 350 349 347 346 339 331 333 331 328 329 333 335 330 327 326 327 331 327 327 327 327 324 324 326 322
357 358 358 360 351 357 333 326 332 352 352 353 356 356 338 349 333 328 345 350 348 349 348 346 336 334 329 331 329 337 336 331 330 326 332 328 327 327 323 324 324 321 322

GFSMA_sfc_thetae_051.txt.gz
Theta_e
342 342 343 345 343 345 344 344 346 346 341 337 344 346 347 344 345 349 350 359 359 358 353 351 353 354 355 353 353 353 352 352 349 348 349 350 350 350 347 347 346 347 349
340 342 345 346 345 345 345 342 344 340 342 340 338 343 343 342 345 348 350 353 360 360 357 354 351 350 350 351 353 353 353 352 352 352 352 351 350 351 351 351 349 348 349
346 347 345 345 346 346 346 342 345 341 337 337 333 339 339 340 342 346 348 349 355 359 357 356 356 355 354 353 352 352 351 351 352 351 352 351 351 352 352 352 351 352 352
346 347 346 346 346 346 346 345 343 337 336 333 331 336 337 338 340 343 345 346 349 352 357 356 356 356 356 356 354 354 353 353 351 350 350 353 353 352 351 351 352 351 352
350 347 346 345 347 342 347 346 342 340 336 338 334 333 334 336 338 343 342 345 345 347 348 355 359 359 355 355 354 355 355 354 354 354 354 353 353 352 351 352 351 350 350
348 344 346 344 337 345 345 344 341 339 337 340 337 331 330 335 336 337 339 341 342 343 345 348 349 350 356 357 357 355 355 355 355 355 354 354 353 353 352 352 351 348 348
349 346 346 343 343 345 344 343 333 333 328 332 329 327 330 332 334 336 336 338 340 340 341 344 345 345 347 356 356 356 354 353 353 352 353 354 353 352 351 350 349 347 344
352 349 346 345 346 346 343 343 337 336 330 332 327 322 322 325 328 330 334 338 337 339 341 342 342 342 342 344 346 356 356 353 351 351 351 351 350 349 348 347 345 342 340
353 351 348 346 347 346 343 342 340 335 327 332 331 324 320 317 321 326 329 336 336 336 337 339 340 341 341 340 346 350 354 353 352 351 350 348 347 345 342 339 342 340 340
352 353 350 349 347 347 345 344 342 337 329 328 330 335 327 326 319 319 326 329 333 334 335 336 339 341 340 340 347 350 353 351 352 348 342 340 340 339 338 337 338 340 340
351 354 352 349 347 347 347 345 342 338 329 326 326 330 329 329 325 320 319 323 329 329 329 334 338 340 339 341 340 344 352 349 346 346 345 342 340 339 338 338 339 339 339
349 350 352 349 348 348 347 345 346 342 336 330 326 328 327 325 325 324 320 320 324 326 328 331 334 338 338 338 342 346 352 346 343 344 344 345 345 341 341 341 341 341 341
343 348 350 349 348 347 348 346 345 344 342 336 332 333 327 325 326 326 324 323 322 325 328 329 332 334 337 335 337 348 350 343 341 340 341 342 344 346 346 345 344 342 342
344 348 351 351 350 350 349 347 346 346 342 343 340 335 334 328 329 327 326 325 321 322 324 327 329 332 334 332 335 345 338 341 339 337 337 338 340 342 343 345 345 345 344
345 346 349 351 350 351 350 349 348 347 345 341 342 340 336 334 335 331 326 324 322 317 320 326 326 331 333 333 334 336 335 337 338 337 335 335 336 337 339 340 339 339 339
343 347 348 350 351 351 351 349 348 348 348 345 343 340 340 338 335 334 332 325 324 321 318 323 327 329 332 334 335 333 333 336 337 336 334 333 333 335 336 336 336 336 336
341 345 347 349 352 351 351 349 348 349 348 348 347 344 342 341 339 336 332 330 325 323 319 321 325 328 329 331 333 336 333 329 328 335 334 333 331 332 333 334 333 334 334
343 342 347 348 351 352 352 350 348 349 349 347 349 346 346 346 340 337 333 330 329 325 323 320 321 328 328 330 332 332 334 331 327 331 333 332 331 330 329 329 329 330 330
342 345 344 348 349 351 351 351 350 349 349 350 350 348 349 346 344 342 337 333 330 330 326 322 323 325 330 328 328 329 329 329 329 333 330 330 330 329 327 326 325 325 324
344 345 347 348 349 351 352 352 351 350 349 350 351 351 351 349 348 346 342 339 335 330 327 326 325 325 328 330 328 327 326 328 330 333 336 334 333 332 330 326 325 325 321
350 347 347 349 351 352 352 352 352 351 349 349 350 351 351 351 346 346 347 345 339 336 333 329 328 324 326 327 328 327 329 329 330 331 332 332 331 330 331 329 331 331 324
349 349 346 347 349 353 342 340 349 352 351 350 349 350 351 347 345 339 338 341 343 339 336 332 334 331 331 329 333 331 329 323 323 331 331 331 331 330 331 330 331 328 325
348 347 349 348 346 350 335 336 341 353 352 351 350 350 350 351 345 350 339 336 336 334 339 342 335 336 333 335 333 329 331 330 329 329 332 330 327 330 331 332 327 326 324
350 349 347 348 349 349 334 331 337 351 353 352 353 352 351 351 349 348 349 347 344 344 340 340 344 344 341 340 335 334 332 333 332 330 333 328 328 330 331 332 329 328 323
353 352 352 349 348 350 329 328 333 349 351 352 353 353 353 352 342 332 347 347 348 348 339 331 332 334 332 330 333 334 331 327 328 330 332 332 327 329 329 331 331 327 323
353 355 355 355 346 351 331 325 330 349 349 350 352 354 337 347 333 328 344 348 346 348 350 349 344 335 331 336 328 333 337 332 330 329 332 331 326 327 325 328 328 327 325

GFSMA_sfc_thetae_054.txt.gz
Theta_e
346 345 347 348 348 349 349 347 351 349 346 342 349 351 348 348 350 351 354 355 357 355 352 353 354 355 355 353 353 353 352 352 350 348 348 350 350 349 348 349 348 347 348
345 346 348 349 350 350 349 347 350 347 344 342 346 349 349 347 349 351 354 358 358 358 353 350 350 351 352 351 351 351 352 351 350 351 351 351 350 351 350 350 350 351 351
346 347 348 350 350 351 349 348 350 346 343 338 343 346 346 347 349 351 353 353 357 355 355 355 353 352 351 350 350 351 350 350 352 351 351 352 351 352 351 351 350 351 351
348 349 349 351 351 351 351 350 348 340 342 338 339 343 343 345 346 350 351 352 355 357 355 356 357 356 355 354 354 353 352 353 350 350 350 351 353 352 352 351 351 350 349
349 351 349 350 351 350 351 350 347 345 341 341 338 340 341 341 343 345 347 349 351 353 354 357 358 357 355 355 353 354 353 354 355 354 353 354 353 352 351 351 351 350 349
352 350 348 350 345 349 349 351 346 343 343 342 336 335 337 342 342 343 344 347 348 350 350 352 355 356 357 356 356 355 354 353 354 354 354 355 354 354 353 352 351 348 348
353 348 349 347 345 349 349 348 340 338 337 338 336 334 336 338 340 342 342 343 344 346 347 349 351 352 350 355 357 356 354 354 354 354 355 355 354 353 352 350 348 347 343
353 349 350 347 349 349 347 346 344 340 337 338 333 331 329 334 334 335 340 342 343 344 345 346 349 349 348 351 352 353 356 354 352 351 350 350 349 348 348 347 345 341 340
355 353 350 349 349 352 348 349 345 340 336 338 335 332 327 327 329 333 336 340 343 343 344 345 346 346 347 348 349 352 355 353 351 351 350 349 348 347 344 340 341 340 339
353 354 352 351 351 352 349 349 348 343 339 337 338 335 334 333 330 330 333 336 340 341 343 343 345 345 347 346 346 349 352 351 352 350 347 342 340 339 338 336 338 339 339
353 355 354 353 351 351 351 351 347 344 337 336 336 337 337 334 330 329 328 332 336 339 340 341 342 345 347 346 347 347 351 350 350 348 345 341 339 338 337 337 337 338 339
350 353 355 353 353 352 351 349 350 346 340 337 335 337 337 335 334 330 327 329 331 337 337 338 340 343 346 346 346 346 349 350 346 344 344 345 344 341 340 340 340 341 342
347 350 353 353 352 352 352 352 351 349 344 341 336 337 336 336 335 335 332 330 330 333 336 338 338 341 344 346 346 348 349 348 343 340 341 342 344 346 347 345 344 343 343
345 351 352 353 353 353 352 352 350 350 349 346 343 340 340 336 335 335 336 334 331 330 332 339 338 338 341 344 345 345 346 343 341 337 337 338 340 342 344 346 347 346 345
346 349 352 353 353 353 353 353 350 350 351 349 349 347 342 342 336 336 335 335 334 328 330 337 336 340 340 341 344 344 345 342 340 337 335 335 337 338 340 341 341 341 340
346 348 349 352 354 354 354 353 352 352 351 350 347 347 347 345 342 341 338 334 332 332 328 333 337 339 339 339 341 344 342 340 338 337 335 334 334 336 337 337 338 337 337
343 347 349 350 351 352 353 353 353 353 352 352 351 348 348 348 346 344 340 338 333 331 329 333 332 338 340 341 341 343 341 340 339 335 335 333 332 333 334 334 334 334 335
343 345 348 349 351 353 353 352 352 353 352 351 352 352 351 350 348 348 344 341 338 334 332 332 334 335 338 341 341 341 340 339 338 334 332 332 331 330 330 330 330 330 330
345 344 346 347 349 352 353 353 353 352 353 353 353 352 352 352 351 350 347 344 341 339 334 332 334 333 336 338 338 338 339 341 340 336 330 329 330 330 328 326 326 325 324
346 347 346 348 349 351 353 354 354 353 352 352 354 354 353 353 352 352 351 349 346 342 338 335 336 335 336 339 337 336 335 335 337 338 336 333 332 331 330 326 325 325 321
346 346 347 347 349 350 352 353 354 353 353 352 353 353 354 353 347 348 352 352 350 345 343 337 338 337 336 336 335 339 334 338 338 339 337 338 338 338 337 331 333 331 324
350 349 347 347 348 349 339 338 349 353 353 352 351 352 354 348 347 339 339 341 349 348 346 344 342 341 342 341 340 337 335 334 332 339 336 335 337 337 338 340 334 330 326
349 349 349 349 348 350 334 334 339 353 353 353 353 353 353 353 348 354 341 336 337 335 340 350 345 344 344 346 344 340 337 336 335 340 337 334 336 333 338 338 329 327 325
346 347 349 350 348 348 332 331 335 351 353 354 354 354 354 354 354 352 353 352 350 349 345 345 349 351 352 352 350 346 343 339 338 339 338 329 338 334 338 336 329 327 324
350 349 349 349 350 350 328 328 332 349 352 353 355 356 355 355 342 332 351 351 351 353 341 332 333 334 332 331 337 348 341 333 331 334 336 333 335 333 335 337 336 328 323
353 353 352 353 343 350 330 324 330 349 349 350 354 355 336 348 333 327 347 351 349 352 354 355 351 339 334 340 330 337 341 338 335 332 340 333 334 334 328 334 335 334 328

GFSMA_sfc_thetae_057.txt.gz
Theta_e
360 356 356 356 357 359 358 359 357 354 353 353 355 355 354 354 352 351 353 354 357 353 353 355 355 356 355 353 352 353 353 353 349 348 349 351 350 350 350 351 351 351 350
359 354 355 356 358 360 360 359 357 354 351 352 356 356 355 354 353 352 355 354 354 353 351 350 352 353 352 351 351 351 352 351 350 351 352 351 350 350 351 351 350 352 351
357 359 359 358 359 361 360 363 358 356 348 350 355 355 355 355 352 352 355 357 354 354 355 352 350 349 348 349 350 350 349 350 351 351 351 351 352 351 352 350 351 350 350
360 362 359 359 360 360 361 365 358 351 349 348 351 352 354 354 351 351 354 357 357 355 354 354 355 355 354 355 354 353 352 353 351 350 350 351 352 352 352 351 350 350 349
357 361 360 360 362 359 359 359 356 354 348 346 348 351 351 349 349 348 352 355 357 357 358 355 355 355 354 353 354 354 354 354 354 355 354 353 353 353 351 351 350 349 348
360 360 362 360 360 361 363 360 358 355 351 345 343 346 349 351 353 349 351 351 354 355 355 357 357 356 356 356 355 354 354 354 354 354 353 354 353 352 351 350 349 347 348
361 362 360 360 359 360 363 358 353 351 349 344 343 342 345 350 351 351 352 352 351 352 353 356 355 355 354 353 354 355 354 355 354 354 353 353 352 351 350 348 348 346 343
363 361 360 358 358 357 360 357 354 344 347 346 343 342 335 340 345 348 350 350 350 353 352 351 354 355 355 354 353 352 354 354 352 351 351 350 349 348 348 347 344 339 338
363 363 360 360 359 368 363 360 353 350 343 347 345 343 334 332 340 345 346 348 351 350 352 353 352 353 354 354 352 349 353 352 351 351 350 349 348 347 345 339 338 337 337
363 364 363 361 361 364 366 359 357 354 350 343 344 344 346 344 334 332 343 347 349 349 351 351 350 351 353 353 349 348 350 351 351 350 349 345 344 340 338 337 337 338 338
362 362 364 362 362 363 364 361 360 358 350 346 343 344 348 346 344 339 334 340 345 347 350 350 349 349 353 353 351 350 350 351 351 351 345 341 339 338 338 338 338 339 339
358 362 363 364 364 362 362 361 362 360 355 349 347 348 343 340 339 340 337 341 338 345 347 349 349 348 350 351 353 351 348 350 349 347 345 346 344 341 341 341 341 341 342
354 360 363 363 362 365 363 363 362 362 358 351 351 345 347 345 347 346 342 340 339 345 344 347 348 349 349 351 352 352 350 346 346 342 341 343 345 346 347 346 344 344 344
352 360 362 363 364 365 364 364 360 359 361 356 356 352 347 346 345 345 342 340 336 340 343 346 348 348 348 350 353 351 350 343 343 340 337 339 340 342 344 346 348 349 349
351 356 360 361 362 363 364 364 359 360 361 360 359 359 353 351 349 347 345 343 338 332 334 344 342 352 350 350 351 352 353 345 341 340 336 335 337 338 340 341 342 343 343
355 354 358 360 361 363 364 364 361 362 361 359 358 360 360 355 354 351 348 345 343 339 334 342 342 347 350 348 350 351 351 346 341 339 337 334 334 336 337 338 338 339 339
356 356 358 358 360 360 362 363 362 362 361 362 361 360 359 361 356 355 352 350 346 344 338 341 345 348 350 352 351 352 351 351 348 337 336 335 333 333 335 335 335 335 336
356 356 358 359 359 359 360 360 359 358 359 360 361 362 359 358 361 361 356 356 352 352 344 347 348 346 351 355 354 353 350 347 348 341 335 333 332 331 330 331 331 331 331
357 354 356 357 357 358 359 360 360 360 360 361 362 362 362 361 360 358 359 356 355 354 352 346 346 348 347 347 349 352 351 353 349 342 333 331 331 330 329 327 327 325 325
356 356 356 357 357 357 358 358 359 360 360 361 362 362 362 362 361 362 360 360 359 356 356 351 349 348 350 355 349 344 344 347 346 346 342 338 336 332 330 327 326 326 322
358 359 357 356 356 355 354 358 358 359 360 360 361 362 363 360 350 354 359 363 364 356 353 349 347 347 346 346 346 347 345 346 349 350 347 347 346 343 341 330 333 331 325
357 358 356 356 356 353 339 338 352 357 360 360 360 361 362 353 352 340 339 341 354 362 357 352 350 349 357 354 353 351 349 346 344 354 350 344 346 344 351 348 337 331 326
356 356 355 356 357 360 334 333 338 356 358 361 361 360 359 358 354 361 345 336 337 335 340 359 358 359 359 362 362 358 356 353 350 353 353 346 349 346 347 350 332 330 328
359 359 358 359 358 359 333 330 334 354 359 361 362 363 364 363 363 360 360 360 361 362 358 352 357 359 364 366 367 363 363 360 357 355 357 342 349 349 355 352 335 331 328
356 356 357 358 358 360 330 328 334 353 356 360 362 363 363 363 347 333 358 359 362 363 347 335 337 335 333 331 339 353 347 345 341 346 354 347 344 345 350 347 351 332 326
356 355 355 358 349 360 333 324 331 352 355 353 361 364 338 352 334 327 356 358 358 358 361 363 364 347 337 347 331 344 348 343 343 342 352 343 344 344 336 344 344 344 340

GFSMA_sfc_thetae_063.txt.gz
Theta_e
357 360 355 352 362 355 352 353 351 354 356 353 352 349 348 348 348 348 350 355 355 356 356 356 356 355 355 353 353 353 353 350 348 349 351 350 350 350 351 350 351 352 351
361 356 362 358 354 350 353 356 358 354 358 351 353 353 350 350 354 354 350 354 354 353 353 354 356 355 352 353 352 350 353 350 350 351 352 351 351 351 351 350 349 350 350
363 366 360 350 355 359 362 357 356 349 348 350 351 353 349 351 351 355 352 352 354 355 353 351 350 349 349 350 350 351 349 348 348 350 349 348 349 351 351 351 350 350 350
363 366 357 356 356 353 353 350 349 351 344 347 349 348 348 349 351 351 353 354 356 354 356 356 354 353 353 354 353 353 353 353 353 351 352 352 353 352 351 350 349 349 349
363 364 357 360 361 358 355 350 344 351 346 343 344 345 354 346 352 348 350 353 353 353 355 359 358 356 354 353 353 352 354 354 354 353 354 354 354 353 351 350 348 348 348
363 364 358 360 359 356 348 357 354 354 353 346 345 345 347 346 346 347 346 347 349 351 353 357 356 354 357 355 356 355 355 355 355 355 355 354 354 352 350 349 348 348 345
364 365 359 361 360 358 352 356 352 351 345 352 346 341 343 345 346 345 346 346 345 347 347 350 350 353 355 358 356 355 355 355 354 354 353 353 351 351 350 348 349 347 338
365 363 367 362 361 358 358 360 356 348 343 350 340 344 338 341 343 343 343 343 347 347 348 349 349 351 350 352 357 356 354 354 352 351 351 350 348 348 348 349 347 341 337
364 366 365 359 362 360 353 358 357 360 347 346 355 345 338 334 335 338 342 344 349 347 350 350 350 350 352 351 352 353 355 353 350 350 350 349 348 348 348 346 341 339 339
364 364 367 366 364 360 365 361 356 360 356 346 343 345 357 350 339 331 340 343 347 346 350 350 350 351 352 351 350 353 355 353 350 350 349 348 346 346 344 339 339 339 339
365 362 366 367 365 359 364 361 361 363 352 350 341 340 347 337 346 343 336 339 344 346 348 350 348 349 354 351 350 353 351 352 352 352 352 348 344 342 339 339 339 340 341
360 365 364 371 366 364 363 362 365 363 367 358 352 344 338 338 339 339 337 341 341 344 345 346 348 347 348 350 355 352 350 349 350 350 352 352 348 344 342 342 341 342 342
350 366 370 368 367 369 365 366 368 363 363 357 361 345 344 344 345 343 340 338 338 342 342 345 347 349 349 351 352 354 352 347 347 346 346 348 348 348 347 347 346 345 344
352 371 366 364 366 367 364 369 361 360 368 359 361 364 352 346 346 345 342 340 336 337 342 349 348 349 351 352 355 352 352 344 343 342 342 342 343 344 346 347 347 348 348
354 357 361 364 363 363 367 371 360 366 363 364 364 364 357 350 347 346 345 344 340 335 337 350 345 356 352 351 354 356 359 348 342 340 339 339 339 339 341 342 344 344 346
367 361 362 361 363 366 366 373 365 368 367 361 356 367 366 352 353 350 348 347 346 341 336 342 344 350 354 351 354 356 355 349 343 340 338 337 337 337 337 339 339 339 341
370 368 366 364 362 362 366 371 370 366 367 367 367 363 367 371 357 352 351 350 347 346 340 343 345 355 369 367 362 363 358 361 355 339 338 337 335 335 335 335 335 336 336
369 370 367 367 363 361 366 369 363 363 361 362 364 368 362 357 369 369 358 369 357 361 347 355 354 352 362 366 366 367 357 355 356 348 337 336 334 334 333 332 331 331 331
370 363 367 368 365 363 365 369 369 366 365 365 365 366 365 367 369 361 365 357 353 357 357 352 353 356 357 356 360 366 366 364 360 349 340 335 334 333 332 330 328 327 325
369 369 370 369 367 364 364 363 365 366 367 363 366 366 366 367 369 371 367 371 366 362 357 354 353 352 354 362 358 352 352 356 356 355 350 345 343 336 333 329 329 328 324
369 371 370 369 369 363 357 363 364 365 367 364 366 365 366 363 352 359 362 368 369 363 356 353 352 352 351 351 354 355 353 357 361 361 359 360 358 360 357 333 338 333 327
370 371 369 370 368 358 342 338 354 360 364 365 365 368 369 357 354 343 341 342 352 366 368 356 353 351 359 358 358 356 358 355 354 364 363 363 366 364 365 364 346 334 328
371 371 370 370 369 369 336 333 338 356 361 363 366 367 364 356 358 368 347 340 342 338 341 360 359 360 361 365 368 367 361 361 359 365 365 361 364 360 365 361 340 333 327
369 369 370 371 371 369 336 329 334 360 359 362 366 367 368 366 367 367 369 366 365 367 363 357 360 362 366 369 369 367 367 365 365 365 367 356 362 361 364 367 346 338 327
369 369 370 371 371 370 332 329 335 359 358 363 364 365 365 368 351 337 363 361 362 364 348 332 334 336 336 335 343 354 351 354 355 357 363 358 360 361 360 362 360 337 328
369 364 367 371 359 372 336 326 335 357 358 356 365 367 340 353 337 329 363 363 361 363 365 364 365 356 338 348 332 351 360 357 357 355 369 357 357 353 346 355 356 356 354

GFSMA_sfc_thetae_066.txt.gz
Theta_e
354 360 349 353 352 357 354 348 355 352 347 353 353 352 346 351 347 350 352 360 360 359 357 357 355 356 355 354 354 353 354 348 349 350 352 352 351 351 351 350 351 351 351
364 363 354 353 352 357 355 356 357 354 353 347 350 349 352 352 353 348 349 353 360 360 358 357 357 355 354 354 353 350 353 350 351 351 350 350 352 352 351 350 350 350 350
365 359 352 353 356 362 361 358 361 354 349 351 352 348 352 354 349 350 349 349 352 358 357 356 356 354 351 350 351 351 349 348 348 348 349 349 349 351 351 351 350 350 350
369 354 355 354 357 354 359 347 357 352 346 347 346 343 343 351 353 352 353 352 351 350 356 357 356 355 352 352 352 352 353 354 353 352 352 353 353 353 352 351 350 349 349
368 361 352 358 356 362 362 356 344 358 349 349 346 348 352 347 346 348 352 355 355 352 352 358 358 358 357 358 357 356 355 356 356 355 354 354 354 354 352 351 349 348 348
368 357 358 364 363 348 352 358 344 350 347 346 343 345 341 348 348 349 348 352 353 355 355 352 355 355 358 357 358 357 356 356 356 357 357 356 355 354 353 351 349 348 345
365 359 361 363 363 351 351 360 359 355 346 352 341 344 348 344 347 349 348 345 346 349 352 357 353 353 352 359 359 358 355 355 355 355 355 356 354 353 353 351 350 349 342
368 363 359 363 352 362 362 357 347 347 343 346 345 345 333 339 347 341 346 345 345 345 347 349 351 351 354 352 353 358 358 356 354 353 352 353 351 349 349 350 350 347 342
369 365 365 363 366 355 356 360 360 343 343 350 348 346 337 332 342 342 342 347 348 348 351 351 350 352 350 354 357 356 357 356 354 352 352 350 350 349 349 349 348 344 342
368 368 367 369 368 361 357 364 362 351 344 346 354 353 348 348 339 333 342 348 348 348 349 353 349 351 352 351 358 355 355 354 354 353 353 350 350 349 348 348 346 343 343
371 366 371 369 365 364 365 364 362 364 360 353 348 347 346 348 350 337 336 342 347 348 352 352 351 351 353 351 351 351 353 351 352 353 354 353 350 346 345 343 342 343 343
364 371 368 367 368 367 364 364 368 366 365 363 355 350 342 343 341 343 339 341 338 346 350 352 348 348 353 352 355 355 353 349 349 350 351 353 352 349 345 343 342 342 342
356 363 370 366 366 367 368 367 369 366 367 363 364 358 355 349 341 350 342 340 339 346 344 346 351 352 351 355 353 352 351 347 345 345 345 348 350 349 348 348 348 346 345
358 363 366 366 368 368 367 367 364 365 364 364 363 365 360 355 352 352 348 345 340 343 347 342 352 352 353 354 357 354 349 344 342 341 341 342 344 345 345 346 347 347 348
362 364 366 367 368 366 366 367 361 363 361 364 365 365 364 357 355 352 352 350 345 337 339 349 350 357 356 355 358 352 352 347 341 339 338 338 339 340 341 342 343 343 345
364 364 366 365 365 369 368 366 362 363 363 360 361 363 363 357 356 357 354 354 351 347 339 346 349 355 355 350 357 356 355 351 343 340 337 336 336 338 338 338 339 339 340
373 368 371 367 365 364 369 368 364 362 361 361 364 364 362 362 361 360 358 355 352 352 344 346 352 354 360 360 356 358 360 357 355 339 338 337 335 335 336 336 336 336 336
365 374 367 370 365 364 365 365 363 358 361 360 362 363 363 361 364 363 361 360 361 363 356 349 354 353 353 356 360 362 360 356 354 350 338 336 334 334 333 333 333 333 332
364 363 369 364 366 363 362 363 364 363 362 363 363 364 363 365 364 362 362 357 355 357 356 352 349 356 357 360 357 361 362 359 357 351 343 338 335 333 332 330 329 328 326
362 363 363 365 365 364 362 361 365 364 363 362 365 363 365 364 364 365 363 362 362 361 359 356 352 351 353 355 357 354 353 358 356 355 352 346 341 338 334 330 329 328 324
362 364 363 364 365 364 361 360 360 362 363 363 363 363 364 362 354 357 362 364 363 360 358 356 353 352 352 353 351 353 351 355 358 358 356 358 359 361 359 339 337 335 328
362 363 364 363 363 363 345 340 354 357 363 361 360 361 365 353 351 342 340 342 351 359 357 357 355 352 353 355 357 355 353 350 348 359 361 359 362 360 363 363 347 334 329
361 362 363 364 364 364 338 335 340 356 357 358 362 361 361 359 353 362 345 339 340 338 341 355 353 352 351 353 355 356 356 355 354 360 358 354 361 359 363 362 343 338 332
360 362 363 364 365 365 339 330 335 353 356 359 360 359 361 360 360 362 362 360 359 359 356 351 351 354 357 360 361 360 359 359 358 358 361 353 359 357 362 362 345 337 335
361 361 362 364 364 365 335 331 333 351 352 355 356 358 361 362 347 338 354 354 355 358 347 336 341 340 340 338 345 357 352 346 346 353 361 356 357 357 357 355 357 341 332
360 362 362 364 355 364 338 328 333 355 352 353 357 359 339 348 335 328 353 358 355 356 358 359 359 353 338 344 330 340 348 348 352 352 360 354 355 353 346 353 354 355 345

GFSMA_sfc_thetae_069.txt.gz
Theta_e
347 349 349 347 347 348 348 347 348 347 348 346 349 346 345 346 348 351 351 361 361 360 357 357 356 355 354 355 353 353 353 348 349 351 352 351 351 351 351 349 350 351 351
353 348 346 347 346 347 349 347 348 347 346 346 344 345 344 344 346 347 348 353 361 361 358 357 356 355 354 353 352 352 352 349 350 350 349 348 350 352 351 351 350 350 350
351 351 347 349 345 348 345 346 349 349 345 343 345 341 345 345 343 345 345 348 355 360 359 358 358 356 354 353 351 351 350 349 347 348 350 349 350 352 352 351 350 350 350
351 349 347 347 350 349 349 339 346 343 344 342 340 341 342 344 344 344 345 346 346 349 356 358 358 357 352 352 351 351 352 354 355 353 352 353 353 353 353 352 350 349 348
355 349 346 346 348 347 348 348 341 346 340 341 340 340 342 344 347 347 347 348 345 347 347 356 357 357 354 354 356 356 357 357 357 356 355 354 354 354 353 353 351 349 348
355 351 350 349 352 346 343 346 338 341 336 341 341 341 341 340 340 342 344 350 348 348 347 348 351 353 358 359 359 359 355 358 358 357 357 356 356 355 354 353 352 350 347
347 342 349 351 348 344 340 347 345 338 339 343 338 336 336 339 338 341 342 345 346 350 350 347 349 349 351 359 359 360 357 357 357 357 356 356 355 353 353 352 351 350 347
352 352 350 351 348 346 348 344 341 338 335 336 334 335 326 329 338 338 339 341 336 347 348 348 349 347 345 348 352 360 359 358 356 355 356 355 353 352 351 350 350 350 346
357 355 351 352 350 349 347 347 345 341 336 338 341 334 325 323 331 333 329 336 336 339 340 341 342 348 345 347 351 355 358 355 357 354 354 354 352 352 351 351 350 349 345
357 357 355 352 352 347 347 348 351 341 337 335 344 346 336 335 329 321 331 336 337 340 340 341 341 342 342 347 353 353 356 353 355 355 354 354 353 350 349 349 350 348 344
357 358 356 355 352 348 349 349 349 349 345 341 340 334 336 334 336 329 328 333 337 337 340 339 342 343 342 342 347 349 353 352 351 353 355 356 354 349 347 347 347 345 342
356 357 361 355 353 353 352 351 351 348 349 348 347 342 330 329 330 333 332 333 330 334 341 342 339 343 344 343 349 351 354 350 348 348 350 353 354 353 348 346 345 344 342
351 353 356 354 355 354 353 353 352 352 351 348 350 347 346 343 337 336 335 334 329 335 333 338 342 338 345 345 345 352 353 348 345 343 344 346 349 351 352 351 350 349 346
351 353 356 353 354 355 355 353 351 352 352 351 348 349 349 346 346 337 336 332 327 331 335 331 339 341 340 344 349 353 345 344 342 340 340 341 343 345 347 348 348 348 348
352 353 358 354 357 355 355 354 350 350 352 352 351 349 350 348 345 342 337 337 331 325 327 336 339 344 342 344 348 348 343 344 341 339 337 337 339 340 342 343 343 343 344
350 354 358 357 358 355 353 354 349 352 350 350 349 350 348 348 344 348 340 338 337 332 328 335 336 339 347 346 348 347 345 347 344 340 337 336 336 337 338 339 340 340 340
353 357 357 356 356 357 356 354 350 353 350 350 350 351 351 350 346 348 352 348 342 338 332 334 340 344 345 346 349 348 348 347 346 340 339 337 335 336 336 337 337 337 337
350 355 358 357 356 353 354 355 350 351 353 350 351 351 352 354 350 349 351 347 348 349 342 337 341 341 341 344 345 347 352 357 351 349 341 338 336 334 333 333 332 333 333
349 351 355 355 353 354 353 354 355 352 351 351 351 352 352 352 349 350 348 347 346 346 346 343 340 345 348 349 349 348 351 353 356 350 341 338 337 335 333 330 329 327 325
354 354 355 354 355 353 353 353 354 355 353 354 355 355 355 354 353 353 354 352 351 349 349 347 346 345 345 349 347 347 344 346 347 355 352 346 343 343 336 331 329 329 324
351 352 353 355 356 356 356 352 353 355 355 353 353 354 355 354 352 352 356 353 353 350 350 348 347 346 344 342 343 346 345 347 348 348 350 350 354 359 358 349 342 338 329
354 352 351 354 356 358 345 342 350 351 355 355 354 354 356 351 350 343 343 344 353 353 350 349 347 345 344 345 346 346 345 343 342 350 351 354 355 356 359 358 346 335 332
347 351 355 355 354 357 339 338 342 351 349 354 354 354 354 357 349 353 343 337 338 337 341 349 345 346 346 348 347 345 346 348 348 353 351 351 355 354 358 358 343 337 335
350 350 352 355 356 357 338 334 338 349 350 350 353 355 354 353 351 350 352 352 350 348 346 344 344 349 350 352 350 352 351 351 354 357 349 345 354 352 354 356 343 340 330
353 351 354 355 355 357 335 333 332 340 347 349 351 352 352 353 344 337 348 349 350 353 348 335 337 337 337 336 342 350 350 347 346 344 350 350 350 350 350 350 351 332 324
351 354 353 356 350 357 335 330 332 349 343 345 347 348 337 348 336 332 347 348 344 345 345 347 347 339 333 340 333 342 348 342 341 345 352 348 347 348 345 345 345 331 329

GFSMA_sfc_thetae_072.txt.gz
Theta_e
344 348 346 345 346 349 346 344 344 344 344 346 346 343 345 346 348 350 351 359 360 358 355 355 356 354 353 353 352 352 350 347 348 351 351 349 350 351 351 350 350 350 351
345 345 343 339 341 346 345 345 343 345 343 344 343 343 344 346 348 349 349 352 360 360 357 355 356 354 354 353 352 352 350 348 349 350 349 348 347 350 350 350 350 350 350
349 343 344 344 344 344 346 344 346 346 343 342 341 342 343 344 345 346 347 349 355 359 358 357 356 355 354 354 353 351 353 352 348 348 349 348 350 352 352 351 350 349 349
349 346 343 343 346 345 344 340 344 346 340 341 339 341 341 341 341 343 345 348 350 351 357 359 359 357 354 352 351 352 352 352 353 353 353 353 354 353 353 351 350 348 348
351 347 345 345 344 345 346 338 342 339 338 339 338 337 340 340 340 343 342 343 344 345 346 355 359 358 353 353 354 354 354 357 358 355 354 353 354 354 353 352 350 348 347
351 348 346 346 347 342 344 343 338 338 337 337 339 337 338 339 341 342 344 345 343 345 343 344 348 351 357 356 358 359 357 356 358 356 356 357 356 354 353 353 351 349 348
349 346 348 349 348 340 340 341 342 333 335 337 333 333 334 337 335 338 341 345 346 346 344 345 345 347 349 359 360 360 356 357 357 357 358 356 356 354 353 352 352 349 348
344 346 347 348 344 340 343 342 338 333 333 333 332 329 324 326 333 336 338 342 342 346 348 347 346 346 345 346 350 357 359 357 356 356 357 357 355 353 352 351 350 350 348
350 352 349 349 346 345 343 341 339 335 330 334 335 332 322 319 327 330 331 336 337 337 344 346 347 347 345 343 348 353 358 356 356 355 356 357 355 353 351 351 350 350 349
353 352 350 351 347 346 345 345 346 336 333 332 340 341 332 330 326 318 327 331 333 336 338 338 341 344 345 345 348 351 353 354 355 356 356 356 356 353 350 350 350 350 348
353 353 352 351 350 345 344 346 347 343 336 337 337 332 335 331 331 326 322 327 334 335 337 337 339 339 339 343 344 349 354 353 352 352 355 356 357 353 350 349 349 349 348
351 352 353 352 349 347 346 346 347 346 346 344 343 340 330 324 327 328 328 327 328 331 335 338 337 339 340 339 346 353 353 352 350 349 349 351 354 356 352 350 349 348 348
350 351 354 350 349 350 350 349 348 347 346 344 346 344 341 340 338 332 330 329 328 331 332 336 339 338 342 341 342 352 353 350 347 344 343 345 348 351 354 354 354 352 350
352 353 355 351 351 351 351 350 348 349 350 347 346 345 346 342 343 336 332 327 324 326 330 332 333 338 337 341 345 350 347 345 344 342 340 340 342 344 346 349 350 350 350
350 351 354 351 352 351 351 349 347 346 349 348 348 345 346 346 342 339 337 332 327 321 323 331 333 340 340 338 343 345 346 343 343 341 338 337 338 339 341 343 344 345 345
348 349 354 351 350 352 351 350 347 347 347 346 347 345 344 345 343 342 343 334 332 327 324 331 333 336 345 344 346 346 344 345 342 340 338 336 336 337 338 339 340 340 341
347 349 354 352 352 352 350 349 347 346 347 346 346 345 345 347 344 343 346 346 341 335 330 332 335 341 343 342 342 343 346 344 345 341 340 338 336 336 336 337 337 337 337
348 352 354 353 353 354 350 349 347 348 348 346 346 346 347 352 347 344 346 345 343 343 338 336 336 338 339 343 346 346 350 353 350 349 341 338 336 335 334 333 332 332 331
345 352 353 353 353 353 353 352 350 348 348 349 348 347 347 348 347 344 345 345 344 345 342 340 342 342 346 347 346 345 345 347 352 349 342 340 337 335 333 331 328 326 324
345 346 352 353 353 352 352 352 353 350 348 349 349 348 349 349 348 348 348 347 347 347 345 342 341 342 343 346 344 343 343 343 345 352 348 343 340 342 341 338 336 334 326
345 349 348 352 353 352 353 351 351 350 349 349 350 352 352 352 348 347 351 350 349 346 345 344 343 343 344 343 343 344 342 345 344 344 346 348 351 355 355 348 349 341 333
347 347 351 351 351 354 342 340 347 350 350 349 349 349 351 349 347 342 341 343 349 349 347 345 346 346 347 342 342 342 340 338 338 348 346 351 353 353 354 356 342 336 327
340 347 346 350 351 353 337 336 341 350 350 351 351 351 351 355 348 351 341 337 336 337 342 351 347 346 344 346 343 341 342 341 342 349 348 349 349 348 355 356 337 326 324
341 342 350 347 348 351 335 333 338 350 349 347 351 353 352 352 349 348 348 348 347 347 341 341 343 346 347 349 347 349 347 345 348 352 351 344 348 349 353 353 328 325 323
347 343 344 351 351 351 331 331 334 348 349 348 347 349 352 352 341 333 347 346 347 348 343 332 333 333 332 332 338 343 345 344 343 343 344 345 348 346 348 346 331 324 320
350 349 347 347 342 351 333 328 331 350 346 347 348 347 335 346 333 328 345 347 345 347 345 342 343 336 331 338 332 340 346 342 342 339 348 350 344 347 347 342 332 325 323

GFSMA_sfc_thetae_075.txt.gz
Theta_e
343 344 345 342 343 345 344 342 342 342 343 343 343 344 344 345 347 349 349 357 359 357 354 354 355 353 352 352 351 351 349 347 348 352 350 349 351 351 351 350 350 350 351
344 345 343 341 342 343 344 343 342 343 342 340 341 342 343 345 348 349 349 350 358 358 355 355 355 354 353 354 351 351 351 348 349 350 349 349 348 349 351 350 350 350 350
344 344 342 338 340 343 343 343 343 344 342 341 340 342 343 344 346 347 348 348 351 357 356 355 355 354 353 352 353 351 351 352 351 348 349 349 350 352 352 351 350 349 348
349 342 343 342 342 342 342 340 342 341 339 339 336 339 339 341 343 344 345 347 349 352 354 357 358 357 354 353 352 351 352 352 351 353 354 354 354 353 353 353 350 348 347
348 344 342 343 344 343 340 338 341 338 336 337 336 338 338 338 338 342 342 344 346 348 346 353 360 360 356 353 353 353 354 356 357 356 354 354 353 353 353 352 351 349 347
349 345 342 343 345 342 342 337 338 337 336 336 337 336 337 338 339 339 340 342 341 343 342 343 344 350 356 354 357 356 357 358 358 356 356 356 355 355 354 352 351 350 348
349 345 345 347 344 337 340 338 337 333 334 334 332 331 331 336 336 338 340 342 343 342 343 342 341 344 345 354 358 359 358 356 357 358 358 358 357 356 354 352 352 350 349
346 346 346 346 343 337 342 341 335 332 332 333 330 326 323 324 330 334 336 339 341 344 345 345 345 344 344 344 347 354 358 357 356 355 358 358 357 355 353 351 350 350 349
344 347 346 347 342 340 342 338 336 331 329 332 333 329 321 319 324 329 328 334 337 337 341 345 346 346 344 342 346 348 355 356 357 354 356 357 357 355 353 352 350 349 350
348 348 348 348 345 344 341 340 341 334 330 329 337 338 329 326 324 317 323 328 332 335 334 338 342 344 345 344 348 350 351 352 355 356 355 357 357 356 354 352 352 350 350
350 351 349 349 345 344 343 344 343 337 334 333 335 330 332 330 329 323 322 323 331 333 334 336 337 337 340 342 342 345 352 352 352 354 355 356 357 357 354 353 352 351 349
349 350 350 348 348 345 344 344 344 343 341 340 339 337 330 325 325 327 325 326 325 329 332 335 335 337 338 338 343 350 352 352 351 351 351 351 353 355 354 355 354 353 351
346 349 349 348 346 346 346 344 345 343 343 342 342 340 335 335 336 330 328 327 326 329 331 333 336 337 339 339 339 348 351 349 347 345 345 346 348 349 352 354 356 356 354
348 350 351 350 349 347 348 346 346 346 346 343 344 344 343 341 340 334 329 325 322 323 326 331 332 335 338 338 342 348 344 344 343 342 341 342 343 344 345 347 349 351 352
350 350 353 350 349 349 348 347 346 345 346 345 345 343 342 344 341 337 337 329 325 320 321 328 332 337 338 340 340 340 341 343 342 341 339 339 339 340 341 341 343 344 345
346 348 352 349 348 349 348 347 345 345 345 345 346 344 343 343 342 339 341 332 330 325 323 328 332 334 338 344 345 344 344 344 343 340 339 337 338 339 339 339 339 340 340
345 346 350 350 346 348 349 347 345 345 345 344 343 343 342 342 343 341 341 342 338 333 329 333 332 339 340 340 343 344 346 345 345 341 340 339 337 336 337 337 337 337 337
344 347 347 350 349 349 349 347 346 348 344 344 345 343 343 347 345 343 342 341 340 339 336 334 335 338 340 343 346 345 350 351 348 347 341 339 337 336 334 333 332 331 330
343 346 349 350 349 350 349 348 347 346 345 346 346 345 344 344 343 343 342 342 342 343 340 337 340 341 343 344 344 346 345 346 349 347 342 339 338 337 335 333 331 328 325
342 344 349 350 351 351 351 351 349 347 345 346 347 347 347 346 345 344 344 343 344 343 343 341 339 338 340 344 343 342 345 343 346 349 348 342 340 342 340 336 335 334 324
342 343 345 349 350 351 352 351 351 350 349 347 347 348 348 348 345 344 347 345 345 344 342 341 339 340 341 341 341 341 340 342 343 343 344 346 350 354 354 345 347 331 324
342 340 342 345 348 352 341 339 347 349 348 348 347 347 348 347 345 340 339 340 346 345 342 341 341 342 343 342 341 340 337 336 340 345 345 348 352 352 350 352 330 325 323
340 340 342 345 345 348 335 335 339 349 348 348 347 347 347 351 345 349 341 336 336 336 339 347 345 345 344 345 341 337 338 338 338 348 345 346 348 346 350 332 326 324 321
339 338 339 342 346 347 334 331 336 348 348 348 348 349 348 348 347 348 348 347 347 346 342 341 344 349 350 350 343 344 344 342 343 347 348 345 345 346 346 327 326 323 321
341 340 339 339 341 344 331 330 332 345 347 348 347 347 349 350 340 332 347 345 345 346 340 331 332 332 331 330 333 340 341 338 340 341 344 344 344 348 347 332 324 323 319
346 346 343 341 338 345 328 326 331 349 347 348 349 348 333 343 331 326 342 345 343 346 346 344 342 336 331 337 330 338 343 340 340 339 344 345 348 347 343 343 328 322 320

GFSMA_sfc_thetae_078.txt.gz
Theta_e
346 347 348 346 347 349 346 347 347 346 348 347 347 348 348 349 351 353 355 355 356 354 352 353 352 350 352 351 351 351 349 347 348 351 349 348 349 349 351 351 350 350 352
346 348 346 345 346 349 348 348 347 348 346 344 346 347 348 349 351 352 353 354 355 354 353 353 353 352 351 353 351 351 352 350 349 350 349 349 349 350 352 352 350 350 350
347 348 347 344 345 348 347 348 347 348 345 345 344 347 348 349 350 352 353 353 355 357 356 355 354 354 353 352 352 352 350 352 352 350 351 350 351 353 354 353 350 349 348
349 347 346 345 346 348 347 345 347 347 344 343 343 344 344 347 348 350 351 352 352 354 355 357 358 356 355 353 353 352 353 353 353 353 355 355 354 353 353 353 351 350 347
351 346 347 347 349 349 345 344 346 344 342 343 341 343 343 343 345 345 346 348 349 353 352 352 356 359 357 356 354 354 354 357 357 357 356 354 354 353 353 352 352 350 349
350 348 348 349 349 348 346 343 345 341 342 342 341 341 342 343 344 342 343 344 346 348 349 348 349 349 355 355 354 356 357 358 359 359 358 357 356 355 355 354 352 351 349
350 347 347 346 349 347 346 344 342 341 340 340 340 338 338 341 342 344 345 346 346 347 347 347 347 347 347 351 354 356 356 357 358 359 359 358 358 357 355 354 352 350 350
350 349 349 350 348 343 347 346 343 338 338 339 336 333 331 333 335 340 341 343 345 347 349 350 350 350 350 350 351 352 355 356 356 357 357 357 358 358 355 353 351 351 350
350 349 349 350 347 345 345 346 342 341 338 339 340 337 330 327 329 337 337 338 342 343 346 347 350 352 352 351 351 351 353 354 356 357 359 357 357 358 356 354 352 350 350
350 348 351 351 349 346 347 345 344 341 340 338 342 341 336 335 332 330 334 335 338 339 342 344 345 347 351 351 352 353 353 352 354 355 358 359 357 358 358 356 354 351 350
352 351 352 352 350 349 349 349 347 344 341 341 341 338 340 337 336 331 331 335 339 341 342 342 344 345 347 348 348 350 350 351 352 354 355 358 358 358 358 358 357 355 353
352 352 352 351 351 348 349 350 351 347 346 345 344 343 341 337 335 334 332 334 333 339 340 343 343 344 345 346 347 350 351 350 350 351 352 353 355 356 356 357 358 359 358
349 352 353 352 351 349 350 350 350 350 349 348 349 347 342 342 343 337 335 335 333 338 340 342 344 345 345 348 347 348 350 347 346 344 344 346 348 351 353 355 356 357 358
350 353 353 353 352 352 351 350 349 349 350 349 349 351 349 347 346 342 339 335 334 333 335 343 346 346 347 348 348 349 350 343 342 340 340 341 342 344 346 348 349 350 351
351 352 354 354 351 350 352 352 350 349 352 352 351 350 349 349 348 345 345 338 336 333 333 340 342 348 349 353 352 353 352 346 342 341 339 339 339 341 342 343 343 343 344
350 353 354 355 353 351 350 351 350 351 350 350 350 351 350 350 349 347 346 341 338 336 334 337 342 344 349 351 353 356 355 346 345 341 339 339 339 340 340 341 340 340 341
349 350 352 354 354 350 351 350 350 351 349 350 350 350 350 350 349 349 347 348 345 339 339 345 340 347 352 354 358 358 357 359 357 344 341 340 337 337 338 338 337 337 337
349 350 351 353 353 352 352 352 349 352 349 349 350 349 349 349 350 352 350 349 348 347 345 344 346 347 352 355 356 356 358 358 357 348 340 338 336 336 335 334 333 332 330
346 348 350 350 352 352 352 352 351 351 351 351 350 350 351 350 350 350 350 349 349 349 348 345 346 351 352 353 355 358 358 359 356 348 341 340 338 337 335 333 330 327 323
344 346 348 350 352 353 353 353 352 351 351 351 352 352 352 351 352 352 350 351 351 349 350 349 349 349 350 353 353 350 353 357 354 354 351 344 340 341 340 335 330 325 320
344 346 346 350 352 353 352 353 353 352 351 351 351 352 353 352 345 348 353 354 352 351 351 350 349 349 350 351 351 354 350 351 352 354 354 358 359 360 359 346 331 326 322
344 343 344 347 350 352 341 339 349 353 353 352 352 353 354 348 347 338 337 339 350 354 353 350 351 348 352 351 354 351 349 347 345 357 353 353 359 358 357 340 326 323 321
344 342 343 344 346 349 335 335 339 353 353 353 353 353 351 352 348 354 343 336 336 335 340 355 352 352 352 355 355 353 350 347 347 354 353 350 358 356 352 332 324 322 320
341 341 343 344 344 345 331 332 336 350 352 352 352 352 352 353 352 353 353 353 353 354 350 346 349 354 357 358 357 355 352 350 352 354 356 348 357 354 336 332 324 323 320
340 340 341 342 344 345 327 327 333 349 350 351 352 353 353 352 340 331 352 352 353 353 342 331 334 334 332 331 337 347 347 347 346 349 355 353 354 354 356 337 327 322 319
343 342 342 342 336 343 327 324 329 346 345 347 351 353 333 346 331 326 348 351 349 351 353 353 351 340 333 341 328 343 348 345 347 348 355 352 354 352 357 347 332 327 328

GFSMA_sfc_thetae_081.txt.gz
Theta_e
355 355 356 354 355 355 354 356 355 356 356 355 356 355 353 352 352 353 355 356 355 355 353 353 352 351 352 352 351 351 352 349 349 351 350 349 349 350 351 353 350 350 350
356 353 353 352 356 359 358 358 356 355 354 354 355 355 354 354 354 355 354 356 355 354 353 353 353 353 353 354 352 351 352 352 352 351 349 350 350 352 355 353 351 349 349
358 359 356 353 356 359 359 360 359 358 353 353 354 354 356 353 352 354 355 355 357 356 356 355 355 355 354 353 353 353 352 351 352 351 353 354 354 354 353 353 352 350 348
358 360 357 353 355 359 357 358 357 353 352 352 352 353 353 352 353 353 355 355 356 353 355 356 357 357 356 355 354 353 353 354 355 354 355 356 354 354 353 353 352 351 350
360 358 357 356 358 356 355 356 354 354 351 352 351 354 354 353 352 350 352 352 354 353 355 352 353 356 357 357 356 355 356 358 358 359 358 356 356 354 354 355 353 352 351
360 357 358 358 360 355 354 352 355 352 353 353 348 350 354 354 354 353 352 352 353 353 354 356 355 354 352 354 355 355 355 357 360 360 359 359 358 357 356 355 353 352 351
360 360 356 358 359 357 357 354 353 352 350 353 351 349 350 350 351 352 353 353 353 354 354 355 356 356 356 352 353 354 355 356 358 360 360 358 359 359 358 356 355 352 350
361 359 359 358 359 355 357 356 353 348 351 353 347 346 336 342 347 349 352 351 351 353 353 355 357 358 359 357 358 355 355 356 357 358 360 359 358 358 358 356 354 353 352
361 361 360 360 359 357 353 356 353 351 346 349 351 345 338 333 340 349 348 349 350 351 352 354 355 357 359 358 359 358 356 354 354 356 359 360 359 358 358 357 355 353 351
360 357 360 361 360 355 357 355 352 351 352 345 350 351 350 347 337 335 346 346 348 348 352 352 351 353 356 356 360 357 354 353 355 356 357 360 361 360 359 358 357 354 352
362 358 359 362 360 358 359 359 356 355 351 348 348 349 352 349 349 342 336 343 351 351 354 353 352 353 355 357 355 355 353 351 351 354 355 357 358 359 361 361 359 358 357
360 362 360 361 362 360 359 359 361 357 355 355 354 355 351 344 346 346 343 344 344 349 351 353 353 354 355 355 357 353 352 351 350 350 351 352 353 354 356 357 359 361 361
355 361 363 362 360 362 361 361 362 361 359 356 358 356 355 353 355 351 347 343 341 347 349 354 353 356 355 358 358 352 353 348 346 343 343 345 347 349 350 352 354 355 356
356 362 364 364 363 362 361 361 358 357 360 358 358 360 358 358 357 355 350 346 340 344 347 348 356 354 355 359 358 353 360 347 343 340 340 341 343 345 347 348 349 349 349
357 361 362 363 364 363 363 362 357 358 360 360 359 360 357 358 358 358 355 352 346 336 338 345 345 356 356 359 361 364 364 350 345 343 340 340 341 342 343 344 344 344 344
361 360 361 362 362 363 362 362 359 360 361 358 358 361 360 357 357 357 354 353 350 346 339 349 349 355 360 359 360 364 363 351 349 344 342 340 339 340 341 341 342 341 341
361 361 362 362 362 362 363 363 362 360 359 359 360 360 359 362 355 354 356 354 351 350 344 346 354 358 362 364 364 366 362 363 358 347 342 340 337 337 339 338 337 337 337
360 361 362 362 362 362 363 361 360 359 359 358 358 359 358 356 359 361 356 360 357 358 351 350 356 354 360 365 365 366 362 358 363 350 342 338 337 336 334 333 332 331 329
357 357 360 361 362 362 362 362 362 361 361 360 358 359 359 359 359 357 359 356 356 357 358 354 352 356 359 360 361 363 363 365 360 350 343 341 340 338 335 330 325 322 320
355 355 357 358 360 362 362 362 362 362 362 361 361 360 360 360 360 363 360 362 360 358 357 355 353 353 355 360 360 353 352 355 357 359 353 348 343 344 337 327 326 324 320
354 355 356 356 358 357 357 361 362 361 361 360 361 361 360 358 349 352 357 360 362 358 355 353 351 351 351 351 353 353 351 354 358 359 358 357 361 364 361 337 331 325 322
354 354 353 355 355 352 339 339 354 360 361 360 359 361 362 351 350 339 338 340 350 359 357 352 349 349 355 356 354 353 352 350 346 356 359 355 362 363 364 352 325 324 322
354 353 353 354 356 358 334 334 340 357 360 361 362 361 359 357 354 361 343 336 337 335 340 358 356 356 357 359 360 359 358 354 352 356 359 352 361 360 364 335 324 323 320
351 352 352 355 355 354 332 330 335 356 360 361 361 362 362 362 361 360 360 359 360 361 359 354 357 360 362 364 365 362 361 360 359 357 364 352 360 359 360 343 324 322 320
350 350 351 353 354 355 329 327 334 353 354 360 362 362 362 362 346 334 357 357 359 359 345 335 336 335 335 333 340 356 352 350 347 349 359 357 358 359 362 360 340 322 318
351 350 350 353 344 354 332 323 330 348 350 350 357 363 337 352 334 327 354 357 355 355 356 357 359 348 338 349 330 351 356 350 349 347 359 356 355 360 354 361 350 342 338

GFSMA_sfc_thetae_084.txt.gz
Theta_e
354 353 353 353 354 355 355 356 357 358 358 356 356 353 347 348 348 349 351 356 355 355 353 354 353 351 352 353 351 351 353 352 351 351 351 351 351 351 353 356 351 350 349
356 354 355 355 356 358 357 357 358 356 355 355 356 355 352 352 352 353 349 353 355 353 353 353 353 353 353 353 353 352 351 351 352 352 352 353 354 354 354 354 353 351 349
361 359 355 356 356 360 363 361 361 357 352 352 356 355 352 353 353 354 356 354 355 355 356 355 354 354 354 353 352 354 354 353 353 354 355 355 355 354 353 353 353 352 350
362 363 356 355 358 360 359 358 358 351 351 351 352 352 352 352 353 354 355 357 355 354 354 355 356 357 356 356 355 355 354 354 356 356 357 358 356 355 354 354 353 352 351
363 361 356 357 361 357 357 356 355 355 350 350 348 351 353 351 353 350 354 357 355 356 354 356 353 355 356 357 357 356 356 357 359 358 358 357 357 356 355 355 354 353 352
361 361 359 360 358 355 355 355 356 355 353 352 346 347 352 353 356 355 353 352 355 358 357 360 358 354 356 353 354 355 356 356 358 359 361 360 359 359 358 357 355 353 352
363 364 358 357 359 356 359 358 356 354 349 355 346 344 345 348 349 353 354 354 353 355 358 361 359 356 356 357 356 356 356 356 357 358 361 361 360 359 358 358 357 356 353
362 362 362 356 359 355 360 360 358 350 350 353 343 341 337 340 344 348 351 351 352 354 356 355 359 362 360 356 356 358 358 358 358 359 361 361 360 359 357 357 356 356 355
363 363 362 363 362 359 353 360 358 355 346 353 354 345 337 333 340 345 348 348 352 352 354 356 357 359 363 359 359 360 360 357 356 357 359 361 360 360 360 357 356 355 355
363 363 364 364 365 359 360 359 357 356 355 344 350 352 354 350 337 336 344 345 348 346 350 353 352 353 360 356 363 359 357 355 355 355 357 360 360 360 361 361 359 356 355
365 360 363 364 364 359 362 360 360 359 352 349 348 349 353 350 353 342 335 340 343 347 350 354 352 355 358 359 357 357 355 352 352 353 355 355 355 357 358 360 361 360 360
360 364 364 365 365 362 362 361 363 362 359 356 351 351 347 344 343 346 342 342 342 346 350 352 353 354 357 359 359 355 356 353 351 350 349 350 352 354 357 358 359 359 360
355 365 366 368 361 363 363 363 361 360 360 356 359 349 354 352 353 352 346 342 343 346 348 351 354 356 355 359 359 357 358 350 348 345 344 346 348 350 352 353 355 356 357
356 361 366 363 362 363 364 364 357 356 360 356 359 360 352 355 355 355 349 345 342 344 346 349 355 354 354 357 357 359 361 350 347 344 343 343 344 346 348 349 350 350 350
356 362 364 360 362 364 366 366 357 361 361 361 359 361 357 352 354 355 354 351 344 337 340 350 346 355 354 355 358 363 364 352 349 347 343 341 341 343 344 345 345 345 345
361 361 364 364 361 364 365 366 360 363 361 356 355 360 361 353 354 354 353 351 349 344 338 344 349 354 360 359 360 364 364 353 352 349 343 341 340 341 342 342 342 342 342
362 365 365 365 361 362 365 366 363 361 359 359 360 361 362 363 355 351 352 351 349 348 343 344 348 354 363 363 364 367 365 362 354 348 344 341 339 339 339 338 338 338 336
360 363 366 366 364 362 364 365 361 357 360 359 359 361 360 358 362 361 353 359 356 356 349 353 356 350 360 363 365 367 361 357 359 349 344 340 339 338 336 333 330 328 326
360 360 362 363 364 361 363 367 364 362 362 361 361 361 360 360 360 356 358 354 354 355 355 351 349 352 353 357 361 367 364 364 355 349 342 340 341 340 332 326 324 322 320
359 358 359 361 362 362 360 363 364 364 363 363 364 363 362 360 361 362 359 361 361 359 360 353 350 350 352 360 358 353 349 351 351 354 352 347 343 339 330 325 326 324 321
359 360 358 358 359 359 358 360 361 364 365 364 364 365 364 359 349 352 357 365 365 359 352 350 348 349 349 349 354 350 348 349 356 353 351 354 353 362 346 332 332 326 323
359 360 358 357 356 351 340 338 353 364 362 364 362 364 365 354 353 342 341 341 351 361 358 350 345 345 360 356 351 349 348 346 344 354 356 350 355 361 366 364 325 324 322
357 361 359 358 359 359 334 332 340 356 358 362 364 362 360 358 356 363 344 338 339 335 339 358 357 357 360 360 363 360 363 355 353 354 357 350 356 359 369 338 325 323 321
357 357 358 360 360 359 333 331 334 356 359 363 363 362 364 364 361 360 362 361 362 363 360 356 358 359 363 364 365 365 365 364 360 357 364 347 355 357 367 359 326 324 321
358 357 357 358 360 360 330 328 336 354 353 359 363 365 367 366 349 334 360 359 361 361 344 336 337 336 334 332 341 357 352 348 344 343 351 347 351 356 361 362 339 324 321
356 355 355 358 349 359 335 324 332 351 351 349 358 364 339 353 336 329 362 362 359 356 353 355 358 351 341 353 333 356 357 350 346 341 351 350 350 353 353 365 366 340 340

GFSMA_sfc_thetae_087.txt.gz
Theta_e
351 351 354 355 355 356 356 359 356 355 354 354 349 346 345 347 348 348 349 356 356 355 354 354 353 351 351 353 351 351 351 351 352 352 353 353 353 354 355 354 353 351 349
361 353 356 354 353 356 353 355 355 354 349 351 354 350 348 348 350 349 350 350 356 355 353 353 352 352 352 351 352 352 353 352 352 353 354 354 355 355 354 353 353 352 351
361 360 358 356 357 358 360 358 355 355 348 352 352 350 349 351 351 352 352 354 354 356 356 355 354 353 353 353 352 353 353 354 354 355 356 356 357 355 354 353 353 352 352
362 365 356 356 355 359 358 361 355 352 351 352 351 350 349 350 352 353 351 354 352 355 356 356 356 356 356 356 356 356 356 356 356 356 357 357 356 356 355 354 354 354 352
360 361 354 357 361 355 356 351 352 351 353 351 348 347 348 347 352 348 350 352 350 352 354 358 357 356 357 357 358 357 356 356 357 358 359 358 357 357 357 356 355 354 353
359 366 361 358 360 354 356 354 362 360 349 352 344 344 346 347 349 348 349 350 352 354 353 355 358 356 359 358 357 356 356 357 358 359 361 362 362 361 360 359 358 357 355
361 364 359 359 358 353 358 357 354 355 348 350 347 347 343 346 348 347 350 350 350 351 351 354 356 354 356 361 360 358 357 358 359 360 362 362 361 361 360 357 357 358 357
361 361 363 357 358 356 360 359 358 355 350 349 349 343 335 339 342 344 346 346 348 350 350 353 352 356 357 356 361 361 362 360 360 360 362 362 362 361 360 358 356 356 356
360 362 361 353 361 362 354 360 358 355 344 345 353 346 341 335 339 344 346 344 348 347 349 350 350 354 358 357 359 363 362 360 360 359 361 362 361 361 360 359 358 357 356
362 361 361 361 364 362 361 359 355 361 357 345 343 347 354 352 343 335 341 341 344 345 347 348 348 352 356 357 358 361 361 358 356 356 356 358 359 359 360 360 360 359 358
362 360 363 363 361 359 363 362 362 361 353 349 350 345 352 345 349 345 335 338 342 345 348 350 349 351 355 357 356 356 357 353 354 353 355 355 356 358 359 361 361 361 361
358 362 362 365 366 363 363 360 363 362 362 361 354 351 351 343 344 345 339 343 341 345 348 349 351 353 355 357 356 359 357 354 352 351 350 351 353 355 358 359 359 360 361
354 365 365 365 361 365 363 364 366 363 360 357 361 350 359 347 347 346 345 340 341 344 347 349 352 355 353 356 359 361 362 354 350 347 346 348 350 351 352 354 355 356 358
355 370 365 363 363 362 362 364 359 356 364 357 360 365 357 348 348 348 350 343 341 340 345 351 351 353 353 354 356 359 360 354 350 348 346 345 346 347 348 349 349 350 350
355 360 362 362 362 363 364 365 358 360 362 360 360 362 357 352 348 348 348 347 343 338 338 352 346 356 356 355 359 360 364 354 350 348 346 344 343 344 345 345 346 345 345
359 353 361 362 362 363 362 365 364 366 362 358 354 366 365 351 352 350 349 348 347 343 338 344 345 355 359 358 360 364 362 354 353 351 346 343 342 343 343 343 343 342 341
362 362 366 362 364 363 364 366 368 363 361 362 363 361 364 369 355 349 349 348 347 347 341 344 347 356 370 367 365 368 364 367 359 354 346 343 342 342 341 340 339 336 333
361 362 362 364 362 362 367 365 360 357 358 358 358 360 359 355 368 367 354 365 356 360 349 356 356 350 361 368 370 373 364 359 360 350 343 341 341 340 338 334 331 327 326
363 358 362 366 361 362 365 365 364 363 360 360 359 361 360 362 365 359 363 354 351 355 356 351 349 351 353 355 359 369 370 367 359 350 341 342 342 338 333 327 325 322 321
364 363 363 366 364 363 362 362 363 364 365 362 363 363 363 361 366 366 362 368 363 360 358 350 348 349 351 361 356 353 352 353 352 351 351 348 343 340 331 326 325 324 321
364 364 364 364 365 359 357 364 364 362 366 363 366 366 366 360 351 355 356 365 367 360 352 348 346 346 347 350 354 351 349 351 357 353 349 351 350 355 343 328 332 326 323
364 368 364 364 363 353 340 338 355 362 365 365 364 367 370 355 353 342 341 341 351 363 365 350 345 344 362 355 349 348 349 346 344 355 354 351 354 351 359 359 329 325 323
362 366 366 365 365 366 336 332 339 356 361 365 367 366 365 356 357 366 345 340 341 337 339 361 362 361 361 366 366 365 359 358 352 355 357 351 354 351 358 335 326 324 322
359 363 362 366 367 365 335 330 334 358 360 363 365 369 368 368 367 365 366 363 363 364 362 355 358 362 365 369 369 366 367 369 363 363 365 350 351 351 357 347 326 324 322
362 359 360 362 365 366 333 328 335 355 353 358 362 365 365 369 352 339 363 364 365 366 346 339 343 342 341 337 343 357 351 347 344 345 351 345 347 351 354 352 334 324 322
356 362 360 362 351 364 338 326 332 354 355 354 360 362 340 351 338 330 363 364 361 363 365 360 359 349 342 352 334 353 355 349 346 345 352 347 347 349 346 355 349 333 332

GFSMA_sfc_thetae_090.txt.gz
Theta_e
354 348 352 346 351 351 350 354 352 353 356 350 348 347 346 348 346 350 352 360 359 357 355 355 351 351 351 353 350 350 349 350 351 352 353 354 354 355 354 352 352 351 350
364 360 359 348 350 350 354 345 355 348 357 354 351 348 348 349 353 345 348 355 360 359 356 355 353 351 351 351 351 352 353 354 354 354 355 355 356 356 354 353 353 352 351
353 347 357 355 350 355 357 351 354 354 357 354 354 351 350 350 350 352 347 347 354 360 359 359 355 354 354 354 354 354 354 355 355 355 357 357 357 357 355 354 354 353 352
366 365 357 353 364 359 359 354 357 353 346 354 351 350 353 351 353 352 353 353 350 349 358 360 359 358 357 357 357 357 358 359 359 360 360 359 359 359 358 357 356 355 355
364 356 354 356 367 360 347 356 345 355 354 350 346 352 352 350 353 349 351 354 349 353 353 358 360 360 358 359 359 359 360 360 360 360 360 361 362 361 360 359 359 358 357
361 354 358 362 353 358 354 354 359 348 354 346 344 345 347 349 352 351 351 351 352 353 355 356 355 355 359 361 362 362 361 361 361 361 361 361 362 362 361 360 359 359 358
360 354 359 364 355 351 359 364 360 358 355 353 353 352 348 348 348 351 350 348 352 353 353 355 358 356 353 361 362 361 361 362 363 363 362 361 362 361 360 359 358 357 357
367 358 352 356 359 354 365 363 360 351 356 345 349 350 337 343 346 343 349 347 349 351 352 354 355 356 356 356 357 361 362 363 364 364 364 362 362 361 360 359 357 357 357
367 366 361 351 359 362 358 364 361 354 347 355 352 350 338 336 346 346 346 347 347 351 350 350 352 356 357 358 363 362 363 360 362 363 363 361 360 360 359 359 358 357 357
366 366 366 356 361 355 352 363 361 349 350 352 354 351 353 346 343 337 345 343 349 345 347 353 349 355 356 358 365 364 364 360 358 357 359 360 360 360 361 360 360 358 358
367 365 367 364 359 360 353 358 363 365 361 353 342 353 352 354 346 346 339 340 346 349 348 352 351 352 356 357 356 356 357 352 353 354 355 357 358 359 360 361 361 360 361
362 367 365 368 367 354 358 358 366 366 365 363 360 353 349 344 342 345 342 342 342 345 352 353 353 355 357 361 358 359 357 354 352 352 352 353 355 357 358 359 359 360 361
356 362 369 371 364 364 364 367 370 364 366 362 364 358 359 341 348 352 348 346 338 347 350 353 354 354 353 356 359 358 364 357 351 349 348 350 351 352 353 354 355 356 358
356 364 364 368 370 367 367 367 365 363 364 363 362 365 360 358 354 354 352 348 343 345 350 351 353 355 358 358 358 358 359 359 351 348 347 348 347 348 349 350 350 350 351
353 356 360 366 369 365 365 368 364 364 364 364 364 364 363 357 351 352 351 350 347 338 339 350 352 359 359 360 361 359 363 357 350 348 347 346 345 344 346 346 346 346 345
350 352 352 352 364 367 364 365 363 362 363 364 359 363 362 357 358 354 349 354 353 348 341 348 348 359 362 358 361 359 364 354 353 351 349 345 345 344 344 344 344 342 338
356 351 338 340 358 365 367 367 362 357 360 360 364 361 362 363 359 357 357 354 354 352 346 348 356 356 358 359 358 362 364 364 361 353 348 346 343 343 343 342 339 335 331
369 363 354 357 362 366 363 362 363 360 359 360 361 361 359 358 363 363 358 356 356 357 351 347 351 350 352 354 363 365 362 360 359 357 348 345 343 342 339 336 332 328 326
366 363 364 366 366 364 366 363 361 364 361 361 362 362 361 361 360 358 362 358 355 355 355 352 348 357 353 354 355 361 364 364 366 356 348 346 345 338 335 329 326 323 322
365 364 365 365 364 363 365 365 365 362 362 360 363 363 363 362 362 362 360 359 358 358 356 355 351 349 351 354 359 356 353 352 352 356 353 346 342 339 333 326 325 324 321
365 365 365 364 366 363 361 361 362 364 362 361 363 364 363 361 355 358 360 360 359 357 354 351 349 351 350 352 349 351 348 353 352 354 352 352 349 346 333 327 330 328 323
364 365 363 363 361 358 342 338 355 360 363 362 359 362 364 357 352 342 341 341 350 358 356 356 352 347 349 355 355 353 351 345 342 359 352 350 351 350 351 341 335 328 324
364 362 360 364 361 363 341 333 336 357 362 361 363 360 358 356 351 360 343 339 339 337 341 350 350 353 354 356 359 357 355 355 352 352 354 348 355 352 357 338 329 325 323
358 361 360 361 361 362 339 335 335 350 355 357 362 363 362 360 359 361 362 361 357 357 354 348 348 349 352 356 357 356 355 357 359 360 360 350 356 352 348 332 326 325 323
345 355 358 360 361 360 334 329 335 354 353 353 355 359 359 361 349 339 355 358 360 361 348 340 341 341 339 338 344 355 351 348 343 344 350 345 343 348 352 337 328 325 322
342 348 350 358 350 357 339 326 331 355 354 354 355 355 339 346 335 331 351 356 352 354 356 358 356 344 339 345 334 348 354 348 345 343 348 347 346 346 343 353 339 326 325

GFSMA_sfc_thetae_093.txt.gz
Theta_e
342 347 347 339 346 346 344 346 345 347 351 343 337 341 344 344 346 350 349 358 358 358 354 353 352 351 351 352 351 351 351 351 351 352 353 354 354 354 353 352 351 351 350
343 346 345 345 346 345 338 346 344 345 346 341 337 339 340 343 344 346 349 352 360 360 358 357 355 353 352 351 352 353 354 354 354 354 355 356 356 357 356 354 353 352 351
348 349 346 344 346 346 348 346 345 349 345 344 344 341 339 341 342 343 346 349 356 360 356 356 357 355 354 354 354 354 356 358 356 356 358 357 357 358 356 355 354 354 354
353 352 349 346 347 349 350 342 349 346 340 340 340 339 343 344 343 341 341 345 348 349 358 361 361 359 356 357 358 358 360 360 360 360 361 360 359 361 360 359 358 358 356
351 351 347 346 352 344 344 346 340 343 343 340 342 343 342 341 342 346 343 344 343 346 348 356 360 360 358 359 360 361 362 362 360 360 361 361 361 361 361 361 359 359 358
350 347 348 351 350 344 345 347 343 342 342 338 342 344 339 342 342 341 341 346 344 347 347 347 352 354 360 361 363 364 364 363 361 361 361 360 361 360 360 360 359 359 359
346 343 348 350 352 345 344 345 348 343 345 342 338 339 338 338 340 342 342 343 343 348 349 349 349 349 350 359 361 363 363 363 364 363 362 360 360 360 359 359 358 358 358
350 352 346 349 347 347 348 349 346 344 343 338 336 338 329 332 337 337 340 342 341 345 347 347 349 350 348 348 352 360 362 363 365 365 364 362 360 359 359 357 356 357 357
354 350 351 346 346 346 345 347 342 339 335 342 339 338 331 329 335 334 334 337 334 340 343 344 347 346 346 350 356 358 362 359 362 364 364 362 359 359 359 359 358 357 357
355 354 346 343 351 346 344 348 351 344 340 338 342 344 340 338 332 327 334 332 335 338 338 340 342 345 346 347 358 360 360 360 360 360 360 362 361 360 361 361 359 358 358
354 356 353 351 348 345 345 346 350 348 349 346 340 344 340 342 339 335 327 327 334 337 338 339 343 344 347 348 350 352 362 358 354 355 357 358 360 360 361 362 361 360 360
352 354 355 352 351 344 342 349 348 350 348 347 350 345 338 335 335 338 333 332 330 335 338 342 339 343 346 349 354 356 358 354 352 352 352 354 356 358 357 358 359 360 361
349 349 353 353 353 349 349 350 352 347 351 347 348 349 348 346 339 342 336 337 333 336 338 341 341 343 348 350 348 356 359 356 351 348 348 349 351 353 354 354 356 357 358
348 355 354 355 354 354 352 353 349 350 348 348 346 348 349 348 347 341 337 334 330 333 338 335 342 345 347 349 353 356 352 357 353 348 347 347 348 348 349 350 350 350 350
356 357 355 355 355 354 352 353 350 351 349 348 347 349 348 349 344 346 344 336 334 327 329 335 344 345 348 353 354 351 349 354 351 348 352 351 346 346 346 346 346 345 343
349 350 350 352 353 355 353 352 350 350 350 350 350 346 348 348 347 347 347 344 342 335 329 337 337 349 352 350 353 349 349 353 350 349 352 350 344 345 344 344 344 341 337
349 346 343 344 345 350 353 351 350 349 347 348 349 349 346 348 347 348 350 347 344 343 335 338 346 346 342 340 343 347 354 354 353 349 352 348 344 345 342 343 341 336 333
348 345 337 334 338 349 354 353 351 351 348 347 348 349 347 351 348 351 347 346 346 343 339 334 338 340 343 345 346 350 357 358 354 356 354 350 344 344 338 338 334 331 328
351 349 348 343 349 352 354 352 351 351 351 350 351 350 350 350 347 347 344 347 346 349 347 344 343 346 347 345 344 346 349 354 354 353 347 342 340 339 335 332 328 325 322
355 354 353 353 355 354 354 355 352 351 351 351 354 354 353 350 349 349 348 347 347 346 346 345 343 343 343 347 347 346 340 343 345 348 347 341 340 339 334 329 326 325 321
357 355 353 354 356 355 355 354 354 353 350 350 352 354 354 355 352 351 353 349 348 347 347 344 343 343 340 341 343 345 343 344 342 340 345 345 343 340 335 330 331 330 324
352 353 354 355 353 357 345 342 350 352 355 352 350 352 354 352 351 344 343 345 350 347 344 344 344 343 341 341 345 344 345 342 339 347 346 347 348 348 347 336 333 329 324
349 350 351 349 352 355 341 337 336 345 351 351 353 352 352 356 349 353 343 338 337 336 340 343 340 339 340 343 345 344 342 344 344 349 347 348 350 349 352 343 331 327 324
339 342 347 352 351 353 339 331 336 340 342 346 351 355 353 351 349 350 353 353 348 347 344 341 343 345 344 344 345 346 345 346 349 351 352 344 346 342 344 332 329 326 323
336 339 342 345 350 349 334 330 333 344 343 345 347 349 353 354 345 337 346 347 350 353 346 337 338 337 336 336 340 348 344 341 342 344 341 338 342 335 341 335 325 325 321
332 337 337 342 340 349 335 328 329 343 346 347 348 347 335 342 334 331 345 348 348 349 349 353 345 339 336 342 334 342 347 341 343 342 343 339 337 337 337 340 326 322 321

GFSMA_sfc_thetae_096.txt.gz
Theta_e
341 343 343 339 344 342 340 341 343 343 344 347 341 344 343 344 345 349 349 354 357 358 352 352 352 352 352 352 350 351 352 352 353 353 354 354 354 354 354 353 352 352 352
340 338 342 337 343 341 335 340 340 339 343 339 338 343 342 343 345 348 347 349 357 357 355 354 352 352 353 353 353 353 353 354 354 354 354 355 356 356 356 355 354 353 352
342 342 342 342 343 344 345 342 343 346 345 340 338 337 340 342 343 345 347 348 353 358 356 356 357 355 353 353 353 354 355 355 356 356 357 357 357 357 357 356 355 355 354
346 344 342 341 343 344 345 342 343 342 339 338 337 337 338 339 340 341 343 346 350 351 355 358 360 359 356 356 357 357 358 361 361 360 360 359 359 360 361 361 359 359 357
350 346 344 344 345 344 344 342 339 340 340 340 339 340 341 339 340 341 339 341 343 346 345 353 360 361 357 359 360 360 362 363 362 361 361 360 360 361 361 361 361 360 359
348 347 345 347 346 342 343 344 340 341 338 336 340 342 339 339 339 340 339 342 341 342 342 344 347 353 360 360 363 365 365 364 362 361 360 360 360 360 360 360 360 360 360
344 345 346 348 346 343 341 342 345 339 341 339 335 336 336 335 338 340 339 341 342 344 344 345 345 347 348 359 360 361 363 364 364 364 363 361 360 360 359 358 357 358 358
344 347 345 345 345 345 345 345 343 340 339 336 333 334 327 328 333 337 339 340 339 343 346 347 347 347 346 347 350 358 361 363 363 365 365 362 360 359 358 357 356 357 357
351 345 347 346 343 343 342 344 340 335 334 339 339 334 328 325 331 331 332 337 337 337 341 344 345 347 348 347 352 355 360 358 362 364 365 362 359 359 359 358 358 357 356
351 349 349 344 347 343 342 345 345 342 339 339 336 342 337 334 330 324 330 332 331 334 338 340 342 344 344 343 351 357 357 357 360 363 363 362 360 360 360 361 359 358 358
351 352 344 344 345 343 342 343 347 345 345 343 340 341 337 338 335 330 323 326 330 333 335 336 338 340 342 344 345 350 356 357 356 357 357 359 360 361 361 362 361 360 361
348 351 351 348 345 344 343 345 343 347 345 346 347 342 338 336 335 333 329 329 326 330 335 337 338 340 341 344 352 354 355 354 351 351 351 354 357 359 359 359 360 360 360
347 346 350 348 346 342 341 345 348 344 347 344 345 346 345 344 340 337 332 331 330 334 336 339 339 341 344 346 348 354 354 351 350 347 346 348 351 353 355 355 356 357 358
347 348 351 351 350 350 349 349 346 348 346 345 343 343 344 345 343 340 337 329 326 328 332 336 341 343 344 347 351 355 350 347 348 345 344 345 346 347 349 350 350 351 349
350 352 352 352 352 352 349 350 348 348 347 345 341 346 345 345 342 343 339 337 329 325 325 332 334 342 346 349 349 349 347 345 346 345 343 343 345 345 345 345 346 346 342
351 351 352 352 352 352 351 350 348 347 346 346 347 344 343 346 346 344 345 343 339 332 327 333 337 343 348 346 347 347 345 347 346 344 343 343 343 342 343 343 343 343 337
347 347 348 349 349 351 351 348 347 348 345 346 345 346 345 344 344 345 347 343 341 339 332 334 341 341 340 340 345 346 349 349 353 345 344 341 339 341 341 340 340 338 333
346 344 343 343 343 345 349 350 348 349 346 344 345 344 345 347 342 345 344 341 343 341 339 336 337 340 342 345 346 344 349 354 351 348 341 337 336 337 337 335 335 334 328
345 344 339 334 332 339 347 350 350 350 349 347 345 345 346 346 344 343 343 341 342 345 343 341 340 343 343 344 343 345 346 345 348 346 340 339 337 337 334 331 330 326 322
347 346 346 343 342 346 349 351 350 347 347 349 349 350 348 348 346 345 344 344 342 342 341 340 339 340 340 344 343 342 343 342 344 347 343 341 338 338 335 330 329 326 320
350 351 350 350 350 353 354 350 352 350 347 346 348 349 351 351 347 345 348 346 345 343 342 341 340 340 340 339 339 342 340 341 340 339 344 343 344 345 344 335 334 332 324
347 350 351 349 348 353 344 339 348 350 351 349 347 348 349 349 347 341 340 342 346 345 342 340 339 338 338 338 340 341 338 337 334 344 343 346 348 348 348 345 336 329 325
339 340 345 348 348 350 337 333 337 343 348 349 350 349 349 353 347 351 344 338 336 336 340 342 339 338 337 338 338 336 337 338 338 343 344 346 346 345 347 344 332 327 324
336 338 339 341 343 350 335 331 334 340 341 341 346 349 350 351 349 348 347 347 348 346 341 340 343 345 343 345 338 340 338 340 343 345 348 340 342 340 340 339 328 327 323
332 333 337 338 340 342 330 326 331 344 343 343 344 345 348 350 341 334 344 346 346 346 343 332 333 333 333 332 336 343 340 338 340 340 340 338 339 336 336 339 328 325 321
332 334 334 336 334 340 323 321 327 341 341 344 346 347 334 340 331 328 343 347 346 347 348 348 350 339 333 339 330 340 345 340 340 339 340 338 335 335 333 339 329 323 321

GFSMA_sfc_thetae_099.txt.gz
Theta_e
340 341 340 338 342 340 337 339 341 341 342 342 345 344 342 342 344 346 345 353 356 357 352 351 351 351 351 352 352 352 353 353 354 354 354 354 354 355 355 355 353 353 352
340 339 338 333 340 339 334 338 338 339 343 337 339 342 341 342 343 346 348 347 354 355 354 353 352 352 352 353 353 354 354 354 354 354 354 355 355 355 356 356 355 354 353
339 337 339 339 341 342 342 341 342 343 340 338 336 339 340 340 342 345 346 345 348 356 356 356 356 355 354 354 354 354 355 356 356 357 358 357 357 357 357 357 356 355 355
344 341 340 340 342 342 342 341 339 341 338 336 334 335 337 339 340 341 343 344 346 349 353 357 358 357 357 357 357 358 359 361 362 361 361 360 359 360 361 361 361 360 359
348 343 341 341 342 342 341 343 339 338 338 337 337 338 339 340 338 340 338 340 341 346 344 349 358 360 359 359 359 361 363 363 363 362 361 361 360 361 360 361 361 361 361
348 344 343 345 345 342 340 342 338 339 338 334 338 339 338 338 338 338 337 339 338 339 340 341 342 347 357 359 362 364 365 365 364 364 362 361 360 360 360 360 359 359 359
345 344 344 344 344 340 340 342 344 337 338 337 334 335 334 335 336 337 339 338 341 342 341 342 342 344 345 353 359 361 361 364 365 365 364 362 361 360 359 358 357 358 358
341 345 343 344 344 343 343 343 342 337 335 335 333 330 325 327 332 334 337 338 337 340 343 344 344 345 344 345 348 358 360 361 362 365 365 363 361 359 359 357 357 357 357
346 347 344 344 343 342 341 342 338 334 333 337 338 333 326 323 328 328 330 336 337 337 338 341 344 345 346 346 350 351 357 357 362 364 366 364 361 359 359 358 358 357 357
349 346 347 345 343 341 340 343 343 341 338 336 335 341 335 332 329 322 327 330 332 333 333 337 340 342 343 343 348 354 355 355 358 362 365 364 362 361 361 361 359 358 358
348 350 347 341 345 342 340 342 345 343 343 341 339 338 334 333 333 327 322 325 328 330 333 334 337 337 338 341 341 346 354 354 355 356 357 358 360 362 363 363 361 361 361
346 349 345 342 343 341 341 343 342 344 342 343 344 340 340 336 334 331 327 328 326 330 332 334 336 337 339 340 348 356 355 352 351 351 351 353 356 359 359 360 360 361 361
345 346 348 346 344 344 342 342 346 344 344 342 342 343 344 342 340 335 330 327 327 332 334 336 339 341 341 343 347 353 354 349 347 345 347 348 350 352 354 355 356 357 356
346 347 348 348 347 344 343 346 345 345 344 342 342 340 343 344 340 339 333 328 325 326 329 333 340 343 344 347 350 354 348 345 344 341 342 343 344 346 349 350 351 351 349
347 348 348 349 349 349 347 347 345 345 345 343 342 340 343 345 342 343 339 336 329 325 325 331 334 341 346 345 346 346 345 345 343 342 341 340 341 342 344 345 346 346 344
345 349 349 350 350 350 349 347 346 345 343 343 344 343 341 344 344 343 343 340 337 331 327 331 336 338 343 344 347 347 345 345 345 343 341 338 338 340 342 343 342 343 340
347 347 349 349 350 349 349 347 346 345 344 342 343 343 343 343 342 343 344 341 340 336 332 336 336 340 339 342 345 345 348 348 347 343 341 337 336 338 339 339 339 340 336
346 346 346 345 346 347 348 348 345 347 346 344 342 342 342 346 341 341 342 339 341 339 337 334 337 339 341 342 344 344 346 349 345 344 339 336 336 335 335 333 332 334 330
344 344 342 341 341 342 343 347 349 347 346 346 346 342 342 343 342 341 340 339 339 342 340 338 337 340 341 341 342 344 345 344 346 345 339 338 338 335 334 331 328 328 324
343 343 342 339 337 334 338 345 347 347 347 347 347 346 345 346 344 344 343 341 340 339 338 338 337 338 339 342 341 339 340 340 342 345 342 341 339 339 336 332 330 328 320
347 346 345 345 343 343 347 346 348 349 346 345 346 347 348 349 346 343 347 345 343 341 340 338 338 337 337 336 335 338 338 338 338 337 340 344 344 348 348 340 339 335 324
339 341 345 347 346 351 342 337 346 348 349 347 346 346 347 346 345 339 338 338 344 343 341 339 339 337 337 337 337 338 335 333 332 340 341 343 345 347 346 344 338 332 325
335 336 338 342 343 345 333 330 334 343 345 346 347 348 348 351 345 348 342 337 336 334 339 345 341 341 338 338 337 334 333 334 334 339 341 342 342 339 341 341 334 329 324
331 333 335 338 339 343 328 327 331 337 341 341 341 345 346 347 348 347 347 346 346 346 342 339 342 346 345 344 339 340 338 336 338 341 344 338 339 339 339 339 329 328 323
330 331 334 335 336 338 326 322 327 339 341 341 342 342 344 344 338 329 341 344 345 346 341 330 332 332 331 330 335 339 339 336 340 341 342 338 337 335 336 337 332 326 321
324 328 330 334 332 338 318 319 327 338 339 340 342 343 330 326 318 318 332 339 340 343 343 342 343 339 332 336 330 338 343 339 340 336 340 338 335 334 333 336 335 326 322

GFSMA_sfc_thetae_102.txt.gz
Theta_e
343 343 342 341 345 343 341 344 344 344 347 344 349 345 347 346 347 350 348 352 355 357 353 351 351 351 352 353 354 354 355 354 355 355 355 354 355 355 355 356 356 355 354
342 344 342 336 345 341 340 344 346 346 345 341 345 346 346 346 347 349 350 351 353 353 355 353 353 353 353 353 354 354 354 354 355 356 356 357 357 357 357 356 356 356 356
342 342 343 344 345 347 347 347 347 347 343 343 344 345 346 345 345 347 350 350 350 354 355 355 356 356 356 355 355 356 357 359 358 359 361 361 360 360 359 360 360 359 359
345 342 343 344 346 347 347 347 344 345 343 343 342 342 344 344 345 345 346 347 348 349 352 354 357 358 358 359 359 360 362 362 363 363 363 362 361 361 361 361 361 361 361
348 346 344 346 347 347 346 346 345 345 344 343 342 344 344 344 345 344 344 344 345 348 349 348 351 354 357 360 361 363 365 365 365 363 364 363 362 362 361 361 361 361 361
351 347 348 349 349 346 346 347 346 344 344 341 341 342 344 345 344 344 344 343 344 344 345 346 347 347 351 355 358 360 362 364 364 364 364 363 362 361 361 360 359 359 359
350 347 349 350 348 346 347 348 348 345 344 342 342 344 341 341 342 343 344 344 345 346 347 347 348 349 349 352 355 356 359 362 365 365 365 362 361 361 359 358 357 358 358
347 348 349 349 350 349 349 349 347 343 341 343 341 336 333 336 339 339 342 343 344 345 346 348 350 352 352 352 354 358 360 361 362 365 366 364 362 360 359 356 357 357 357
346 350 348 348 349 348 348 349 344 343 342 344 344 341 335 332 334 337 339 340 344 344 346 346 347 349 352 352 353 354 354 355 359 363 365 364 362 360 360 359 357 356 357
351 349 350 349 348 347 347 351 347 346 346 344 343 344 342 341 336 334 337 338 339 341 344 344 344 347 350 349 350 352 351 352 356 360 362 362 361 361 362 361 359 358 358
353 352 351 348 350 347 348 350 351 349 350 348 345 344 342 340 339 334 333 336 340 339 340 341 343 344 346 348 348 350 351 354 352 355 357 358 361 362 363 364 363 360 361
351 352 350 346 349 347 346 349 351 351 350 349 350 347 347 343 341 339 334 336 336 341 343 346 347 347 349 350 351 354 355 353 350 350 350 351 355 357 358 360 360 360 360
349 351 351 349 349 349 347 349 351 352 352 350 349 349 349 347 346 342 337 335 335 339 342 346 350 352 351 356 356 354 355 348 346 344 343 346 348 350 352 355 357 356 357
349 352 351 352 351 350 348 348 350 351 351 350 349 348 349 350 347 346 342 340 338 335 338 342 348 353 355 355 355 353 353 344 343 341 341 341 342 344 347 349 352 352 350
350 352 351 352 352 352 350 352 350 350 351 350 349 348 350 350 349 349 346 343 341 336 336 342 344 352 353 354 355 356 356 347 344 342 339 338 339 341 344 345 346 346 345
348 350 348 351 350 353 353 352 352 352 351 350 349 349 349 349 350 349 350 347 344 340 337 340 345 348 352 351 354 356 355 348 345 340 339 337 338 340 341 341 341 341 341
349 349 350 351 352 351 353 352 350 351 350 349 349 350 350 351 348 349 353 348 348 343 341 346 344 350 351 353 355 357 356 359 354 342 339 336 336 338 338 338 336 337 337
350 349 350 351 352 351 353 352 351 350 350 349 349 348 348 348 349 349 349 349 348 348 345 343 346 347 350 353 353 354 355 353 354 345 338 336 335 336 335 334 332 331 332
350 347 347 349 349 349 350 350 351 352 349 349 349 348 348 348 349 349 348 346 346 347 347 346 345 348 349 350 352 354 353 355 351 345 340 338 337 337 334 332 329 327 325
350 347 347 346 344 345 345 346 349 351 352 352 350 350 349 349 350 352 349 350 350 347 347 346 345 346 347 352 349 346 348 352 349 351 346 341 340 340 338 334 332 331 322
343 349 348 348 347 344 343 345 346 349 352 352 351 351 353 350 343 346 353 355 352 350 349 347 347 346 347 347 348 348 346 347 349 349 348 352 354 356 354 345 344 339 326
339 341 343 347 348 350 337 334 341 351 353 352 352 354 354 348 348 338 336 338 347 352 351 348 348 347 349 347 348 347 347 345 343 352 350 351 356 354 353 351 338 331 328
337 337 338 341 342 346 327 328 334 344 349 352 352 352 353 353 349 354 344 336 337 334 339 353 350 351 349 352 350 348 346 344 345 350 350 349 354 351 354 349 333 329 326
333 334 336 338 339 341 324 323 328 344 345 346 345 346 347 349 349 346 351 352 352 353 351 346 348 352 354 355 352 352 350 347 348 349 351 345 353 350 353 352 331 328 325
325 330 334 336 339 328 319 322 333 343 342 343 346 345 343 344 324 324 340 346 348 350 342 331 331 331 330 329 334 344 345 345 344 348 352 349 350 347 349 351 350 327 323
323 328 335 334 327 330 314 316 325 329 326 329 335 337 326 326 319 320 330 337 339 343 345 345 347 344 339 343 330 342 347 344 345 344 352 347 347 347 344 350 350 347 343

GFSMA_sfc_thetae_105.txt.gz
Theta_e
352 352 352 351 351 351 354 356 355 355 355 354 356 355 356 355 350 351 350 349 354 356 356 352 351 352 352 353 354 354 355 355 355 355 356 356 357 357 357 357 356 357 357
353 351 348 350 348 352 354 357 358 356 351 352 354 355 355 355 352 352 353 354 352 353 353 354 355 356 356 356 356 355 356 356 357 358 359 360 360 359 358 359 359 358 360
353 354 352 352 354 358 359 359 359 354 351 352 353 355 356 355 352 352 355 355 354 351 354 356 356 356 357 357 358 359 361 362 361 361 363 363 363 363 362 362 361 362 362
354 353 353 353 355 359 359 357 354 350 351 352 353 353 355 354 354 353 354 354 355 353 353 352 353 355 357 359 361 362 365 365 365 365 364 364 364 364 363 363 362 362 362
358 356 354 355 358 356 358 355 355 356 354 352 351 354 354 352 354 351 354 356 355 354 355 357 352 352 354 357 359 362 364 365 365 365 364 364 364 363 363 362 361 361 361
359 358 357 359 360 355 356 357 356 356 355 352 347 350 355 356 357 355 354 354 356 355 355 356 357 357 353 354 357 358 360 363 365 365 365 364 364 362 361 360 359 360 360
359 358 359 360 358 356 358 359 358 355 351 354 352 353 352 353 354 354 354 353 354 356 356 357 358 357 358 357 357 357 359 361 364 365 365 364 363 362 360 359 358 359 360
358 358 361 359 360 357 360 360 357 351 353 354 349 350 341 343 350 350 352 352 354 355 355 355 356 359 360 358 360 359 360 359 360 364 365 363 362 362 360 359 358 358 358
355 358 359 360 362 360 355 358 357 356 349 353 355 349 342 337 346 348 349 351 353 355 355 355 353 355 359 359 359 359 358 355 358 363 364 363 361 361 361 360 359 358 358
357 357 358 359 361 358 359 360 359 358 358 352 355 352 354 352 345 339 347 348 350 348 351 351 351 353 357 356 360 356 353 353 357 360 362 362 361 362 363 363 361 359 359
360 358 359 359 359 357 360 362 361 361 358 354 353 355 354 353 353 346 339 344 349 350 354 355 353 354 358 360 358 357 354 355 354 355 355 356 357 360 361 363 364 362 361
363 360 360 359 360 359 358 359 363 360 359 358 357 355 351 348 348 347 344 347 345 350 354 358 359 358 360 359 360 356 358 353 350 349 349 351 353 354 357 359 360 361 362
356 361 363 359 355 360 358 360 362 362 361 359 360 353 357 354 356 354 349 346 345 348 352 357 358 359 357 361 361 355 357 348 346 344 344 346 347 350 353 354 356 359 358
361 361 363 363 359 359 358 359 358 359 361 360 357 360 357 358 357 355 352 348 344 347 350 350 359 356 358 359 360 357 358 346 345 342 341 341 343 345 347 348 350 352 352
357 360 361 361 361 361 359 359 357 359 361 361 360 360 356 357 359 359 356 353 347 339 341 350 347 358 357 357 359 361 363 348 345 342 340 339 340 342 344 344 344 345 348
360 359 360 361 361 361 362 361 362 362 361 359 358 359 360 358 358 358 357 356 352 346 339 350 349 355 358 356 355 361 361 350 348 343 339 338 338 340 342 342 341 341 345
359 358 359 358 359 360 362 362 361 361 360 360 359 359 359 362 355 356 358 358 354 352 344 345 353 356 360 361 361 364 360 359 353 343 340 338 336 337 339 339 338 337 342
360 360 360 360 361 360 361 362 359 359 359 358 358 358 358 356 358 359 355 358 354 357 351 350 356 355 360 364 364 365 359 359 362 347 339 337 336 336 335 335 333 332 335
360 359 357 358 359 360 360 361 361 361 360 359 359 357 357 358 359 358 359 356 354 355 356 353 353 357 358 360 361 363 363 365 359 349 342 341 340 338 336 333 331 330 329
360 359 358 357 358 357 356 356 356 357 359 358 360 360 359 358 358 360 357 360 361 360 359 356 353 353 355 360 359 354 353 357 356 357 350 345 341 342 339 335 334 334 326
355 358 358 358 357 354 353 355 355 355 355 357 360 360 362 356 346 350 359 363 360 359 353 349 350 351 351 350 352 354 352 353 355 355 356 355 355 357 355 346 347 341 331
350 353 354 356 355 353 329 332 345 358 360 360 359 362 363 353 350 337 337 337 347 359 360 358 355 351 356 356 355 353 353 350 345 355 356 353 357 356 357 356 336 332 330
345 345 348 350 350 344 324 326 334 357 357 357 358 358 358 357 354 359 346 338 338 333 339 358 356 358 358 359 360 357 356 354 352 355 357 351 356 355 358 354 336 331 329
339 342 346 347 338 328 319 323 331 355 355 352 351 351 351 345 331 336 352 356 358 361 362 358 359 359 361 362 362 360 358 357 357 357 364 350 355 354 358 359 341 333 329
334 340 342 335 329 322 314 317 332 338 338 339 341 337 336 331 324 322 341 343 348 355 344 334 330 328 328 328 335 350 351 351 349 351 358 354 354 354 356 356 357 332 326
326 323 323 322 316 316 310 311 322 329 330 331 333 335 325 323 315 315 330 332 333 339 343 345 350 350 343 352 332 352 353 350 351 347 357 353 352 352 348 355 357 359 359

GFSMA_sfc_thetae_108.txt.gz
Theta_e
354 352 354 353 354 358 356 359 357 357 356 354 353 353 352 352 351 347 345 351 353 353 355 353 352 352 353 354 355 356 356 356 357 358 358 359 359 359 358 359 359 359 359
355 352 351 351 352 358 358 359 358 353 352 351 353 353 353 352 354 354 349 351 353 353 352 353 355 356 356 357 357 358 359 360 360 360 362 363 363 362 362 361 361 361 362
359 357 353 352 355 360 362 361 356 356 350 349 353 352 353 354 352 353 353 351 353 352 354 355 356 357 357 358 360 361 363 365 364 365 366 366 365 365 365 364 364 364 364
358 358 352 354 358 361 360 357 353 349 351 351 352 353 353 354 354 354 354 356 355 352 353 354 353 354 355 357 360 363 366 367 366 366 366 366 366 366 365 364 364 363 363
361 357 355 357 362 358 357 355 353 355 351 352 349 352 352 352 353 349 353 357 354 357 356 356 354 355 356 359 360 361 363 365 365 366 366 366 366 365 364 363 363 362 361
363 359 357 360 360 356 354 354 358 356 354 352 346 347 351 352 354 354 352 352 355 358 357 360 360 357 359 357 359 360 361 365 365 365 365 365 364 364 363 362 361 361 361
363 363 357 361 360 357 360 362 357 356 349 355 350 345 346 351 352 352 354 357 353 356 356 358 359 360 360 361 361 362 362 364 365 364 364 364 363 363 362 361 360 360 360
363 362 362 359 361 355 356 362 361 350 352 357 348 347 338 340 345 347 352 354 355 357 357 358 360 362 362 359 361 361 362 361 360 364 366 363 363 362 362 360 359 360 360
361 362 361 362 360 361 353 360 359 359 347 355 360 350 337 337 341 344 348 349 355 356 358 359 358 359 362 360 361 364 360 355 358 363 365 363 362 361 362 362 361 360 359
359 360 362 362 365 361 361 360 359 360 361 350 356 356 360 358 341 335 343 346 349 350 354 354 356 357 362 359 364 362 356 356 358 358 359 360 360 361 362 363 363 361 360
360 359 362 363 363 358 363 364 365 364 359 355 353 358 358 356 356 343 337 341 345 354 358 358 357 358 362 361 358 358 359 356 353 354 355 357 356 359 363 363 364 364 363
357 361 362 364 365 362 362 360 366 362 363 361 357 357 352 349 347 347 343 346 346 351 357 358 360 359 360 359 362 360 358 353 350 350 350 351 352 354 357 359 360 363 365
356 359 362 362 359 365 363 363 365 364 361 361 362 355 357 355 354 353 348 346 345 351 354 358 360 359 356 358 358 358 357 349 347 345 345 346 348 350 353 353 354 357 359
354 361 360 359 361 364 362 363 359 358 360 358 358 362 355 357 355 354 350 347 343 345 349 352 357 356 356 356 356 357 353 349 348 344 342 343 343 346 349 349 349 349 351
358 360 360 360 361 361 363 364 356 359 362 361 358 360 357 356 355 355 355 352 346 338 339 352 350 356 356 353 356 358 358 350 350 347 343 341 341 343 345 346 345 344 345
363 361 360 360 362 363 364 363 359 360 360 357 355 360 359 354 355 355 353 352 351 346 341 346 348 355 359 359 357 359 359 353 356 348 343 340 340 341 342 343 343 342 343
366 360 360 361 359 360 363 364 361 359 359 360 359 359 359 361 353 351 352 351 349 348 344 345 349 355 362 362 363 365 361 358 354 344 344 341 340 339 340 340 339 339 340
363 362 361 362 360 360 362 361 359 358 358 357 358 358 357 355 361 361 354 357 356 357 349 352 357 351 358 364 363 366 360 356 357 349 343 341 339 338 338 336 335 336 335
358 359 362 359 357 359 359 360 360 360 359 357 357 357 357 358 358 356 359 354 353 352 354 351 349 351 353 357 359 364 362 363 354 348 343 342 340 340 338 335 334 334 331
359 358 358 360 359 359 358 359 358 358 358 357 358 358 358 357 359 359 357 360 358 355 354 352 349 348 349 358 356 349 348 351 351 352 350 346 343 343 341 338 338 339 331
360 360 358 359 360 361 355 360 360 360 360 359 360 359 359 356 348 349 356 359 361 357 351 349 347 347 347 352 352 350 348 349 354 353 351 354 353 354 354 348 349 342 334
359 360 359 358 358 355 328 331 345 361 360 359 358 360 360 354 352 341 339 338 347 359 356 352 349 349 356 356 353 351 352 350 347 358 358 354 356 353 355 355 339 338 333
353 353 355 355 348 345 322 327 333 358 360 359 360 360 360 353 350 356 347 338 339 335 339 360 357 357 357 366 366 359 360 356 355 357 360 352 356 353 356 354 338 341 333
349 352 344 344 339 329 318 322 333 357 351 347 349 347 344 338 334 336 352 357 359 360 362 359 363 361 364 362 362 363 361 361 359 359 364 349 353 352 356 357 346 339 332
344 337 339 337 329 322 312 314 334 348 346 346 343 336 338 336 317 319 342 347 350 353 342 334 334 332 332 331 337 354 353 356 349 352 359 353 354 353 356 355 357 336 329
328 327 326 324 317 319 308 309 321 338 338 337 340 338 318 321 313 312 334 337 339 343 340 342 347 347 342 350 333 357 357 351 355 349 357 353 353 354 350 356 357 359 360

GFSMA_sfc_thetae_111.txt.gz
Theta_e
351 352 354 352 359 356 352 356 352 352 352 350 349 349 347 348 346 342 342 353 352 353 355 353 352 354 355 356 356 357 358 359 359 360 361 361 361 362 362 361 361 361 362
359 352 353 351 352 359 358 357 358 351 349 347 351 350 349 348 351 348 345 348 352 351 351 352 353 355 356 357 358 360 361 362 363 364 365 365 365 364 365 365 365 364 364
359 357 351 351 352 356 360 356 353 352 346 346 350 351 349 350 349 351 349 348 351 354 355 355 355 356 357 358 360 363 366 367 367 367 367 367 367 367 366 366 366 365 364
359 361 352 351 355 359 355 350 351 346 347 345 348 349 348 349 350 352 351 352 352 351 356 357 355 354 356 358 361 364 366 367 366 366 366 367 367 367 366 366 365 364 363
360 357 352 357 361 353 351 352 349 363 345 345 346 348 349 347 351 349 351 352 352 354 353 359 360 359 359 361 363 366 366 366 365 365 366 366 366 366 366 365 364 363 362
360 361 357 357 362 355 350 357 364 353 351 347 344 346 348 349 350 350 349 350 352 354 353 357 359 358 362 365 365 364 365 366 366 366 365 364 364 364 364 363 363 363 362
361 363 359 358 362 353 357 357 355 355 350 350 349 344 346 350 350 349 350 352 350 351 351 352 359 359 359 364 364 364 366 366 366 365 365 364 363 363 361 361 360 361 361
362 360 364 359 358 354 358 360 362 348 347 352 352 342 337 341 345 346 349 348 351 351 352 355 358 361 362 359 363 366 364 359 361 365 366 364 362 361 361 360 360 360 361
361 363 360 365 361 363 353 359 357 360 351 350 361 354 340 337 339 345 348 348 352 351 354 355 355 356 360 360 362 363 360 358 361 362 364 363 360 360 361 361 360 360 361
359 360 361 361 364 354 367 358 356 364 365 350 350 352 360 357 346 335 342 345 348 348 352 352 352 355 360 358 365 360 360 358 357 358 359 360 360 361 362 362 361 361 361
361 359 362 361 362 359 364 364 361 367 357 360 355 349 356 348 350 343 341 341 344 349 353 353 352 354 359 361 358 358 358 356 354 355 355 355 357 359 362 363 362 362 364
357 361 360 364 365 363 362 360 364 363 366 366 361 361 356 346 347 348 343 343 346 348 351 354 355 355 356 357 359 361 357 354 351 350 350 351 353 355 357 359 360 360 361
354 361 363 363 360 365 363 364 365 364 361 362 365 356 352 354 351 350 346 349 342 348 348 350 354 355 354 356 357 357 360 350 349 347 346 347 349 350 353 354 355 356 356
353 365 361 362 361 362 362 364 359 358 363 358 360 365 356 353 351 351 347 345 342 345 350 353 356 354 357 356 355 356 353 352 349 348 347 345 345 347 349 351 350 350 350
358 360 359 359 360 362 363 365 357 360 363 361 360 361 358 352 351 352 351 349 345 337 338 355 348 363 356 356 357 358 361 354 349 350 348 343 344 345 345 346 347 346 345
363 363 360 359 360 361 363 365 364 362 361 357 354 364 361 354 355 352 350 350 349 345 340 345 346 354 361 358 358 364 360 352 350 355 349 343 344 344 343 344 345 344 344
361 362 362 360 360 360 361 362 366 364 359 360 360 359 359 365 354 350 350 349 347 346 342 346 347 353 367 366 362 365 359 364 354 347 344 345 344 342 341 342 342 342 342
361 361 362 361 360 360 365 361 359 359 359 357 357 358 356 352 363 368 351 364 356 358 346 355 352 351 362 369 369 372 357 354 356 351 346 345 343 341 338 338 338 339 338
361 359 360 361 363 361 362 363 361 360 358 359 359 360 357 357 358 358 360 356 353 353 356 349 348 349 352 354 360 366 368 368 352 348 343 343 344 340 337 335 338 338 334
360 360 361 360 360 361 361 360 360 359 359 357 358 357 359 358 359 360 358 364 362 357 357 350 348 347 349 363 360 350 349 351 351 351 350 346 343 343 340 338 340 342 334
359 359 359 359 360 357 354 355 359 359 360 358 359 359 359 357 348 349 353 363 366 357 352 349 347 346 345 350 349 350 350 352 357 358 357 358 357 355 354 341 349 347 337
358 358 357 358 359 346 328 329 343 358 359 359 358 359 358 359 355 342 341 340 347 357 359 357 350 349 358 356 353 353 353 351 348 359 359 357 360 352 353 354 343 340 339
357 357 357 352 347 339 319 323 333 354 359 359 360 360 359 353 348 353 347 340 339 336 339 356 355 356 357 363 364 359 358 356 353 357 360 355 358 356 357 352 340 338 337
352 353 347 344 339 327 315 318 326 359 353 354 352 352 350 344 329 330 341 353 356 357 362 358 361 360 360 358 357 359 360 361 359 358 361 347 358 356 360 362 341 337 333
339 341 341 333 329 320 311 315 333 353 350 346 337 333 337 332 317 318 339 343 345 350 339 334 335 332 331 331 337 352 353 355 352 353 357 353 353 354 358 357 359 336 331
334 330 324 324 319 319 308 310 322 341 344 342 344 328 317 321 314 314 335 336 333 334 336 341 345 347 340 349 333 351 356 349 345 343 354 348 349 350 346 354 357 360 361

GFSMA_sfc_thetae_114.txt.gz
Theta_e
360 356 360 350 348 351 346 351 351 352 355 353 349 349 347 348 342 341 345 357 357 354 354 353 352 353 355 357 357 358 360 362 364 364 365 365 365 365 365 365 364 363 363
364 359 358 359 346 348 351 351 360 350 356 349 353 351 350 350 353 342 343 349 357 356 353 353 354 355 356 357 359 361 365 366 367 367 367 367 367 367 367 367 366 365 364
368 358 356 358 355 363 364 362 360 354 351 350 351 354 351 351 352 353 344 346 350 359 358 357 358 358 358 359 361 365 367 367 367 367 366 366 366 367 367 367 367 365 365
367 366 361 352 357 357 364 361 356 352 350 352 351 353 353 350 353 353 353 350 349 348 359 362 361 361 360 359 363 366 367 367 366 365 365 366 366 366 366 366 366 365 364
365 365 358 363 365 357 358 357 349 354 343 347 348 351 352 349 354 349 353 355 353 354 353 358 361 361 362 363 367 367 366 366 365 365 365 364 365 365 365 365 364 364 363
366 361 365 360 359 357 346 355 349 356 360 348 344 346 351 353 353 351 352 352 353 354 355 358 357 357 361 367 367 366 366 366 365 365 364 364 363 363 362 361 361 362 362
367 368 364 354 339 348 360 356 356 359 358 345 361 350 351 353 352 352 352 350 351 353 352 354 358 361 356 362 365 366 367 365 364 365 365 363 361 361 360 360 359 361 361
368 364 360 355 350 350 364 361 356 358 358 353 351 352 342 347 348 347 352 349 350 351 351 353 359 359 360 361 361 366 361 361 364 366 365 363 360 359 359 359 358 359 360
366 370 364 359 353 354 358 365 364 360 356 351 358 353 341 338 344 347 348 352 350 354 354 354 355 359 360 360 363 363 361 358 361 363 362 360 359 360 360 360 359 358 359
361 365 368 357 340 341 354 364 363 360 361 355 354 352 339 347 342 341 347 347 350 350 351 353 352 358 359 359 363 360 359 357 356 357 358 358 358 360 361 361 360 359 359
361 361 366 367 351 351 357 365 365 363 361 350 352 359 348 352 345 347 341 341 348 351 355 357 351 355 360 360 363 356 356 355 353 353 354 355 357 359 362 361 360 359 360
362 366 365 368 368 358 361 365 368 365 362 351 350 358 342 340 335 343 338 336 341 349 352 355 357 355 357 357 358 359 358 352 351 351 351 352 354 356 356 358 359 358 358
358 361 366 366 364 363 365 369 368 369 366 363 363 360 343 335 332 337 337 334 334 342 339 337 345 350 358 357 357 356 361 349 349 349 348 349 350 351 353 354 355 355 354
361 365 363 365 365 366 365 368 366 363 365 365 367 366 360 359 354 351 349 341 342 338 332 331 342 348 359 359 361 359 355 350 352 349 347 348 347 347 349 350 351 350 349
359 363 365 364 365 363 368 368 364 365 360 366 363 365 362 358 356 358 349 354 349 338 338 340 343 356 358 358 360 362 360 357 348 350 351 348 346 346 346 347 347 346 345
350 347 360 363 362 362 368 367 363 361 364 364 359 359 365 361 358 354 353 353 354 349 342 349 349 354 361 356 359 359 363 352 350 348 353 352 346 346 345 345 345 344 344
346 358 364 364 363 365 366 365 365 362 358 363 363 362 360 363 359 356 354 352 349 350 344 346 349 351 354 356 361 363 366 359 357 347 351 350 346 345 344 342 342 343 342
360 361 365 367 366 366 363 366 363 360 359 358 360 362 360 355 360 362 359 358 357 355 354 348 355 353 355 357 365 364 362 356 356 349 349 346 347 342 340 338 339 341 338
366 362 364 366 364 364 362 361 364 364 362 361 360 358 353 357 358 360 361 360 356 357 354 353 350 353 352 354 352 359 354 360 353 350 345 344 343 340 338 335 338 341 335
362 362 362 362 365 361 361 361 361 359 362 360 363 360 361 358 356 362 357 358 357 355 352 352 345 345 351 353 355 351 349 355 354 357 355 351 347 346 344 340 341 343 334
363 362 360 360 362 351 339 340 347 352 357 357 360 357 359 352 348 348 354 358 360 357 355 349 348 348 350 350 349 354 351 353 355 358 356 356 356 358 356 339 346 344 339
361 362 360 358 348 335 326 329 339 351 354 351 355 358 351 344 348 342 342 342 345 354 352 351 349 347 349 352 353 353 352 350 346 358 355 353 357 355 357 354 345 343 335
357 354 352 347 334 326 317 321 332 354 360 357 354 354 351 338 332 339 340 342 342 337 338 350 350 350 350 351 355 350 348 351 350 353 354 350 357 354 357 357 340 336 335
346 342 341 337 330 318 314 318 328 356 356 350 347 351 339 330 323 324 336 347 348 352 355 348 351 349 347 349 350 349 351 352 352 352 354 346 353 348 352 354 341 338 335
333 331 329 324 324 312 311 314 331 356 345 335 330 330 331 326 317 317 339 337 338 338 330 330 331 329 328 328 331 342 348 345 343 344 350 339 345 344 348 350 353 341 332
327 323 321 319 316 309 309 310 322 339 343 337 327 321 317 317 314 314 328 332 327 327 327 331 337 345 341 341 334 348 344 335 335 334 341 332 337 339 339 352 347 351 352

GFSMA_sfc_thetae_117.txt.gz
Theta_e
347 344 345 345 343 346 346 342 344 346 346 342 339 338 338 334 336 342 346 356 358 357 355 354 353 354 355 357 358 359 360 362 366 365 365 366 367 367 365 365 364 365 364
346 348 343 347 345 344 344 346 344 344 342 339 341 339 340 340 334 338 343 348 359 359 357 355 355 356 357 358 359 361 364 367 367 368 368 367 366 366 366 364 364 364 364
350 343 345 348 344 345 347 349 346 348 342 342 338 342 340 341 338 336 339 342 350 359 358 358 360 361 361 360 361 365 366 366 366 366 365 365 365 365 366 366 366 366 365
349 352 348 344 346 350 353 351 351 344 340 338 340 341 342 341 342 340 339 341 343 344 355 361 361 362 363 361 364 366 366 365 365 364 364 365 365 365 365 364 364 365 365
352 353 351 348 347 347 345 344 345 341 343 340 341 341 340 340 341 345 342 342 342 345 346 355 361 361 362 363 368 368 366 364 364 363 363 364 363 362 362 361 361 361 362
353 354 348 334 340 343 344 349 347 349 345 339 342 340 339 340 342 341 342 347 344 346 346 346 352 355 362 365 367 367 366 365 363 363 363 362 361 360 359 359 359 360 360
353 352 343 340 338 341 342 349 342 348 347 347 345 340 339 339 341 340 345 344 343 345 348 347 350 351 352 362 362 364 365 362 363 364 362 360 358 359 358 358 357 358 359
351 354 344 339 334 343 347 347 349 349 346 341 338 341 330 335 339 341 341 344 341 344 346 346 346 351 352 352 355 365 359 360 364 363 360 358 357 358 358 357 357 357 358
355 352 345 342 342 343 341 348 351 345 345 344 341 342 332 330 333 336 335 341 338 343 343 344 348 352 350 356 360 359 359 358 360 359 359 358 357 357 358 359 357 356 357
352 352 352 348 343 332 342 346 355 352 348 343 343 345 337 341 333 333 338 340 341 344 341 346 348 350 354 352 358 354 355 355 354 356 357 359 358 358 359 360 358 357 357
351 352 353 346 337 336 347 348 354 349 338 337 337 343 339 339 339 333 330 334 333 341 345 338 345 348 355 352 350 350 355 352 350 351 355 356 358 359 360 360 360 359 357
351 353 353 352 349 349 347 351 352 352 339 333 335 344 337 336 334 334 331 327 327 338 341 340 340 347 341 351 357 356 358 352 349 350 352 353 355 356 357 357 358 358 356
348 349 353 351 351 352 352 352 351 351 351 345 346 345 338 333 335 338 333 328 330 340 336 336 336 345 353 346 353 356 357 351 347 347 348 348 351 352 353 354 354 355 353
348 351 352 352 353 354 351 353 350 350 349 350 350 348 350 345 335 336 334 328 327 333 331 329 339 344 347 350 354 358 352 351 354 349 347 347 347 348 349 350 349 350 348
355 349 349 352 351 353 352 353 350 349 348 350 348 348 348 349 349 346 342 342 339 331 332 336 337 348 348 346 351 351 349 354 349 346 346 347 346 347 346 346 346 345 345
343 338 336 344 351 353 355 352 349 346 349 349 349 347 349 351 347 348 345 343 340 340 329 340 338 342 351 348 351 350 351 353 350 348 349 347 347 347 345 345 344 343 343
338 336 338 347 350 350 351 351 349 349 348 348 349 348 348 345 345 346 349 348 343 343 335 338 343 346 344 347 350 354 358 355 350 347 346 343 344 343 343 342 342 342 341
341 349 351 352 351 352 353 352 351 350 348 347 348 347 347 351 347 349 346 345 346 346 342 338 341 343 344 348 349 348 352 356 350 352 343 341 343 340 338 338 339 340 337
350 352 352 352 352 352 351 350 350 350 350 349 346 347 349 349 348 345 345 343 347 348 344 342 342 343 342 348 347 348 349 351 356 352 347 347 345 343 341 339 339 339 333
351 351 351 352 351 348 347 349 350 351 349 350 349 350 349 347 349 347 345 346 348 346 345 343 342 342 343 347 346 347 347 351 351 354 353 349 345 346 344 339 336 336 333
350 349 349 347 341 336 334 338 348 345 346 343 341 350 343 345 343 341 345 344 345 343 344 342 340 340 341 345 345 347 345 347 348 349 351 352 353 353 354 343 346 341 337
346 346 344 336 331 327 327 326 336 343 346 343 340 343 339 333 335 337 337 339 339 341 340 340 340 340 340 341 346 345 342 342 340 349 348 347 351 350 352 350 344 338 335
346 341 333 325 317 316 319 321 331 341 344 339 340 342 331 327 322 326 333 339 339 338 337 340 339 340 340 340 341 338 339 340 341 346 344 342 348 341 345 348 339 337 335
337 332 328 320 311 310 315 319 330 343 331 331 332 328 322 317 317 322 332 330 332 327 326 333 332 332 334 334 334 338 341 342 343 345 333 332 339 335 339 342 341 338 333
324 324 319 313 308 306 312 320 336 335 326 321 320 320 316 313 316 320 327 320 318 319 323 325 327 329 329 330 332 335 332 330 328 329 330 323 327 331 335 340 341 335 327
322 320 316 310 310 305 310 315 325 334 322 316 314 312 316 312 313 313 317 318 313 315 316 323 329 333 334 330 328 328 329 326 322 318 325 323 325 328 327 333 334 331 327

GFSMA_sfc_thetae_120.txt.gz
Theta_e
342 345 344 343 339 343 343 340 341 341 344 344 341 344 333 335 337 345 347 357 358 356 354 353 353 354 355 357 358 359 360 362 365 365 365 365 365 365 364 364 364 365 363
343 344 340 341 341 343 340 343 342 343 339 338 336 336 334 334 336 340 344 347 358 358 357 356 356 357 357 358 359 360 363 366 367 367 366 365 365 364 363 365 364 363 364
344 342 343 343 342 342 343 347 348 344 343 340 337 338 336 335 335 336 339 342 348 359 357 358 360 361 361 359 361 365 366 366 366 365 365 365 365 364 365 365 365 364 364
349 346 342 342 346 346 346 345 346 344 339 340 338 337 338 337 334 334 336 337 341 343 351 360 361 361 361 361 365 367 367 366 364 364 364 364 364 363 362 362 362 362 361
350 347 347 346 345 343 344 344 342 339 338 338 338 338 339 337 338 340 336 336 337 341 340 349 359 361 362 363 368 369 368 366 364 363 363 362 361 360 360 360 359 360 360
351 346 336 334 338 341 340 345 341 346 337 337 340 340 337 337 338 339 337 341 340 341 341 342 344 352 360 364 367 366 368 366 363 363 362 359 358 359 358 358 357 358 359
352 346 337 332 339 339 343 345 339 345 339 340 338 339 336 338 338 340 341 341 341 343 344 344 345 346 348 358 362 362 367 364 364 363 359 357 358 357 357 356 357 357 358
351 347 340 330 341 344 341 346 347 343 343 340 338 338 327 333 336 338 340 342 339 344 345 347 345 346 353 352 355 361 364 359 364 360 359 358 357 357 356 356 356 356 356
351 347 343 337 342 338 336 344 348 346 342 342 335 339 329 326 334 333 336 340 342 342 341 342 346 348 351 351 357 356 358 357 360 358 360 359 358 357 357 357 357 356 355
351 349 345 343 342 330 340 345 353 345 342 337 343 339 337 335 330 329 336 337 334 342 341 339 343 346 353 352 355 356 355 355 355 355 359 360 359 359 360 359 358 357 356
349 351 349 345 334 335 344 348 349 336 338 334 337 341 336 336 335 332 328 332 331 336 342 343 345 345 349 351 349 349 354 354 353 353 355 358 358 361 361 360 360 359 357
347 349 349 347 344 346 345 349 350 341 331 332 339 339 336 335 333 330 327 324 325 333 340 343 343 342 345 343 354 357 356 354 351 349 350 353 355 357 359 357 357 358 355
345 347 349 347 348 348 348 350 349 348 343 339 344 340 335 335 335 333 331 326 325 335 336 336 336 337 347 347 348 355 356 350 348 345 346 348 350 352 354 354 353 354 352
345 348 351 349 348 350 349 349 347 348 347 348 346 347 342 334 335 337 334 329 328 329 330 330 336 339 345 345 350 355 353 347 347 345 344 344 346 347 348 349 349 349 348
350 349 350 349 349 351 348 349 347 345 345 347 347 344 345 344 341 338 337 333 334 328 330 336 335 341 345 346 349 349 347 346 347 345 342 341 342 344 345 345 345 345 345
346 345 343 344 348 349 350 348 347 344 346 346 346 343 344 346 343 344 342 340 338 334 325 335 337 338 343 347 349 351 354 350 347 343 342 339 340 343 343 343 343 342 343
339 338 336 340 348 348 348 348 347 345 345 345 345 346 345 344 342 344 345 344 342 339 332 336 339 343 343 345 349 350 352 352 351 344 341 340 340 340 341 340 339 339 340
342 339 337 345 346 349 348 348 347 349 346 344 345 345 344 349 345 346 343 342 342 343 339 335 339 342 341 348 349 349 351 354 351 348 341 341 340 339 337 333 334 336 336
339 340 348 348 349 350 349 349 349 349 348 347 346 344 344 346 347 343 342 341 343 344 341 340 339 341 341 347 346 348 348 348 351 349 344 342 341 339 336 333 330 330 331
346 346 349 348 346 347 345 347 349 349 348 346 347 346 345 345 344 343 343 342 344 342 341 338 338 339 340 345 344 343 342 345 345 352 349 345 342 343 340 336 335 334 329
347 348 344 340 338 336 335 339 344 345 344 339 344 341 336 338 337 336 344 341 341 339 339 338 337 338 339 339 339 343 339 341 344 346 345 346 347 348 347 343 343 337 330
344 342 334 330 327 331 327 327 336 339 341 340 339 336 330 329 332 333 333 337 336 338 336 336 337 336 336 336 338 337 337 337 335 338 337 341 344 336 341 346 334 329 326
338 329 322 320 317 318 320 320 329 340 340 336 338 329 325 325 327 333 333 333 328 330 334 335 329 329 329 332 333 332 333 334 336 329 330 333 334 330 335 341 331 326 324
332 327 321 318 316 318 318 320 329 335 333 329 324 320 317 317 322 326 320 318 318 319 321 324 323 326 330 331 331 333 334 333 333 334 324 317 325 328 332 335 329 325 321
325 321 316 313 312 313 316 325 329 327 321 318 316 313 312 312 317 322 316 313 314 317 323 324 326 325 323 324 326 325 323 320 318 322 318 320 321 323 328 329 327 322 317
315 313 311 309 310 309 314 321 325 321 314 312 311 311 315 312 312 314 315 312 314 313 318 318 318 319 318 317 320 315 315 311 314 312 311 317 308 311 314 321 319 314 313

GFSMA_sfc_thetae_123.txt.gz
Theta_e
340 342 342 341 337 342 342 342 340 341 340 342 341 342 337 338 338 341 343 354 355 355 354 354 354 355 355 357 359 360 361 362 365 367 365 365 364 364 363 362 363 363 363
342 343 341 339 340 341 338 339 341 340 341 337 336 336 335 334 336 339 344 346 358 356 357 356 357 357 357 358 360 362 365 366 367 367 364 363 363 363 362 363 364 364 364
343 340 339 341 342 342 343 346 346 343 340 338 336 334 332 333 334 335 339 341 344 356 357 357 360 362 360 359 361 365 367 367 367 366 364 362 363 363 364 363 362 361 360
344 342 341 340 345 345 342 342 341 340 339 338 336 334 334 334 332 332 333 336 338 341 347 358 360 362 360 361 366 367 366 367 366 363 363 362 362 362 361 360 360 360 360
348 347 342 344 343 342 344 345 342 339 337 336 336 336 336 335 333 335 333 333 333 338 337 344 353 358 359 363 367 367 368 367 365 362 363 361 359 359 359 359 358 358 359
349 342 337 335 339 339 342 342 339 342 335 335 338 339 336 336 336 337 337 337 337 337 339 340 342 345 354 356 361 365 366 367 365 363 361 357 357 358 358 358 357 357 358
348 341 336 331 338 342 344 346 342 340 336 338 336 337 334 336 335 339 341 341 340 342 342 344 344 346 347 354 358 361 366 368 365 364 359 358 357 357 356 356 356 357 357
349 344 340 330 340 340 342 346 345 340 338 337 338 332 327 330 334 335 338 340 339 342 342 345 346 346 347 349 352 362 363 364 363 364 361 359 358 357 357 355 355 356 356
350 345 338 336 339 335 341 344 346 343 339 339 337 336 327 325 332 334 334 337 340 339 340 342 344 346 351 351 354 352 355 356 359 361 362 361 359 358 358 356 356 356 355
349 347 342 339 339 331 342 346 346 341 338 336 340 336 335 333 327 327 334 337 334 339 337 341 344 344 350 349 353 354 353 354 357 359 360 360 361 359 360 358 357 357 355
347 348 346 343 330 338 343 346 342 333 336 337 337 336 335 334 332 329 325 330 331 332 341 340 342 344 345 345 348 349 355 355 354 356 356 357 359 360 361 361 359 359 357
346 347 347 343 338 342 344 347 345 333 331 336 340 335 335 334 329 328 324 323 322 329 338 339 339 339 340 344 350 355 355 354 351 351 351 352 355 355 357 358 358 358 354
343 345 347 345 343 345 346 347 346 343 335 338 342 338 334 333 334 330 328 325 322 328 334 335 334 336 340 341 345 353 354 349 348 345 344 346 349 351 353 355 354 353 351
343 346 348 346 346 346 347 347 346 346 345 345 345 344 338 333 334 335 332 328 329 328 331 332 336 341 342 345 349 354 347 346 344 341 342 343 344 346 348 349 349 349 347
346 346 349 348 347 348 347 345 345 343 343 345 344 343 344 342 336 336 334 332 333 327 328 333 334 339 342 345 350 349 351 348 344 343 341 341 342 344 344 345 345 345 344
346 348 347 346 347 346 347 346 345 344 343 345 344 341 343 344 341 342 339 339 335 332 324 331 336 338 342 346 352 349 351 349 345 342 341 340 340 341 340 339 341 342 342
343 343 343 342 345 346 347 347 345 344 342 342 343 343 342 341 339 341 343 342 340 336 331 335 337 342 342 345 349 349 351 349 349 343 341 339 338 338 336 336 337 339 339
341 339 337 338 345 346 347 346 346 347 343 343 343 343 343 346 342 342 340 340 340 340 336 332 337 340 340 346 348 347 349 351 348 346 339 339 337 336 333 333 332 333 332
342 341 339 340 346 347 347 347 347 347 347 345 345 343 343 343 342 343 340 339 340 341 339 337 335 338 340 345 344 344 344 344 349 345 341 339 338 336 332 328 326 325 325
340 338 340 345 348 348 348 347 348 346 346 345 345 344 344 344 344 342 342 341 342 339 339 335 335 336 338 342 341 340 339 342 342 331 343 339 337 338 333 327 327 324 320
345 345 345 343 341 340 337 339 342 346 343 344 340 338 336 337 336 337 342 340 339 337 337 336 335 335 336 334 334 339 335 337 339 325 332 333 334 336 338 325 326 326 321
342 340 339 335 334 333 325 328 332 341 342 340 335 332 332 333 334 334 333 333 337 337 335 335 332 328 329 331 332 331 332 332 333 325 324 328 331 329 333 321 323 322 320
337 332 328 327 326 323 321 320 328 338 340 336 332 326 325 328 331 335 328 325 325 326 330 330 325 325 325 328 328 329 329 328 323 317 320 319 322 323 333 321 320 320 320
330 326 324 326 325 323 322 321 329 337 333 330 324 320 321 323 325 323 320 318 319 319 321 325 323 321 321 324 327 327 327 324 327 316 311 316 318 314 327 323 319 319 318
323 318 316 316 320 322 319 325 329 326 321 319 316 314 315 317 320 318 315 316 318 320 320 320 319 318 317 318 318 314 313 313 313 312 307 311 306 307 318 315 312 317 315
312 312 311 314 314 317 318 321 322 318 313 313 313 314 316 314 315 316 316 316 315 314 313 312 312 313 312 312 315 310 310 308 307 301 304 306 301 304 302 311 310 309 309